[[{"header":{"parameterUnit":"m.s-1","parameterCategory":1,"la1":30.6,"la2":28.766,"lo1":-90.7593,"lo2":-88.6598,"dx":0.0162,"dy":0.0183,"nx":116,"ny":114,"refTime":"2022-12-07T18:00:00:Z","depth":0,"parameterNumber":2,"parameterNumberName":"U-component_of_WINDS"},"data":[0.0,0.0,0.0,0.0,0.0,0.0,0.0,0.0,0.0,0.0,0.0,0.0,0.0,0.0,0.0,0.0,0.0,0.0,0.0,0.0,0.0,0.0,0.0,0.0,0.0,0.0,0.0,0.0,0.0,0.0,0.0,0.0,0.0,0.0,0.0,0.0,0.0,0.0,0.0,0.0,0.0,0.0,0.0,0.0,0.0,0.0,0.0,0.0,0.0,0.0,0.0,0.0,0.0,0.0,0.0,0.0,0.0,0.0,0.0,0.0,0.0,0.0,0.0,0.0,0.0,0.0,0.0,0.0,0.0,0.0,0.0,0.0,0.0,0.0,0.0,0.0,0.0,0.0,0.0,0.0,0.0,0.0,0.0,0.0,0.0,0.0,0.0,0.0,0.0,0.0,0.0,0.0,0.0,0.0,0.0,0.0,0.0,0.0,0.0,0.0,0.0,0.0,0.0,0.0,0.0,0.0,0.0,0.0,0.0,0.0,0.0,0.0,0.0,0.0,0.0,0.0,0.0,0.0,0.0,0.0,0.0,0.0,0.0,0.0,0.0,0.0,0.0,0.0,0.0,0.0,0.0,0.0,0.0,0.0,0.0,0.0,0.0,0.0,0.0,0.0,0.0,0.0,0.0,0.0,0.0,0.0,0.0,0.0,0.0,0.0,0.0,0.0,0.0,0.0,0.0,0.0,0.0,0.0,0.0,0.0,0.0,0.0,0.0,0.0,0.0,0.0,0.0,0.0,0.0,0.0,0.0,0.0,0.0,0.0,0.0,0.0,0.0,0.0,0.0,0.0,0.0,0.0,0.0,0.0,0.0,0.0,0.0,0.0,0.0,0.0,0.0,0.0,0.0,0.0,0.0,0.0,0.0,0.0,0.0,0.0,0.0,0.0,0.0,0.0,0.0,0.0,0.0,0.0,0.0,0.0,0.0,0.0,0.0,0.0,0.0,0.0,0.0,0.0,0.0,0.0,0.0,0.0,0.0,0.0,0.0,0.0,0.0,0.0,0.0,0.0,0.0,0.0,0.0,0.0,0.0,0.0,0.0,0.0,0.0,0.0,0.0,0.0,0.0,0.0,0.0,0.0,0.0,0.0,0.0,0.0,0.0,0.0,0.0,0.0,0.0,0.0,0.0,0.0,0.0,0.0,0.0,0.0,0.0,0.0,0.0,0.0,0.0,0.0,0.0,0.0,0.0,0.0,0.0,0.0,0.0,0.0,0.0,0.0,0.0,0.0,0.0,0.0,0.0,0.0,0.0,0.0,0.0,0.0,0.0,0.0,0.0,0.0,0.0,0.0,0.0,0.0,0.0,0.0,0.0,0.0,0.0,0.0,0.0,0.0,0.0,0.0,0.0,0.0,0.0,0.0,0.0,0.0,0.0,0.0,0.0,0.0,0.0,0.0,0.0,0.0,0.0,0.0,0.0,0.0,0.0,0.0,0.0,0.0,0.0,0.0,0.0,0.0,0.0,0.0,0.0,0.0,0.0,0.0,0.0,0.0,0.0,0.0,0.0,0.0,0.0,0.0,0.0,0.0,0.0,0.0,0.0,0.0,0.0,0.0,0.0,0.0,0.0,0.0,0.0,0.0,0.0,0.0,0.0,0.0,0.0,0.0,0.0,0.0,0.0,0.0,0.0,0.0,0.0,0.0,0.0,0.0,0.0,0.0,0.0,0.0,0.0,0.0,0.0,0.0,0.0,0.0,0.0,0.0,0.0,0.0,0.0,0.0,0.0,0.0,0.0,0.0,0.0,0.0,0.0,0.0,0.0,0.0,0.0,0.0,0.0,0.0,0.0,0.0,0.0,0.0,0.0,0.0,0.0,0.0,0.0,0.0,0.0,0.0,0.0,0.0,0.0,0.0,0.0,0.0,0.0,0.0,0.0,0.0,0.0,0.0,0.0,0.0,0.0,0.0,0.0,0.0,0.0,0.0,0.0,0.0,0.0,0.0,0.0,0.0,0.0,0.0,0.0,0.0,0.0,0.0,0.0,0.0,0.0,0.0,0.0,0.0,0.0,0.0,0.0,0.0,0.0,0.0,0.0,0.0,0.0,0.0,0.0,0.0,0.0,0.0,0.0,0.0,0.0,0.0,0.0,0.0,0.0,0.0,0.0,0.0,0.0,0.0,0.0,0.0,0.0,0.0,0.0,0.0,0.0,0.0,0.0,0.0,0.0,0.0,0.0,0.0,0.0,0.0,0.0,0.0,0.0,0.0,0.0,0.0,0.0,0.0,0.0,0.0,0.0,0.0,0.0,0.0,0.0,0.0,0.0,0.0,0.0,0.0,0.0,0.0,0.0,0.0,0.0,0.0,0.0,0.0,0.0,0.0,0.0,0.0,0.0,0.0,0.0,0.0,0.0,0.0,0.0,0.0,0.0,0.0,0.0,0.0,0.0,0.0,0.0,0.0,0.0,0.0,0.0,0.0,0.0,0.0,0.0,0.0,0.0,0.0,0.0,0.0,0.0,0.0,0.0,0.0,0.0,0.0,0.0,0.0,0.0,0.0,0.0,0.0,0.0,0.0,0.0,0.0,0.0,0.0,0.0,0.0,0.0,0.0,0.0,0.0,0.0,0.0,0.0,0.0,0.0,0.0,0.0,0.0,0.0,0.0,0.0,0.0,0.0,0.0,0.0,0.0,0.0,0.0,0.0,0.0,0.0,0.0,0.0,0.0,0.0,0.0,0.0,0.0,0.0,0.0,0.0,0.0,0.0,0.0,0.0,0.0,0.0,0.0,0.0,0.0,0.0,0.0,0.0,0.0,0.0,0.0,0.0,0.0,0.0,0.0,0.0,0.0,0.0,0.0,0.0,0.0,0.0,0.0,0.0,0.0,0.0,0.0,0.0,0.0,0.0,0.0,0.0,0.0,0.0,0.0,0.0,0.0,0.0,0.0,0.0,0.0,0.0,0.0,0.0,0.0,0.0,0.0,0.0,0.0,0.0,0.0,0.0,0.0,0.0,0.0,0.0,0.0,0.0,0.0,0.0,0.0,0.0,0.0,0.0,0.0,0.0,0.0,0.0,0.0,0.0,0.0,0.0,0.0,0.0,0.0,0.0,0.0,0.0,0.0,0.0,0.0,0.0,0.0,0.0,0.0,0.0,0.0,0.0,0.0,0.0,0.0,0.0,0.0,0.0,0.0,0.0,0.0,0.0,0.0,0.0,0.0,0.0,0.0,0.0,0.0,0.0,0.0,0.0,0.0,0.0,0.0,0.0,0.0,0.0,0.0,0.0,0.0,0.0,0.0,0.0,0.0,0.0,0.0,0.0,0.0,0.0,0.0,0.0,0.0,0.0,0.0,0.0,0.0,0.0,0.0,0.0,0.0,0.0,0.0,0.0,0.0,0.0,0.0,0.0,0.0,0.0,0.0,0.0,0.0,0.0,0.0,0.0,0.0,0.0,0.0,0.0,0.0,0.0,0.0,0.0,0.0,0.0,0.0,0.0,0.0,0.0,0.0,0.0,0.0,0.0,0.0,0.0,0.0,0.0,0.0,0.0,0.0,0.0,0.0,0.0,0.0,0.0,0.0,0.0,0.0,0.0,0.0,0.0,0.0,0.0,0.0,0.0,0.0,0.0,0.0,0.0,0.0,0.0,0.0,0.0,0.0,0.0,0.0,0.0,0.0,0.0,0.0,0.0,0.0,0.0,0.0,0.0,0.0,0.0,0.0,0.0,0.0,0.0,0.0,0.0,0.0,0.0,0.0,0.0,0.0,0.0,0.0,0.0,0.0,0.0,0.0,0.0,0.0,0.0,0.0,0.0,0.0,0.0,0.0,0.0,0.0,0.0,0.0,0.0,0.0,0.0,0.0,0.0,0.0,0.0,0.0,0.0,0.0,0.0,0.0,0.0,0.0,0.0,0.0,0.0,0.0,0.0,0.0,0.0,0.0,0.0,0.0,0.0,0.0,0.0,0.0,0.0,0.0,0.0,0.0,0.0,0.0,0.0,0.0,0.0,0.0,0.0,0.0,0.0,0.0,0.0,0.0,0.0,0.0,0.0,0.0,0.0,0.0,0.0,0.0,0.0,0.0,0.0,0.0,0.0,0.0,0.0,0.0,0.0,0.0,0.0,0.0,0.0,0.0,0.0,0.0,0.0,0.0,0.0,0.0,0.0,0.0,0.0,0.0,0.0,0.0,0.0,0.0,0.0,0.0,0.0,0.0,0.0,0.0,0.0,0.0,0.0,0.0,0.0,0.0,0.0,0.0,0.0,0.0,0.0,0.0,0.0,0.0,0.0,0.0,0.0,0.0,0.0,0.0,0.0,0.0,0.0,0.0,0.0,0.0,0.0,0.0,0.0,0.0,0.0,0.0,0.0,0.0,0.0,0.0,0.0,0.0,0.0,0.0,0.0,0.0,0.0,0.0,0.0,0.0,0.0,0.0,0.0,0.0,0.0,0.0,0.0,0.0,0.0,0.0,0.0,0.0,0.0,0.0,0.0,0.0,0.0,0.0,0.0,0.0,0.0,0.0,0.0,0.0,0.0,0.0,0.0,0.0,0.0,0.0,0.0,0.0,0.0,0.0,0.0,0.0,0.0,0.0,0.0,0.0,0.0,0.0,0.0,0.0,0.0,0.0,0.0,0.0,0.0,0.0,0.0,0.0,0.0,0.0,0.0,0.0,0.0,0.0,0.0,0.0,0.0,0.0,0.0,0.0,0.0,0.0,0.0,0.0,0.0,0.0,0.0,0.0,0.0,0.0,0.0,0.0,0.0,0.0,0.0,0.0,0.0,0.0,0.0,0.0,0.0,0.0,0.0,0.0,0.0,0.0,0.0,0.0,0.0,0.0,0.0,0.0,0.0,0.0,0.0,0.0,0.0,0.0,0.0,0.0,0.0,0.0,0.0,0.0,0.0,0.0,0.0,0.0,0.0,0.0,0.0,0.0,0.0,0.0,0.0,0.0,0.0,0.0,0.0,0.0,0.0,0.0,0.0,0.0,0.0,0.0,0.0,0.0,0.0,0.0,0.0,0.0,0.0,0.0,0.0,0.0,0.0,0.0,0.0,0.0,0.0,0.0,0.0,0.0,0.0,0.0,0.0,0.0,0.0,0.0,0.0,0.0,0.0,0.0,0.0,0.0,0.0,0.0,0.0,0.0,0.0,0.0,0.0,0.0,0.0,0.0,0.0,0.0,0.0,0.0,0.0,0.0,0.0,0.0,0.0,0.0,0.0,0.0,0.0,0.0,0.0,0.0,0.0,0.0,0.0,0.0,0.0,0.0,0.0,0.0,0.0,0.0,0.0,0.0,0.0,0.0,0.0,0.0,0.0,0.0,0.0,0.0,0.0,0.0,0.0,0.0,0.0,0.0,0.0,0.0,0.0,0.0,0.0,0.0,0.0,0.0,0.0,0.0,0.0,0.0,0.0,0.0,0.0,0.0,0.0,0.0,0.0,0.0,0.0,0.0,0.0,0.0,0.0,0.0,0.0,0.0,0.0,0.0,0.0,0.0,0.0,0.0,0.0,0.0,0.0,0.0,0.0,0.0,0.0,0.0,0.0,0.0,0.0,0.0,0.0,0.0,0.0,0.0,0.0,0.0,0.0,0.0,0.0,0.0,0.0,0.0,0.0,0.0,0.0,0.0,0.0,0.0,0.0,0.0,0.0,0.0,0.0,0.0,0.0,0.0,0.0,0.0,0.0,0.0,0.0,0.0,0.0,0.0,0.0,0.0,0.0,0.0,0.0,0.0,0.0,0.0,0.0,0.0,0.0,0.0,0.0,0.0,0.0,0.0,0.0,0.0,0.0,0.0,0.0,0.0,0.0,0.0,0.0,0.0,0.0,0.0,0.0,0.0,0.0,0.0,0.0,0.0,0.0,0.0,0.0,0.0,0.0,0.0,0.0,0.0,0.0,0.0,0.0,0.0,0.0,0.0,0.0,0.0,0.0,0.0,0.0,0.0,0.0,0.0,0.0,0.0,0.0,0.0,0.0,0.0,0.0,0.0,0.0,0.0,0.0,0.0,0.0,0.0,0.0,0.0,0.0,0.0,0.0,0.0,0.0,0.0,0.0,0.0,0.0,0.0,0.0,0.0,0.0,0.0,0.0,0.0,0.0,0.0,0.0,0.0,0.0,0.0,0.0,0.0,-1.8945,-1.7523,0.0,0.0,0.0,0.0,0.0,0.0,0.0,0.0,0.0,0.0,0.0,0.0,0.0,0.0,0.0,0.0,0.0,0.0,0.0,0.0,0.0,0.0,0.0,-0.9788,-0.9507,-0.9486,-0.906,0.0,0.0,0.0,0.0,0.0,0.0,0.0,0.0,0.0,-0.8356,-0.8693,-0.9551,-1.0586,-1.1765,-1.1346,-1.0766,-1.0042,0.0,0.0,0.0,0.0,0.0,0.0,0.0,0.0,0.0,0.0,0.0,0.0,0.0,0.0,0.0,0.0,0.0,0.0,0.0,0.0,0.0,0.0,0.0,0.0,0.0,0.0,0.0,0.0,0.0,0.0,0.0,0.0,0.0,0.0,0.0,0.0,0.0,0.0,0.0,0.0,0.0,0.0,0.0,0.0,0.0,0.0,0.0,0.0,0.0,0.0,0.0,0.0,0.0,0.0,0.0,0.0,0.0,0.0,0.0,0.0,0.0,0.0,0.0,0.0,0.0,0.0,0.0,0.0,0.0,0.0,-2.1394,-1.9705,0.0,0.0,0.0,0.0,0.0,0.0,0.0,0.0,0.0,0.0,0.0,0.0,0.0,0.0,0.0,0.0,0.0,0.0,0.0,0.0,0.0,-1.0255,-1.041,-1.0422,-1.0442,-1.0538,-1.04,-1.0014,-0.9282,-0.9046,0.0,0.0,0.0,0.0,-0.7711,-0.872,-0.9625,-1.0417,-1.1664,-1.2983,-1.4375,-1.5373,-1.5121,-1.3856,-1.3265,0.0,0.0,0.0,0.0,0.0,0.0,0.0,0.0,0.0,0.0,0.0,0.0,0.0,0.0,0.0,0.0,0.0,0.0,0.0,0.0,0.0,0.0,0.0,0.0,0.0,0.0,0.0,0.0,0.0,0.0,0.0,0.0,0.0,0.0,0.0,0.0,0.0,0.0,0.0,0.0,0.0,0.0,0.0,0.0,0.0,0.0,0.0,0.0,0.0,0.0,0.0,0.0,0.0,0.0,0.0,0.0,0.0,0.0,0.0,0.0,0.0,0.0,0.0,-2.3614,-2.4212,-2.4266,-2.5751,-2.6319,-2.6047,-2.3476,-2.1798,-2.0861,-2.05,0.0,0.0,0.0,0.0,0.0,0.0,0.0,0.0,0.0,0.0,0.0,0.0,0.0,0.0,0.0,0.0,0.0,0.0,0.0,-1.0488,-1.126,-1.1277,-1.1515,-1.2202,-1.1623,-1.1158,-1.0986,-1.0304,0.0,0.0,0.0,-0.9324,-0.8563,-1.0134,-1.1337,-1.2086,-1.5119,-1.6697,-1.6942,-1.8463,-1.9094,-1.8808,-1.5955,-1.4175,-1.3281,0.0,0.0,0.0,0.0,0.0,0.0,0.0,0.0,0.0,0.0,0.0,0.0,0.0,0.0,0.0,0.0,0.0,0.0,0.0,0.0,0.0,0.0,0.0,0.0,0.0,0.0,0.0,0.0,0.0,0.0,0.0,0.0,0.0,0.0,0.0,0.0,0.0,0.0,0.0,0.0,0.0,-1.594,-1.6868,0.0,0.0,0.0,0.0,0.0,0.0,0.0,0.0,0.0,0.0,0.0,0.0,0.0,-2.193,-2.3172,-2.3379,-2.4194,-2.5588,-2.5787,-2.5878,-2.5914,-2.6826,-2.6862,-2.621,-2.647,0.0,-2.3188,-2.2452,0.0,0.0,0.0,0.0,0.0,0.0,0.0,0.0,0.0,0.0,0.0,0.0,0.0,0.0,0.0,0.0,0.0,0.0,0.0,0.0,0.0,-1.2524,-1.2925,-1.3192,-1.2929,-1.2701,-1.2593,-1.1844,0.0,0.0,-1.1155,-1.1177,-1.0796,-1.2015,-1.348,-1.5209,-1.8033,-1.9423,-1.9442,-2.0646,-2.1216,-2.1193,-1.9747,-1.7894,-1.5819,-1.4991,0.0,0.0,0.0,0.0,0.0,0.0,0.0,0.0,0.0,0.0,0.0,0.0,0.0,0.0,0.0,0.0,0.0,0.0,0.0,0.0,0.0,0.0,0.0,0.0,0.0,0.0,0.0,0.0,0.0,0.0,0.0,0.0,0.0,0.0,0.0,0.0,0.0,0.0,0.0,-1.6484,-1.793,-1.9225,-1.9695,-1.9894,0.0,0.0,0.0,0.0,0.0,0.0,0.0,0.0,0.0,-2.2428,-2.3539,-2.4737,-2.5972,-2.588,-2.6403,-2.755,-2.8015,-2.8214,-2.825,-2.9065,-2.9228,-2.8884,-2.8793,-2.8117,-2.6995,-2.5234,-2.4198,-2.3572,0.0,0.0,0.0,0.0,-1.9794,-1.9794,0.0,0.0,0.0,0.0,0.0,0.0,0.0,0.0,0.0,0.0,0.0,0.0,-1.3191,-1.4025,-1.4558,-1.4684,-1.4505,-1.4346,-1.4243,-1.3507,-1.3066,-1.3066,-1.3066,-1.3058,-1.3047,-1.4277,-1.6039,-1.8327,-2.0552,-2.1748,-2.1966,-2.283,-2.3356,-2.3543,-2.3337,-2.1444,-1.8326,-1.7319,-1.6055,-1.456,0.0,0.0,0.0,0.0,0.0,0.0,0.0,0.0,0.0,0.0,0.0,0.0,0.0,0.0,0.0,0.0,0.0,0.0,0.0,0.0,0.0,0.0,0.0,0.0,0.0,0.0,0.0,0.0,0.0,0.0,0.0,0.0,0.0,0.0,0.0,0.0,0.0,-1.8624,-1.9701,-2.1166,-2.1504,-2.1735,0.0,0.0,0.0,0.0,0.0,0.0,-2.2847,-2.4081,-2.4868,-2.5021,-2.6197,-2.7271,-2.8225,-2.8088,-2.8431,-2.9215,-2.9807,-3.011,-3.0129,-3.0944,-3.1197,-3.098,-3.0581,-3.031,-2.9934,-2.7619,-2.6481,-2.6034,-2.4709,-2.4019,-2.3643,-2.2652,-2.2289,-2.2306,0.0,0.0,0.0,0.0,0.0,0.0,0.0,0.0,0.0,0.0,0.0,-1.4192,-1.5069,-1.5776,-1.651,-1.7328,-1.6529,-1.597,-1.596,-1.5285,-1.4866,-1.4866,-1.4866,-1.4847,-1.4779,-1.7071,-1.9106,-2.0815,-2.2518,-2.3776,-2.4531,-2.541,-2.6218,-2.6923,-2.6142,-2.3953,-2.0709,-1.9152,-1.7989,-1.7014,-1.4551,0.0,0.0,0.0,0.0,0.0,0.0,0.0,0.0,0.0,0.0,0.0,0.0,0.0,0.0,0.0,0.0,0.0,0.0,0.0,0.0,0.0,0.0,0.0,0.0,0.0,0.0,0.0,0.0,0.0,0.0,0.0,0.0,0.0,0.0,0.0,0.0,0.0,0.0,-2.2135,-2.2912,0.0,0.0,0.0,0.0,-2.43,-2.4348,-2.5002,-2.6446,-2.7137,-2.7508,-2.7519,-2.8149,-2.8866,-2.9689,-2.9676,-3.0074,-3.0889,-3.0926,-3.0944,-3.098,-3.1763,-3.1709,-3.1053,-3.1763,-3.1636,-3.0803,-2.9025,-2.7826,-2.7099,-2.677,-2.6189,-2.5631,-2.6124,-2.6314,-2.6405,0.0,0.0,0.0,-1.0138,-1.0166,-1.0187,-1.0144,-1.0884,-1.1824,-1.291,-1.4053,-1.547,-1.7343,-1.8266,-1.904,-1.9741,-1.9539,-1.9346,-1.9267,-1.8004,-1.7506,-1.8065,-1.7543,-1.7745,-1.8796,-2.0214,-2.1478,-2.2612,-2.4291,-2.526,-2.5541,-2.6387,-2.6923,-2.7186,-2.6904,-2.5823,-2.4084,-2.1912,-2.0509,-1.9558,-1.7078,-1.6096,0.0,0.0,0.0,0.0,0.0,0.0,0.0,0.0,0.0,0.0,0.0,0.0,0.0,0.0,0.0,0.0,0.0,0.0,0.0,0.0,0.0,0.0,0.0,0.0,0.0,0.0,0.0,0.0,0.0,0.0,0.0,0.0,0.0,0.0,0.0,0.0,0.0,-2.4584,-2.5391,0.0,-2.5371,-2.5662,-2.6126,-2.672,-2.6718,-2.712,-2.8107,-2.8854,-2.9287,-2.9432,-3.0015,-3.1038,-3.2491,-3.2261,-3.2777,-3.4099,-3.4099,-3.4099,-3.4099,-3.4389,-3.4371,-3.4099,-3.4389,-3.4353,-3.403,-3.3424,-3.1708,-2.9463,-2.8847,-2.8389,-2.8066,-2.7942,-2.787,-2.7879,0.0,0.0,0.0,-1.0106,-1.0136,-1.0252,-1.0498,-1.1275,-1.2447,-1.4128,-1.5552,-1.7136,-1.9032,-2.0198,-2.1001,-2.1406,-2.1519,-2.1538,-2.1447,-2.0389,-2.0032,-2.0627,-2.0089,-2.0427,-2.1804,-2.2405,-2.325,-2.4347,-2.5455,-2.6274,-2.6818,-2.7355,-2.7768,-2.803,-2.7749,-2.7317,-2.6668,-2.449,-2.2908,-2.1713,-1.9505,-1.8606,-1.8337,0.0,0.0,0.0,0.0,0.0,0.0,0.0,0.0,0.0,0.0,0.0,0.0,0.0,0.0,0.0,0.0,0.0,0.0,0.0,0.0,0.0,0.0,0.0,0.0,0.0,0.0,0.0,0.0,0.0,0.0,0.0,0.0,0.0,0.0,-2.4276,-2.5552,-2.6687,-2.7279,-2.7695,-2.7885,-2.7986,-2.8296,-2.8937,-2.8932,-2.9363,-3.035,-3.1131,-3.1696,-3.2122,-3.2641,-3.35,-3.471,-3.4382,-3.4736,-3.5804,-3.5804,-3.5804,-3.5804,-3.5804,-3.5804,-3.5804,-3.5804,-3.5804,-3.5804,-3.5804,-3.4491,-3.2411,-3.1542,-3.0999,-3.0657,-3.0445,-3.0366,-3.0462,0.0,0.0,-1.0094,-1.0094,-1.0104,-1.0381,-1.1267,-1.2166,-1.3345,-1.5028,-1.7339,-1.9184,-2.0063,-2.1468,-2.2356,-2.2369,-2.2371,-2.2379,-2.2379,-2.2361,-2.2342,-2.2342,-2.2361,-2.2755,-2.3551,-2.3569,-2.4385,-2.6038,-2.6057,-2.6866,-2.8388,-2.8426,-2.8885,-2.9664,-2.8829,-2.8426,-2.8294,-2.6743,-2.5117,-2.3476,-2.1767,-2.1072,-2.0809,0.0,0.0,0.0,0.0,0.0,0.0,0.0,0.0,0.0,0.0,0.0,0.0,0.0,0.0,0.0,0.0,0.0,0.0,0.0,0.0,0.0,0.0,0.0,0.0,0.0,0.0,0.0,0.0,0.0,0.0,0.0,0.0,0.0,-2.4745,-2.5523,-2.6687,-2.8266,-2.8482,-2.8848,-2.9683,-2.9758,-3.0114,-3.095,-3.1015,-3.1728,-3.3427,-3.405,-3.474,-3.5522,-3.5911,-3.612,-3.6157,-3.5926,-3.584,-3.5858,-3.5858,-3.5858,-3.5858,-3.5858,-3.5858,-3.5858,-3.5858,-3.5876,-3.5874,-3.5874,-3.5874,-3.5802,-3.4812,-3.3973,-3.3348,-3.3729,-3.4013,-3.43,-1.0094,-1.0094,-1.0094,-1.0094,-1.0098,-1.0381,-1.1201,-1.2642,-1.4217,-1.5798,-1.8189,-2.0246,-2.1549,-2.2621,-2.3455,-2.3994,-2.4039,-2.4039,-2.4043,-2.345,-2.3113,-2.3175,0.0,0.0,-2.5286,-2.5305,-2.5823,-2.6866,-2.7448,-2.7965,-2.8407,-2.9054,-2.9476,-2.9683,-2.9457,-2.8979,-2.8369,-2.7928,-2.7148,-2.5984,-2.372,-2.2799,-2.2612,0.0,0.0,0.0,0.0,0.0,0.0,0.0,0.0,0.0,0.0,0.0,0.0,0.0,0.0,0.0,0.0,0.0,0.0,0.0,0.0,0.0,0.0,0.0,0.0,0.0,0.0,0.0,0.0,0.0,0.0,0.0,-2.4399,-2.4914,-2.5541,-2.7401,-2.8847,-2.9288,-3.0377,-3.1185,-3.141,-3.1429,-3.2029,-3.3475,-3.3451,-3.4113,-3.5787,-3.6018,-3.6218,-3.6441,-3.6355,-3.6592,-3.7168,-3.6838,-3.6961,-3.754,-3.754,-3.754,-3.754,-3.754,-3.754,-3.754,-3.754,-3.7618,-3.776,-3.776,-3.7869,-3.7878,-3.6095,-3.5374,-3.5323,-3.5423,-3.5614,-3.5862,-1.0094,-1.0094,-1.0094,-1.0094,-1.0404,-1.0938,-1.1765,-1.3385,-1.5078,-1.6639,-1.8992,-2.0956,-2.2127,-2.3283,-2.4166,-2.4629,-2.4658,-2.4663,-2.47,-2.4226,-2.3964,-2.3994,0.0,-2.5485,-2.6,-2.633,-2.6904,-2.7703,-2.8172,-2.8585,-2.896,-2.9457,-2.9701,-2.9701,-2.9701,-2.942,-2.8923,-2.8547,-2.8134,-2.7552,-2.5759,-2.4847,-2.4358,-2.2687,-2.2048,-2.1767,-1.9619,-1.8844,-1.8656,-1.7337,0.0,0.0,0.0,0.0,0.0,0.0,0.0,0.0,0.0,0.0,0.0,0.0,0.0,0.0,0.0,0.0,0.0,0.0,0.0,0.0,0.0,0.0,0.0,0.0,-2.6115,-2.696,-2.7476,-2.879,-3.0096,-3.1128,-3.2367,-3.3287,-3.3663,-3.4001,-3.4612,-3.557,-3.5544,-3.6047,-3.7355,-3.743,-3.7611,-3.7947,-3.763,-3.7715,-3.8262,-3.7827,-3.7913,-3.8483,-3.8483,-3.8483,-3.8483,-3.8483,-3.8483,-3.8483,-3.8483,-3.8559,-3.8664,-3.8664,-3.8758,-3.877,0.0,0.0,0.0,0.0,-3.7352,-3.7456,-1.0094,-1.0094,-1.0094,-1.0094,-1.0829,-1.1697,-1.2567,-1.4118,-1.5779,-1.7385,-1.9565,-2.1274,-2.2114,-2.3497,-2.4427,-2.4572,-2.4599,-2.4639,-2.4692,-2.47,-2.4737,-2.4839,-2.5598,-2.6075,-2.6274,-2.696,-2.7721,-2.8547,-2.8547,-2.8941,-2.9701,-2.9701,-2.9701,-2.9701,-2.9701,-2.9701,-2.9645,-2.8866,-2.8547,-2.8491,-2.7665,-2.6848,-2.5963,-2.4377,-2.3776,-2.3551,-2.1879,-2.1278,-2.1166,-2.0352,0.0,0.0,0.0,0.0,0.0,0.0,0.0,0.0,0.0,0.0,0.0,0.0,0.0,0.0,0.0,0.0,0.0,0.0,0.0,0.0,0.0,0.0,0.0,0.0,-2.834,-2.9927,-3.0208,-3.0246,-3.1072,-3.3269,-3.432,-3.5184,-3.5953,-3.6667,-3.7148,-3.7223,-3.7242,-3.7587,-3.8394,-3.845,0.0,0.0,0.0,-3.9021,-3.9197,-3.8752,-3.8664,-3.891,-3.8984,-3.9039,-3.9039,-3.9132,-3.9169,-3.9169,-3.9169,-3.9183,-3.9231,-3.9231,-3.9227,-3.9223,-3.9009,-3.8921,-3.891,-3.895,-3.8931,-3.8861,-1.0094,-1.0094,-1.0094,-1.0094,-1.0829,-1.1697,-1.2567,-1.4118,-1.5779,-1.7385,-1.9082,-2.0664,-2.2058,-2.2992,-2.3803,-2.4456,-2.4564,-2.4623,-2.4698,-2.4703,-2.5008,-2.571,-2.5906,-2.6612,-2.7909,-2.8097,-2.8585,-2.9457,-2.9457,-2.9532,-2.9701,-2.9701,-2.9701,-2.9701,-2.9701,-2.9701,-2.9683,-2.9514,-2.9457,-2.9363,-2.851,-2.7684,-2.6848,-2.5879,-2.5531,-2.5305,-2.3626,-2.3025,-2.2893,-2.2098,-2.1121,-2.0277,-2.0277,-1.9131,0.0,0.0,0.0,0.0,0.0,0.0,0.0,0.0,0.0,0.0,0.0,0.0,0.0,0.0,0.0,0.0,0.0,0.0,0.0,-2.8838,-2.9927,-3.1372,-3.3362,-3.3655,-3.3832,-3.4301,-3.5702,-3.6678,-3.6847,-3.7016,-3.7373,-3.8019,-3.8075,-3.8432,-3.9308,-3.9345,-3.9439,-3.9589,-3.9296,-3.9156,-3.9197,-3.8946,-3.8848,-3.891,-3.9553,0.0,-3.99,-4.0547,-4.0843,-4.0843,-4.0843,-4.0967,-4.1146,-4.1146,-4.1246,-4.1253,-3.9732,-3.9031,-3.8954,-3.9328,-3.9283,-3.9087,-1.0094,-1.0094,-1.0094,-1.0094,-1.1175,-1.2199,-1.2625,-1.4486,-1.6263,-1.7442,-1.8978,-2.0361,-2.1479,-2.2681,-2.3554,-2.3926,-2.4377,-2.4663,-2.4709,-2.4703,-2.5083,-2.5963,-2.6387,-2.7167,-2.8369,-2.8829,-2.927,-2.9701,-2.9701,-2.9701,-2.9701,-2.9701,-2.9701,-2.9701,-2.9701,-2.9701,-2.9701,-2.9701,-2.9701,-2.9664,-2.9232,-2.8819,-2.8312,-2.7081,-2.6593,-2.6443,-2.5203,-2.476,-2.4621,-2.3787,-2.2943,-2.2255,-2.2255,-2.141,-2.0239,0.0,0.0,0.0,0.0,0.0,0.0,0.0,0.0,0.0,0.0,0.0,0.0,0.0,0.0,-2.559,-2.6408,0.0,-2.9317,-3.0171,-3.1692,-3.3175,-3.4433,-3.5672,-3.6291,-3.5908,-3.6948,-3.7699,-3.7699,-3.8106,-3.8519,-3.892,-3.8939,-3.9138,-3.957,-3.9589,-3.9589,-3.9589,-3.9741,-3.9861,-4.0005,-4.0198,-4.036,-4.0458,-4.0864,-4.105,-4.1069,-4.1478,-4.1646,-4.1646,-4.1646,-4.1722,-4.1856,-4.1856,-4.1911,-4.1916,-4.0967,-4.0536,-4.0486,-4.0701,-4.0707,-4.0563,-1.0094,-1.0094,-1.0094,-1.0094,-1.1543,-1.2702,-1.2702,-1.4717,-1.6519,-1.7294,-1.848,-1.9677,-2.0677,-2.1988,-2.2943,-2.3356,-2.42,-2.4703,0.0,-2.4703,-2.5158,-2.618,-2.6848,-2.7655,-2.8641,-2.9345,-2.9701,-2.9701,-2.9701,-2.9701,-2.9701,-2.9701,-2.9701,-2.9701,-2.9701,-2.9701,-2.9701,-2.9701,-2.9701,-2.9701,-2.9701,-2.9701,-2.9532,-2.8012,-2.7336,-2.7073,-2.6105,-2.5748,-2.5635,-2.4933,-2.4276,-2.3739,-2.3739,-2.3175,-2.2398,-2.1691,-2.0915,0.0,0.0,0.0,0.0,0.0,0.0,0.0,0.0,-2.3525,-2.4452,-2.5244,-2.6115,-2.7157,-2.8622,-2.973,-3.0678,-3.1494,-3.3438,-3.4958,-3.5259,-3.7042,-3.8112,-3.7636,-3.815,-3.8544,-3.8544,-3.9195,-3.9589,-3.9589,-3.9589,-3.9664,-3.9815,-3.9833,-3.9908,-4.0059,-4.0491,-4.0814,-4.1041,-4.1525,-4.1842,-4.2004,-4.2173,-4.2248,-4.2267,-4.2417,-4.2492,-4.2492,-4.2492,-4.2492,-4.2492,-4.2492,-4.2492,-4.2492,-4.2492,-4.2492,-4.2455,-4.2117,-4.2004,-4.1986,-1.0094,-1.0094,-1.0094,-1.0094,-1.1543,-1.2702,-1.2702,-1.4217,-1.5651,-1.6513,-1.6689,-1.7565,-1.9788,-2.0138,-2.1064,-2.3206,-2.4195,-2.4706,-2.4692,-2.47,-2.5421,-2.6998,-2.7148,-2.7937,-2.9514,-2.9645,-2.9701,-2.9701,-2.9701,-2.9701,-2.9701,-2.9701,-2.9701,-2.9701,-2.9701,-2.9701,-2.9701,-2.9701,-2.9701,-2.9701,-2.9701,-2.9701,-2.9589,-2.8622,-2.7815,-2.6998,-2.5421,-2.4858,-2.4839,-2.4718,-2.4643,-2.4576,-2.4576,-2.4013,-2.3344,-2.325,-2.2649,-2.2004,-2.191,-2.1816,-2.1797,-2.1966,-2.3168,-2.4313,0.0,-2.5646,-2.7017,-2.7815,-2.8688,-2.9551,-3.0462,-3.1926,-3.325,-3.4057,-3.5071,-3.6254,-3.7699,-3.8131,-3.8544,-3.9232,-3.9401,-3.9458,-3.9458,-3.9533,-3.9589,-3.9589,-3.9589,-3.9908,-4.0628,-4.0666,-4.0985,-4.1704,-4.179,-4.1828,-4.1873,-4.1922,-4.1978,-4.2004,-4.2787,-4.3144,-4.3182,-4.3895,-4.4219,-4.4219,-4.4219,-4.4219,-4.4219,-4.4219,-4.4219,-4.4219,-4.4219,-4.4219,-4.4031,-4.2549,-4.2004,-4.1916,-1.0867,-1.0442,-1.0094,-1.0094,-1.1543,-1.2702,-1.2702,-1.4112,-1.5518,-1.6381,-1.6458,-1.699,-1.8461,-1.9406,-2.0698,-2.265,-2.3573,-2.4041,-2.4001,-2.4515,-2.5314,-2.6443,-2.7022,-2.7823,-2.8923,-2.9439,-2.9701,-2.9701,-2.9701,-2.9701,-2.9701,-2.9701,-2.9701,-2.9701,-2.9701,-2.9701,-2.9701,-2.9701,-2.9701,-2.9664,-2.9157,-2.8941,-2.8791,-2.7505,-2.68,-2.6405,-2.571,-2.5466,0.0,-2.4876,-2.47,-2.47,-2.47,-2.4463,-2.42,-2.42,-2.3618,-2.2893,-2.2436,-2.298,-2.3694,-2.3694,-2.5281,-2.6858,-2.6858,-2.8153,-2.9448,-2.9786,-3.0527,-3.1504,-3.2818,-3.3625,-3.4526,-3.5852,-3.6742,-3.753,-3.8206,-3.8732,-3.9195,-3.9552,-3.9589,-3.9589,-3.9589,-3.9589,-3.9796,-4.0265,-4.0303,-4.0647,-4.146,-4.1498,-4.1648,-4.1986,-4.2492,-4.2769,-4.2769,-4.3224,-4.345,-4.3468,-4.382,-4.4008,-4.4008,-4.435,-4.4501,-4.4501,-4.4501,-4.4501,-4.4501,-4.4501,-4.4501,-4.4501,-4.4501,-4.4501,-4.4426,-4.3712,-4.345,-4.3431,-1.1755,-1.1254,-1.0829,-1.0829,-1.1853,-1.2702,-1.2702,-1.4117,-1.5436,-1.6063,-1.6138,-1.6451,-1.7247,-1.8727,-2.024,-2.1627,-2.2464,-2.3087,-2.3496,-2.4143,-2.4962,-2.5988,-2.6685,-2.7407,-2.8158,-2.8799,-2.9129,-2.9129,-2.9086,-2.9172,-2.9389,-2.9363,-2.9485,-2.9765,-2.9765,-2.9641,-2.9458,-2.9458,-2.9317,-2.9072,-2.8422,-2.8171,-2.7978,-2.6564,-2.6013,-2.5963,-2.5729,-2.5635,-2.5541,-2.4914,-2.47,-2.47,-2.47,-2.47,-2.47,-2.47,-2.4463,-2.4058,-2.3476,-2.4501,-2.5769,-2.6022,-2.7759,-2.9486,-2.973,-3.0893,-3.1907,-3.1907,-3.2386,-3.3156,-3.4387,-3.4789,-3.5428,-3.6866,-3.7774,-3.8375,-3.8619,-3.9195,-3.9589,-3.9589,-3.9796,-3.9927,-3.9927,-3.9927,-4.0265,-4.1079,-4.1135,-4.1492,-4.2305,-4.2361,-4.2455,-4.268,-4.3294,-4.3632,-4.3632,-4.4214,-4.4501,-4.4501,-4.4501,-4.4501,-4.4501,-4.4501,-4.4501,-4.4501,-4.4501,-4.4501,-4.4501,-4.4501,-4.4501,-4.4501,-4.4501,-4.4501,-4.4501,-4.4501,-4.4501,-4.4501,-1.2664,-1.2644,-1.2625,-1.2625,-1.2664,-1.2702,-1.2702,-1.4117,-1.5207,-1.5243,-1.5234,-1.5546,-1.6342,-1.7869,-1.9164,-2.0003,-2.0749,-2.1859,-2.3486,-2.3547,-2.432,-2.6022,-2.6131,-2.6612,-2.7598,-2.7643,-2.7662,-2.7662,-2.7523,-2.7865,-2.8626,-2.8505,-2.8964,-2.9888,-2.9888,-2.9502,-2.884,-2.884,-2.8375,-2.7662,-2.7624,-2.7542,-2.7324,-2.6446,-2.6061,-2.5888,-2.5045,-2.4737,-2.4745,-2.47,-2.47,-2.47,-2.47,-2.47,-2.47,-2.47,-2.5278,-2.5925,-2.5888,-2.7054,-2.8491,-2.9345,-3.0772,-3.2217,-3.3062,-3.3888,-3.4489,-3.4489,-3.4518,-3.4537,-3.4594,-3.5296,-3.6122,-3.696,-3.7774,-3.8601,-3.9439,-3.957,-3.9589,-3.9589,-4.029,-4.076,-4.076,-4.076,-4.1098,-4.1911,-4.1967,-4.2342,-4.32,-4.3257,-4.3613,-4.4388,-4.4444,-4.4463,-4.4463,-4.4482,-4.4501,-4.4501,-4.4501,-4.4501,-4.4501,-4.4501,-4.4501,-4.4501,-4.4501,-4.4501,-4.4501,-4.4501,-4.4501,-4.4501,-4.4501,-4.4501,-4.4501,-4.4501,-4.4501,-4.4501,-1.3561,-1.3099,-1.2692,-1.2692,-1.2692,-1.2695,-1.2704,-1.3188,-1.3537,-1.3537,-1.3534,0.0,0.0,0.0,0.0,0.0,-1.9728,-2.0684,-2.1126,-2.2741,-2.391,-2.4365,-2.5482,-2.6266,-2.6607,-2.7177,-2.7504,-2.7599,-2.7553,-2.7677,-2.7937,-2.7894,-2.8046,-2.8363,-2.8363,-2.8238,-2.8,-2.8,-2.7847,-2.7542,-2.6969,-2.6662,-2.6384,-2.5088,-2.4484,-2.4242,0.0,-2.3834,-2.47,-2.47,-2.47,-2.47,-2.47,-2.47,-2.482,-2.5391,-2.5767,-2.6218,-2.7298,-2.8791,-3.0255,-3.1091,-3.2968,-3.4695,-3.4996,-3.5672,-3.6115,-3.5559,-3.5889,-3.6096,-3.5559,-3.6141,-3.6948,-3.7774,-3.8131,-3.8601,-3.9477,-4.0059,-4.0403,-4.0403,-4.1116,-4.1817,-4.2393,-4.1942,-4.1948,-4.2806,-4.2862,-4.3219,-4.4064,-4.4102,-4.4219,-4.4482,-4.4501,-4.4501,-4.4501,-4.4501,-4.4501,-4.4501,-4.4501,-4.4501,-4.4501,-4.4501,-4.4501,-4.4501,-4.4501,-4.4501,-4.4501,-4.4501,-4.4501,-4.4501,-4.4501,-4.4501,-4.4501,-4.4501,-4.4501,-4.4501,-1.4422,-1.3978,-1.359,-1.359,-1.3361,0.0,0.0,0.0,0.0,0.0,0.0,0.0,0.0,0.0,0.0,0.0,0.0,-1.9509,-1.9978,-2.1833,-2.3006,-2.3202,-2.4588,-2.5367,-2.5416,-2.6282,-2.6758,-2.6858,-2.6793,-2.6923,-2.721,-2.716,-2.7319,-2.7675,-2.7675,-2.7527,-2.728,-2.728,-2.728,-2.7204,-2.6359,-2.5928,-2.5666,-2.4369,-2.3548,0.0,-2.2571,-2.3028,-2.39,-2.4163,-2.4276,-2.4313,-2.4613,-2.4914,-2.5271,-2.585,-2.6405,-2.7204,-2.8848,-3.0518,-3.2132,-3.3531,-3.5334,-3.6761,-3.6761,-3.693,-3.6791,-3.5672,-3.5841,-3.5965,-3.5146,-3.5916,-3.693,-3.7737,-3.8112,-3.8601,-3.9477,-4.029,-4.0797,-4.0797,-4.1792,-4.2693,-4.3238,-4.3037,-4.3131,-4.3688,-4.3726,-4.3951,-4.4463,-4.4501,-4.4501,-4.4501,-4.4501,-4.4501,-4.4501,-4.4501,-4.4501,-4.4501,-4.4501,-4.4501,-4.4501,-4.4501,-4.4501,-4.4501,-4.4501,-4.4501,-4.4501,-4.4501,-4.4501,-4.4501,-4.4501,-4.4501,-4.4501,-4.4501,-4.4501,-4.4501,-1.5204,-1.5204,-1.5204,0.0,0.0,0.0,0.0,0.0,0.0,0.0,0.0,0.0,0.0,0.0,0.0,0.0,0.0,0.0,-1.9903,-2.0785,0.0,-2.2516,-2.3443,-2.3998,-2.413,-2.4923,-2.5368,-2.5372,-2.5244,-2.5596,-2.6374,-2.6246,-2.6736,-2.7687,-2.7687,-2.7268,-2.6566,-2.6566,-2.6547,-2.6435,-2.5662,-2.528,-2.5077,-2.4154,-2.3176,-2.2268,-2.223,-2.2174,-2.2255,-2.3138,-2.3476,-2.3645,-2.4452,-2.5297,-2.6019,-2.6057,-2.7204,-2.8838,-3.0555,-3.2245,-3.4113,-3.6535,-3.7737,-3.83,-3.8244,-3.7568,-3.6509,-3.4864,-3.4526,-3.4282,-3.3475,-3.4695,-3.6085,-3.6847,-3.7681,-3.8544,-3.942,-4.029,-4.0854,-4.0854,-4.2337,-4.3351,-4.3351,-4.4064,-4.4501,-4.4501,-4.4501,-4.4501,-4.4501,-4.4501,-4.4501,-4.4501,-4.4501,-4.4501,-4.4501,-4.4501,-4.4501,-4.4501,-4.4501,-4.4501,-4.4501,-4.4501,-4.4501,-4.4501,-4.4501,-4.4501,-4.4501,-4.4501,-4.4501,-4.4501,-4.4501,-4.4501,-4.4501,-4.4501,-4.4501,-4.4501,0.0,0.0,0.0,0.0,0.0,0.0,0.0,0.0,0.0,0.0,0.0,0.0,0.0,0.0,0.0,0.0,0.0,0.0,-1.7352,-1.9327,0.0,0.0,0.0,0.0,0.0,0.0,0.0,-2.3557,-2.3535,-2.3949,-2.4794,-2.475,-2.5217,-2.6088,-2.6088,-2.5618,-2.4834,-2.4834,-2.4467,-2.3848,-2.3654,-2.3485,-2.3207,-2.183,-2.1014,-2.052,-1.9935,-1.9673,-1.9922,-2.1937,-2.3006,-2.3667,-2.4566,-2.5371,-2.6132,-2.6725,-2.8068,-2.987,-3.2132,-3.4001,-3.5709,-3.7549,-3.815,-3.815,-3.753,-3.6284,-3.495,-3.3926,-3.3719,-3.3438,-3.2593,-3.3794,-3.4996,-3.5213,-3.6472,-3.7681,-3.8525,-4.039,-4.1685,-4.1685,-4.3168,-4.4182,-4.4182,-4.4369,-4.4501,-4.4501,-4.4501,-4.4501,-4.4501,-4.4501,-4.4501,-4.4501,-4.4501,-4.4501,-4.4501,-4.4501,-4.4501,-4.4501,-4.4501,-4.4501,-4.4501,-4.4501,-4.4501,-4.4501,-4.4501,-4.4501,-4.4501,-4.4501,-4.4501,-4.4501,-4.4501,-4.4501,-4.4501,-4.4501,-4.4501,-4.4501,0.0,0.0,0.0,0.0,0.0,0.0,0.0,0.0,0.0,0.0,0.0,0.0,0.0,0.0,0.0,0.0,0.0,0.0,0.0,-1.8153,0.0,0.0,0.0,0.0,0.0,0.0,0.0,0.0,0.0,0.0,-2.3116,-2.3461,-2.3886,-2.435,-2.435,-2.4099,-2.3635,-2.3635,-2.3577,0.0,0.0,-2.2334,-2.208,-2.0444,-1.9475,-1.8986,-1.8918,-1.9325,-2.0143,-2.192,-2.2956,-2.3723,-2.4971,-2.5913,-2.6762,-2.7955,-2.9457,-3.1222,-3.3344,-3.5146,-3.6629,-3.7549,-3.7774,-3.7455,-3.6265,-3.4706,-3.3175,-3.2011,-3.1785,-3.1635,-3.1147,-3.2105,-3.3325,-3.4414,-3.5709,-3.6967,-3.815,-4.0428,-4.2004,-4.2004,-4.3468,-4.4501,-4.4501,-4.4501,-4.4501,-4.4501,-4.4501,-4.4501,-4.4501,-4.4501,-4.4501,-4.4501,-4.4501,-4.4501,-4.4501,-4.4501,-4.4501,-4.4501,-4.4501,-4.4501,-4.4501,-4.4501,-4.4501,-4.4501,-4.4501,-4.4501,-4.4501,-4.4501,-4.4501,-4.4501,-4.4501,-4.4501,-4.4501,-4.4501,-4.4501,-4.4501,0.0,0.0,0.0,0.0,0.0,0.0,0.0,0.0,0.0,-1.3672,-1.3382,-1.3614,-1.4272,-1.4349,0.0,0.0,0.0,0.0,0.0,0.0,-1.7639,0.0,0.0,0.0,0.0,0.0,-2.1185,-2.1185,-2.1878,-2.1936,0.0,0.0,-2.2458,-2.2571,-2.2571,-2.2494,-2.24,-2.24,-2.2765,-2.3229,-2.1762,-2.1185,-2.1011,0.0,0.0,-1.7676,-1.8516,-1.992,-2.1512,-2.2454,-2.3099,-2.3813,-2.551,-2.657,-2.7524,-2.9213,-3.0951,-3.2662,-3.418,-3.5931,-3.7257,-3.7141,-3.7016,-3.6509,-3.4808,-3.3062,-3.1354,-2.9833,-2.9439,-2.9363,-2.9363,-3.0114,-3.1438,-3.3588,-3.494,-3.6254,-3.7774,-4.0109,-4.176,-4.1967,-4.3393,-4.4369,-4.4482,-4.4501,-4.4501,-4.4501,-4.4501,-4.4501,-4.4501,-4.4501,-4.4501,-4.4501,-4.4501,-4.4501,-4.4501,-4.4501,-4.4501,-4.4501,-4.4501,-4.4501,-4.4501,-4.4501,-4.4501,-4.4501,-4.4501,-4.4501,-4.4501,-4.4501,-4.4501,-4.4501,-4.4501,-4.4501,-4.4501,-4.4501,-4.4501,-4.4501,0.0,0.0,0.0,0.0,0.0,0.0,0.0,0.0,0.0,0.0,-1.6923,-1.6711,0.0,0.0,0.0,0.0,0.0,0.0,0.0,0.0,0.0,0.0,0.0,0.0,0.0,-1.8393,-1.8471,-1.8471,-1.8626,-1.8974,0.0,-1.9689,-2.0131,-2.0827,-2.0827,-2.0421,-1.9767,-1.9767,-1.9438,-1.8877,-1.8587,-1.8471,-1.8377,0.0,0.0,0.0,-1.7648,-1.9347,-2.1377,-2.2309,-2.3096,-2.3979,-2.5697,-2.6696,-2.7524,-2.9213,-3.1468,-3.3582,-3.4384,-3.6427,-3.8148,-3.7307,-3.6592,-3.5672,-3.4001,-3.1804,-2.9833,-2.8829,-2.8097,-2.7636,-2.7636,-2.8875,-3.0039,-3.0471,-3.2949,-3.5165,-3.6179,-3.845,-4.0497,-4.1835,-4.29,-4.3764,-4.4444,-4.4501,-4.4501,-4.4501,-4.4501,-4.4501,-4.4501,-4.4501,-4.4501,-4.4501,-4.4501,-4.4501,-4.4501,-4.4501,-4.4501,-4.4501,-4.4501,-4.4501,-4.4501,-4.4501,-4.4501,-4.4501,-4.4501,-4.4501,-4.4501,-4.4501,-4.4501,-4.4501,-4.4501,-4.4501,-4.4501,-4.4501,-4.4501,-4.4501,0.0,0.0,0.0,0.0,0.0,0.0,0.0,-1.8316,-1.9322,-1.977,-1.9828,-1.9151,-1.741,-1.6849,-1.6426,0.0,0.0,0.0,0.0,0.0,0.0,0.0,0.0,0.0,0.0,-1.7178,-1.7178,-1.7178,0.0,-1.7794,-1.7816,-1.8239,-1.8645,-1.9048,-1.9048,-1.8816,-1.8413,-1.8413,-1.8181,-1.7755,-1.7332,-1.7178,0.0,0.0,0.0,0.0,-1.7621,-1.9623,-2.2139,-2.2528,-2.3489,-2.4811,-2.6376,-2.7074,-2.7784,-3.0237,-3.2476,-3.4356,-3.5196,-3.6912,-3.8033,-3.6375,-3.5262,-3.4057,-3.1954,-3.0208,-2.8669,-2.7411,-2.6829,-2.6574,-2.6574,-2.7232,-2.8208,-2.9485,-3.171,-3.3738,-3.5033,-3.7749,-3.989,-4.0666,-4.2262,-4.3444,-4.3839,-4.4238,-4.4501,-4.4501,-4.4501,-4.4501,-4.4501,-4.4501,-4.4501,-4.4501,-4.4501,-4.4501,-4.4501,-4.4501,-4.4501,-4.4501,-4.4501,-4.4501,-4.4501,-4.4501,-4.4501,-4.4501,-4.4501,-4.4501,-4.4501,-4.4501,-4.4501,-4.4501,-4.4501,-4.4501,-4.4501,-4.4501,-4.4501,-4.4501,0.0,0.0,0.0,0.0,0.0,0.0,0.0,-1.9438,-2.0927,-2.1611,-2.1843,-2.1104,-1.888,-1.7739,-1.6984,0.0,0.0,0.0,0.0,0.0,0.0,0.0,0.0,0.0,0.0,0.0,0.0,-1.6329,-1.6945,0.0,0.0,0.0,0.0,0.0,-1.7255,-1.7255,-1.7255,-1.7255,-1.7255,0.0,0.0,-1.6329,-1.6251,0.0,0.0,0.0,0.0,-1.9873,-2.2616,-2.2716,-2.3745,-2.5236,-2.6705,-2.7281,-2.8029,-3.1016,-3.3088,-3.461,-3.5429,-3.673,-3.7384,-3.522,-3.3819,-3.2382,-3.0263,-2.883,-2.757,-2.6293,-2.5879,-2.5758,-2.5737,-2.5869,-2.6687,-2.8828,-3.0678,-3.2424,-3.4113,-3.7073,-3.9195,-3.9552,-4.1605,-4.3088,-4.3275,-4.4026,-4.4501,-4.4501,-4.4501,-4.4501,-4.4501,-4.4501,-4.4501,-4.4501,-4.4501,-4.4501,-4.4501,-4.4501,-4.4501,-4.4501,-4.4501,-4.4501,-4.4501,-4.4501,-4.4501,-4.4501,-4.4501,-4.4501,-4.4496,-4.4551,-4.4537,-4.4515,-4.4613,-4.4595,-4.4503,-4.4495,-4.4616,-4.478,0.0,0.0,0.0,0.0,0.0,0.0,0.0,-1.9944,-2.1611,-2.1688,-2.2342,-2.242,-2.1456,-1.9866,-1.8258,0.0,0.0,0.0,0.0,0.0,0.0,0.0,0.0,0.0,0.0,0.0,0.0,-1.5422,-1.5499,0.0,0.0,0.0,0.0,0.0,0.0,-1.5538,-1.5538,-1.5538,0.0,0.0,0.0,0.0,0.0,0.0,0.0,0.0,0.0,-1.9445,-2.1763,-2.2597,-2.3351,-2.4232,-2.5869,-2.6944,-2.8062,-3.0482,-3.2509,-3.395,-3.3853,-3.518,-3.6162,-3.4424,-3.2732,-3.1241,-3.0277,-2.82,-2.6421,-2.6157,-2.5518,-2.4953,-2.4843,-2.5466,-2.6311,-2.7261,-2.9429,-3.1607,-3.3258,-3.5709,-3.7899,-3.942,-4.1098,-4.2417,-4.3219,-4.4026,-4.4501,-4.4501,-4.4501,-4.4501,-4.4501,-4.4501,-4.4501,-4.4501,-4.4501,-4.4501,-4.4501,-4.4501,-4.4501,-4.4501,-4.4501,-4.4501,-4.4501,-4.4501,-4.4501,-4.4501,-4.4501,-4.4501,-4.451,-4.4688,-4.4668,-4.4537,-4.4969,-4.489,-4.4498,-4.4494,-4.5004,-4.5636,0.0,0.0,0.0,0.0,0.0,0.0,-1.7794,-2.0427,-2.242,-2.242,-2.3155,-2.3368,-2.2517,-2.1375,-1.977,-1.7526,0.0,0.0,0.0,0.0,0.0,0.0,0.0,0.0,0.0,0.0,-1.5306,-1.5306,-1.5306,0.0,0.0,0.0,0.0,0.0,0.0,-1.5306,-1.5306,-1.5306,0.0,0.0,0.0,0.0,0.0,0.0,0.0,0.0,0.0,0.0,-2.0969,-2.1783,-2.2943,-2.4225,-2.5353,-2.632,-2.7492,-2.9726,-3.1309,-3.2558,-3.3616,-3.435,-3.4467,-3.2905,-3.1534,-3.0085,-2.8241,-2.7026,-2.6003,-2.493,-2.4467,-2.4202,-2.4063,-2.4318,-2.4975,-2.6271,-2.8124,-2.9974,-3.1663,-3.4489,-3.6848,-3.8123,-4.0471,-4.2247,-4.2883,-4.3894,-4.4501,-4.4501,-4.4758,-4.4838,-4.4694,-4.456,-4.4565,-4.4681,-4.4694,-4.477,-4.491,-4.491,-4.491,-4.491,-4.491,-4.491,-4.491,-4.491,-4.491,-4.491,-4.491,-4.491,-4.4922,-4.5007,-4.4985,-4.4934,-4.5126,-4.5091,-4.4938,-4.5006,-4.5364,-4.5738,0.0,0.0,0.0,0.0,0.0,-1.7794,-1.7794,-2.0505,-2.2555,-2.2555,-2.329,-2.348,-2.2633,-2.2036,-2.0643,-1.8026,-1.7274,0.0,0.0,0.0,0.0,0.0,0.0,0.0,0.0,0.0,-1.5673,-1.5673,-1.5923,-1.6039,0.0,0.0,-1.6039,-1.6039,0.0,0.0,0.0,0.0,0.0,0.0,0.0,0.0,0.0,0.0,0.0,0.0,0.0,0.0,0.0,0.0,0.0,-2.3585,-2.4596,-2.5374,-2.6347,-2.8611,-2.9925,-3.0922,-3.225,-3.2497,-3.2147,-3.1158,-3.0002,-2.8625,-2.6836,-2.6228,-2.5718,-2.4493,-2.4238,-2.4205,-2.4062,-2.4037,-2.4486,-2.5864,-2.7417,-2.9051,-3.0725,-3.3797,-3.6279,-3.7277,-4.02,-4.2269,-4.2658,-4.3919,-4.47,-4.47,-4.5015,-4.5107,-4.4938,-4.4777,-4.477,-4.4908,-4.4927,-4.5019,-4.5201,-4.5201,-4.5201,-4.5201,-4.5203,-4.5203,-4.5201,-4.5203,-4.5203,-4.5201,-4.5201,-4.5201,-4.5211,-4.5254,-4.5244,-4.5211,-4.5323,-4.5295,-4.5227,-4.5429,-4.563,-4.5774,0.0,0.0,0.0,0.0,0.0,0.0,-1.7794,-2.0021,-2.1707,-2.1707,-2.24,-2.2613,-2.1804,-2.1707,-2.0643,-1.8026,-1.7794,0.0,0.0,0.0,0.0,0.0,0.0,0.0,0.0,0.0,-1.66,-1.66,-1.739,-1.7774,-1.7774,-1.7774,-1.7774,-1.7736,0.0,0.0,0.0,0.0,0.0,0.0,0.0,0.0,0.0,0.0,0.0,0.0,0.0,0.0,0.0,0.0,0.0,0.0,0.0,-2.4015,-2.4534,-2.708,-2.8382,-2.9029,-2.9123,-2.9098,-2.9083,-2.9274,-2.8021,-2.6741,-2.6702,-2.6083,-2.5464,-2.5327,-2.5284,-2.5234,-2.5113,-2.509,-2.5352,-2.6168,-2.7595,-2.9174,-3.0868,-3.3879,-3.6279,-3.7277,-4.0369,-4.2476,-4.2678,-4.4197,-4.5191,-4.5191,-4.5201,-4.5201,-4.5201,-4.5201,-4.5201,-4.5201,-4.5201,-4.5201,-4.5201,-4.5201,-4.5201,-4.5201,-4.5195,-4.5195,-4.5201,-4.5195,-4.5195,-4.5201,-4.5201,-4.5201,-4.5222,-4.5409,-4.5371,-4.5243,-4.5634,-4.555,-4.5257,-4.5645,-4.58,-4.58,0.0,0.0,0.0,0.0,0.0,0.0,0.0,-1.9546,-2.1028,-2.1614,-2.24,-2.2594,-2.1785,-2.1162,-1.9999,-1.7987,-1.7794,0.0,0.0,0.0,0.0,0.0,0.0,0.0,0.0,0.0,-1.6868,-1.7429,-1.7678,-1.7794,-1.7794,-1.7794,-1.7794,-1.7794,-1.7523,-1.712,0.0,0.0,0.0,0.0,0.0,0.0,-1.5306,0.0,0.0,0.0,0.0,0.0,0.0,0.0,0.0,0.0,0.0,0.0,0.0,-2.5095,-2.6326,-2.7561,-2.8188,-2.8324,-2.8193,-2.7664,-2.7112,-2.6571,-2.601,-2.5217,-2.444,-2.3794,-2.3651,-2.3623,-2.3482,-2.3947,-2.4598,-2.5363,-2.6848,-2.8467,-3.0051,-3.3209,-3.5921,-3.7421,-4.0805,-4.316,-4.3492,-4.4792,-4.5509,-4.5222,-4.55,-4.5621,-4.5482,-4.5599,-4.5599,-4.5409,-4.5455,-4.5535,-4.5677,-4.5681,-4.5676,-4.5676,-4.5672,-4.5672,-4.5676,-4.5672,-4.5672,-4.5676,-4.5676,-4.5676,-4.5684,-4.5754,-4.574,-4.5691,-4.5822,-4.5757,-4.5636,-4.5743,-4.5808,-4.5807,0.0,0.0,0.0,0.0,0.0,0.0,0.0,-1.8562,-1.9657,-2.0194,-2.0693,-2.0828,-2.0327,-1.9771,-1.8891,-1.7476,-1.735,0.0,0.0,0.0,0.0,0.0,0.0,0.0,-1.658,-1.7216,-1.7949,-1.8777,-1.9418,-1.9728,-1.9728,-1.9728,-1.9557,-1.9267,-1.8935,-1.8316,0.0,0.0,0.0,0.0,0.0,0.0,-1.5306,0.0,0.0,0.0,0.0,0.0,0.0,0.0,0.0,0.0,0.0,0.0,0.0,0.0,-2.4679,-2.5952,-2.6826,-2.7062,-2.6923,-2.6377,-2.6242,-2.6029,-2.5201,-2.4583,-2.3944,-2.3077,-2.3155,-2.3369,-2.3272,-2.3977,-2.4826,-2.5576,-2.6803,-2.8345,-3.0273,-3.3164,-3.6121,-3.8873,-4.1627,-4.3538,-4.411,-4.5183,-4.573,-4.5491,-4.5737,-4.5841,-4.5723,-4.5835,-4.5809,-4.5665,-4.5688,-4.5766,-4.5899,-4.5899,-4.5911,-4.5892,-4.5923,-4.5923,-4.5892,-4.5923,-4.5923,-4.5911,-4.5911,-4.5911,0.0,-4.5911,-4.5911,-4.5911,-4.5911,-4.5899,-4.588,-4.5861,-4.5848,-4.5867,0.0,0.0,0.0,0.0,0.0,0.0,0.0,-1.7282,-1.784,-1.7895,-1.7895,-1.7895,-1.7895,-1.7839,-1.7474,-1.6672,0.0,0.0,0.0,0.0,0.0,0.0,0.0,0.0,-1.6755,-1.8355,-1.9648,-2.0576,-2.2146,-2.2903,-2.2903,-2.2903,-2.2497,-2.1746,-2.0888,-1.9938,0.0,0.0,0.0,0.0,-1.4428,-1.4583,0.0,0.0,0.0,0.0,0.0,0.0,0.0,0.0,0.0,0.0,0.0,0.0,0.0,0.0,0.0,0.0,0.0,-2.5414,-2.5507,-2.5507,-2.5507,-2.5298,-2.4486,-2.4234,0.0,-2.3155,-2.3635,-2.4196,-2.4196,-2.4911,-2.5758,-2.6571,-2.7379,-2.8769,-3.1257,-3.3734,-3.6886,-4.1131,-4.263,-4.3634,-4.4446,-4.5357,-4.59,-4.59,-4.5893,-4.5911,-4.5911,-4.5917,-4.5917,-4.5917,-4.5917,-4.5917,-4.5911,-4.5917,-4.5917,-4.5917,-4.5966,-4.5966,-4.5917,-4.5966,-4.5966,-4.5917,-4.5917,-4.5917,-4.5917,-4.5917,-4.5917,-4.5917,-4.5917,-4.5956,-4.5989,-4.5931,-4.5931,-4.5989,0.0,0.0,0.0,0.0,0.0,0.0,0.0,0.0,0.0,0.0,-1.7905,-1.7905,-1.7905,-1.7301,-1.6826,0.0,0.0,0.0,0.0,0.0,0.0,0.0,0.0,0.0,-1.8471,-1.9551,-2.0827,-2.23,-2.271,-2.2903,-2.2903,-2.2903,-2.2807,-2.2575,-2.1762,-2.0176,0.0,0.0,0.0,0.0,-1.5071,-1.511,0.0,0.0,0.0,0.0,-1.7197,-1.7794,0.0,0.0,0.0,0.0,0.0,0.0,0.0,0.0,-2.2555,-2.3252,-2.3461,0.0,-2.5507,-2.5507,-2.5507,-2.5449,0.0,-2.4679,-2.4138,-2.3944,-2.406,-2.4196,-2.4196,-2.4911,-2.5786,-2.6637,-2.7997,-2.9569,-3.1343,-3.4852,-3.8176,-4.0713,-4.2402,-4.346,-4.3653,-4.5028,-4.5899,-4.5899,-4.5949,-4.5986,-4.5986,-4.5989,-4.598,-4.598,-4.598,-4.5989,-4.5986,-4.5989,-4.598,-4.598,-4.5986,-4.5986,-4.598,-4.5986,-4.5986,-4.598,-4.598,-4.598,-4.598,-4.598,-4.598,-4.598,-4.598,-4.5983,-4.6005,-4.5986,-4.5949,-4.5931,0.0,0.0,0.0,0.0,0.0,0.0,0.0,0.0,0.0,0.0,0.0,-1.5615,-1.5615,-1.5515,0.0,0.0,0.0,0.0,0.0,0.0,0.0,0.0,0.0,-1.7578,-1.9648,-2.056,-2.1817,-2.3499,-2.3906,-2.4099,-2.4099,-2.4087,-2.3874,-2.3441,-2.2249,-2.0256,0.0,0.0,0.0,-1.5272,-1.4859,0.0,0.0,0.0,0.0,0.0,-1.6771,-1.7487,0.0,-1.9357,-2.0073,-2.0402,0.0,0.0,0.0,0.0,-2.1701,-2.2343,-2.2343,-2.3607,-2.4892,-2.49,-2.5205,-2.5395,-2.4996,-2.4548,-2.4099,-2.3693,-2.3925,-2.4196,-2.4196,-2.5217,-2.6343,-2.7214,-2.8769,-3.0878,-3.3688,-3.674,-3.9354,-4.1182,-4.258,-4.3555,-4.3962,-4.5175,-4.5949,-4.5949,-4.5978,-4.5994,-4.5994,-4.5991,-4.6002,-4.6002,-4.6002,-4.5991,-4.5994,-4.5991,-4.6002,-4.6002,-4.6002,-4.6002,-4.6002,-4.6002,-4.6002,-4.6002,-4.6002,-4.6002,-4.6002,-4.6002,-4.6002,-4.6002,-4.6002,-4.5991,-4.5994,-4.5994,-4.5989,-4.5953,0.0,0.0,0.0,0.0,0.0,0.0,0.0,0.0,0.0,0.0,0.0,0.0,0.0,0.0,0.0,0.0,0.0,0.0,0.0,0.0,0.0,0.0,0.0,-1.8125,-2.0556,-2.1572,-2.2907,-2.4609,-2.5345,-2.577,-2.5886,-2.5766,-2.5108,-2.3955,-2.2527,-2.0382,0.0,0.0,-1.6222,-1.5242,-1.4491,0.0,0.0,0.0,0.0,0.0,0.0,0.0,0.0,-1.8606,-1.9477,-2.0192,-2.0192,0.0,0.0,0.0,0.0,0.0,-2.1496,-2.2733,-2.4052,-2.4163,-2.4853,-2.531,-2.457,-2.4407,-2.4187,-2.3452,-2.3878,-2.4439,-2.4574,-2.5766,-2.7082,-2.824,-3.0098,-3.2755,-3.6647,-3.8572,-4.0211,-4.1898,-4.2873,-4.3746,-4.4612,-4.5501,-4.6003,-4.6003,-4.6005,-4.6002,-4.6002,-4.6002,-4.6002,-4.6002,-4.6002,-4.6002,-4.6002,-4.6002,-4.6002,-4.6002,-4.6002,-4.6002,-4.6002,-4.6002,-4.6002,-4.6002,-4.6002,-4.6002,-4.6002,-4.6002,-4.6002,-4.6002,-4.6002,-4.6002,-4.6002,-4.6002,-4.6002,-4.6002,0.0,0.0,0.0,0.0,0.0,0.0,0.0,0.0,0.0,0.0,0.0,0.0,0.0,0.0,0.0,0.0,0.0,0.0,0.0,0.0,0.0,-1.7629,-1.8343,-1.958,-2.1456,-2.3014,-2.4666,-2.6393,-2.6521,-2.6977,-2.7679,-2.6942,-2.5388,-2.316,-2.293,-2.0972,-1.7888,-1.7745,-1.6776,-1.5289,-1.5155,0.0,0.0,0.0,0.0,0.0,0.0,0.0,0.0,-1.7716,-1.8576,-1.9303,-1.9303,0.0,0.0,0.0,0.0,0.0,-2.0607,-2.1864,-2.335,-2.4034,-2.4855,-2.5462,-2.5328,-2.53,-2.5256,-2.514,-2.5217,-2.5524,-2.626,-2.6614,-2.7547,-2.9897,-3.2938,-3.5722,-3.7821,-3.8965,-4.0211,-4.1898,-4.287,-4.3735,-4.4627,-4.549,-4.5991,-4.5991,-4.5997,-4.6002,-4.6002,-4.6002,-4.6002,-4.6002,-4.6002,-4.6002,-4.6002,-4.6002,-4.6002,-4.6002,-4.6002,-4.6002,-4.6002,-4.6002,-4.6002,-4.6002,-4.6002,-4.6002,-4.6002,-4.6002,-4.6002,-4.6002,-4.6002,-4.6002,-4.6002,-4.6002,-4.6002,-4.6002,0.0,0.0,0.0,0.0,0.0,0.0,0.0,0.0,0.0,0.0,0.0,0.0,0.0,0.0,0.0,0.0,0.0,0.0,0.0,0.0,0.0,-1.7854,-1.9605,-2.1148,-2.238,-2.4078,-2.5557,-2.6799,-2.7272,-2.7706,-2.8078,-2.7217,-2.5693,-2.3688,-2.3214,-2.1369,-1.8562,-1.8104,-1.6885,-1.5303,0.0,0.0,0.0,0.0,0.0,0.0,0.0,0.0,0.0,0.0,-1.7721,-1.8523,-1.8966,0.0,0.0,0.0,0.0,0.0,-2.0978,-2.2028,-2.3209,-2.4041,-2.4872,-2.5515,-2.555,-2.5534,-2.5631,-2.6112,-2.619,-2.6461,-2.7337,-2.8241,-2.9854,-3.2919,-3.5159,-3.708,-3.8777,-3.9757,-4.0757,-4.2004,-4.2922,-4.3801,-4.4674,-4.5506,-4.6002,-4.6002,-4.6002,-4.6002,-4.6002,-4.6002,-4.6002,-4.6002,-4.6002,-4.5788,-4.5356,-4.5356,-4.5574,-4.6002,-4.6002,-4.6002,-4.6002,-4.6002,-4.6002,-4.6002,-4.6002,-4.6002,-4.6002,-4.6002,-4.6002,-4.6002,-4.6002,-4.6002,-4.6002,-4.6002,-4.6002,-4.5944,0.0,0.0,0.0,0.0,0.0,0.0,0.0,0.0,0.0,0.0,0.0,0.0,0.0,0.0,0.0,0.0,0.0,0.0,0.0,0.0,-1.707,-1.7885,-2.0424,-2.2187,-2.2972,-2.4906,-2.6306,-2.7094,-2.7997,-2.832,-2.8089,-2.7426,-2.6094,-2.4266,-2.34,-2.169,-1.9427,-1.8368,-1.7014,-1.559,0.0,0.0,0.0,0.0,0.0,0.0,0.0,0.0,0.0,0.0,0.0,0.0,0.0,0.0,0.0,-1.9937,-2.0308,-2.0682,-2.1481,-2.2338,-2.3209,-2.4088,-2.4911,-2.5586,-2.5829,-2.5845,-2.6071,-2.6941,-2.7271,-2.7678,-2.8554,-3.0417,-3.2686,-3.53,-3.6851,-3.8161,-3.9442,-4.0349,-4.1218,-4.2097,-4.2792,-4.3549,-4.4404,-4.5045,-4.5414,-4.5414,-4.5414,-4.5414,-4.5414,-4.5414,-4.5414,-4.5414,-4.5414,-4.5122,-4.4501,-4.4501,-4.4792,-4.5414,-4.5414,-4.5511,-4.573,-4.573,-4.5827,-4.6002,-4.6002,-4.6002,-4.6002,-4.6002,-4.6002,-4.6002,-4.6002,-4.6002,-4.5982,-4.5788,-4.573,-4.5594,0.0,0.0,0.0,0.0,0.0,0.0,0.0,0.0,0.0,0.0,0.0,0.0,0.0,0.0,0.0,0.0,0.0,0.0,0.0,0.0,-1.7081,-1.7942,-2.0499,-2.2246,-2.2975,-2.5499,-2.7201,-2.8006,-2.8941,-2.8943,-2.81,-2.8042,-2.6683,-2.4255,-2.3384,-2.2025,-2.0291,-1.8617,-1.7357,-1.6435,-1.5633,0.0,0.0,0.0,0.0,0.0,0.0,0.0,0.0,0.0,0.0,0.0,0.0,0.0,-1.9211,-1.9269,-1.9869,-2.0682,-2.1481,-2.2338,-2.3212,-2.408,-2.4954,-2.5789,-2.6534,-2.6757,-2.7035,-2.7848,-2.8644,-2.9483,-3.036,-3.3192,-3.5514,-3.5754,-3.7883,-3.9563,-3.9679,-4.0383,-4.1218,-4.2097,-4.2252,-4.2636,-4.351,-4.3641,-4.3685,-4.3685,-4.3685,-4.3685,-4.3685,-4.3685,-4.3685,-4.3685,-4.3685,-4.3641,-4.3583,-4.3583,-4.3622,-4.3685,-4.3685,-4.4093,-4.4889,-4.4889,-4.5297,-4.6002,-4.6002,-4.6002,-4.6002,-4.6002,-4.6002,-4.6002,-4.6002,-4.6002,-4.5905,-4.5161,-4.4889,-4.4753,0.0,0.0,0.0,0.0,0.0,0.0,0.0,0.0,0.0,0.0,0.0,0.0,0.0,0.0,0.0,0.0,0.0,0.0,0.0,-1.5967,-1.7666,-1.7997,-2.0983,-2.2786,-2.3066,-2.5623,-2.7351,-2.8163,-2.9567,-2.951,-2.81,-2.81,-2.7035,-2.5054,-2.362,-2.2357,-2.1131,-1.942,-1.789,-1.6573,-1.6233,-1.5784,0.0,0.0,0.0,0.0,0.0,0.0,0.0,0.0,-1.5511,-1.5883,-1.6429,-1.7422,-1.8492,-1.9038,-2.0162,-2.1422,-2.228,-2.3134,-2.4142,-2.5562,-2.6164,-2.6495,-2.6783,-2.7696,-2.869,-2.9544,-3.0418,-3.16,-3.3526,-3.4921,-3.6339,-3.7966,-3.9058,-3.9873,-4.0383,-4.0713,-4.1024,-4.1354,-4.1864,-4.233,-4.2656,-4.318,-4.3505,-4.3505,-4.3505,-4.3505,-4.3505,-4.3505,-4.3505,-4.3505,-4.3505,-4.3238,-4.2694,-4.2694,-4.2422,-4.1898,-4.2986,-4.3666,-4.3996,-4.3996,-4.4171,-4.4462,-4.4797,-4.5346,-4.5915,-4.4875,-4.5069,-4.5929,-4.522,-4.4734,-4.4404,-4.4093,-4.3996,-4.3879,0.0,0.0,0.0,0.0,0.0,0.0,0.0,0.0,0.0,0.0,0.0,0.0,0.0,0.0,0.0,0.0,0.0,0.0,-1.2904,-1.6105,-1.7997,-1.7997,-2.1277,-2.3091,-2.3091,-2.5387,-2.6992,-2.7822,-2.9228,-2.9157,-2.7715,-2.7715,-2.6958,-2.5523,-2.3772,-2.2671,-2.1971,-2.0031,-1.8341,-1.7,-1.6714,-1.6087,0.0,0.0,0.0,0.0,0.0,0.0,0.0,0.0,-1.5306,-1.5405,-1.6009,-1.6979,-1.8024,-1.8608,-2.0162,-2.1889,-2.2765,-2.3637,-2.4724,-2.6456,-2.71,-2.7427,-2.7974,-2.8981,-3.0146,-3.1273,-3.2419,-3.3891,-3.6207,-3.6843,-3.762,-3.9407,-3.9912,-4.0266,-4.083,-4.0907,-4.0907,-4.0907,-4.1432,-4.1786,-4.1786,-4.2325,-4.2675,-4.2675,-4.2675,-4.2675,-4.2675,-4.2675,-4.2675,-4.2675,-4.2675,-4.2384,-4.1806,-4.1786,-4.149,-4.0907,-4.2112,-4.283,-4.3083,-4.3083,-4.3238,-4.3525,-4.4079,-4.4647,-4.5118,-4.3976,-4.4054,-4.4875,-4.4287,-4.3816,-4.3466,-4.3199,-4.3083,-4.2966,0.0,0.0,0.0,0.0,0.0,0.0,0.0,0.0,0.0,0.0,0.0,0.0,0.0,0.0,0.0,0.0,0.0,0.0,-1.2904,-1.6085,-1.7997,-1.7997,-2.1257,-2.3072,-2.3091,-2.4809,-2.6127,-2.6992,-2.7815,-2.7753,-2.6906,-2.6906,-2.6439,-2.5526,-2.3783,-2.3003,-2.2829,-2.0282,-1.8707,-1.7829,-1.696,-1.6087,-1.5306,0.0,0.0,0.0,0.0,0.0,0.0,0.0,-1.5306,-1.5306,-1.5306,-1.6491,-1.7907,-1.7907,-1.9713,-2.1908,-2.2765,-2.3656,-2.4744,-2.6478,-2.7524,-2.8589,-3.0321,-3.0713,-3.1218,-3.2982,-3.4653,-3.6339,-3.8095,-3.912,-3.9699,-3.9699,-4.0383,-4.0907,-4.0907,-4.0907,-4.0907,-4.0907,-4.0907,-4.0907,-4.0907,-4.0907,-4.0907,-4.0907,-4.0907,-4.0907,-4.0907,-4.0907,-4.0907,-4.0907,-4.0907,-4.0907,-4.0907,-4.0907,-4.0907,-4.0907,-4.0907,-4.1354,-4.2194,-4.2194,-4.2656,-4.3505,-4.404,-4.3981,-4.3486,-4.3486,-4.3117,-4.2646,-4.3253,-4.3486,-4.3374,-4.25,-4.2194,-4.2058,0.0,0.0,0.0,0.0,0.0,0.0,0.0,0.0,0.0,0.0,0.0,0.0,0.0,0.0,0.0,0.0,0.0,0.0,-1.2904,-1.5538,-1.7353,-1.7978,-2.0145,-2.1882,-2.3072,-2.4809,-2.6127,-2.6992,-2.7808,-2.7756,-2.6908,-2.6901,-2.6437,-2.5522,-2.3778,-2.3003,-2.2868,-2.0947,-1.9251,-1.7889,-1.7627,-1.6636,-1.5306,0.0,0.0,0.0,0.0,0.0,0.0,0.0,0.0,0.0,-1.5306,-1.6491,-1.7907,-1.7907,-2.0143,-2.2668,-2.2923,-2.4533,-2.6398,-2.7463,-2.8845,-3.0399,-3.2128,-3.2536,-3.3177,-3.5507,-3.6362,-3.7256,-3.8984,-3.9528,-3.9893,-4.0461,-4.0733,-4.0907,-4.0907,-4.0907,-4.0907,-4.0907,-4.0907,-4.0907,-4.0907,-4.0907,-4.0907,-4.0907,-4.0907,-4.0907,-4.0907,-4.0907,-4.0907,-4.0907,-4.0907,-4.0907,-4.0907,-4.0907,-4.0907,-4.0907,-4.0907,-4.1043,-4.1296,-4.1296,-4.1432,-4.1684,-4.184,-4.182,-4.1665,-4.168,-4.1563,-4.1485,-4.2287,-4.2209,-4.1646,-4.1374,-4.1296,-4.1257,0.0,0.0,0.0,0.0,0.0,0.0,0.0,0.0,0.0,0.0,-1.0305,-1.0305,0.0,0.0,0.0,0.0,0.0,0.0,-1.2885,-1.4952,-1.6572,-1.7451,-1.9481,-2.1374,-2.3052,-2.4126,-2.4913,-2.5448,-2.6621,-2.6911,-2.6388,-2.6373,-2.5935,-2.5057,-2.3662,-2.2846,-2.2437,-2.1085,-1.9504,-1.7935,-1.7947,-1.6901,-1.5347,0.0,0.0,0.0,0.0,0.0,0.0,0.0,0.0,0.0,-1.4821,-1.6237,-1.7907,-1.7907,-2.0318,-2.3001,-2.3001,-2.4905,-2.71,-2.7909,-2.9408,-3.1238,-3.3313,-3.4031,-3.4925,-3.7159,-3.7625,-3.813,-3.9858,-4.0189,-4.0344,-4.083,-4.0907,-4.0907,-4.0907,-4.0907,-4.0907,-4.0907,-4.0907,-4.0907,-4.0907,-4.0907,-4.0907,-4.0907,-4.0907,-4.0907,-4.0907,-4.0907,-4.0907,-4.0907,-4.0907,-4.0907,-4.0907,-4.0907,-4.0907,-4.0907,-4.0907,-4.0907,-4.0907,-4.0907,-4.0907,-4.0907,-4.0907,-4.0907,-4.0907,-4.0903,-4.0903,-4.0946,-4.1471,-4.1354,-4.0907,-4.0907,-4.0907,-4.0907,0.0,0.0,0.0,0.0,0.0,0.0,0.0,0.0,0.0,-1.0305,-1.0305,-1.0305,0.0,0.0,0.0,-1.0305,-1.1106,-1.1946,-1.2728,-1.4348,-1.5675,-1.6532,-1.909,-2.1198,-2.272,-2.2916,-2.2994,-2.2994,-2.4724,-2.5546,-2.5497,-2.5496,-2.5104,-2.4362,-2.3416,-2.2539,-2.1738,-2.0879,-1.9531,-1.8008,-1.8004,-1.6965,-1.5402,-1.5402,0.0,0.0,0.0,0.0,0.0,0.0,0.0,0.0,-1.4062,-1.5732,-1.7693,-1.7849,-2.0279,-2.2904,-2.2981,-2.4963,-2.7174,-2.7929,-2.9525,-3.1587,-3.4055,-3.5294,-3.6397,-3.8056,-3.8464,-3.9008,-4.0616,-4.0907,-4.0907,-4.0907,-4.0907,-4.0907,-4.0907,-4.0907,-4.0907,-4.0907,-4.0907,-4.0907,-4.0907,-4.0907,-4.0907,-4.0907,-4.0907,-4.0907,-4.0907,-4.0907,-4.0907,-4.0907,-4.0907,-4.0907,-4.0907,-4.0907,-4.0907,-4.0912,-4.0912,-4.0917,-4.0902,-4.0893,-4.0907,-4.0907,-4.0907,-4.0907,-4.0907,-4.0907,-4.0907,-4.0907,-4.0907,-4.0907,-4.0907,-4.0907,-4.0907,-4.0907,0.0,0.0,0.0,0.0,0.0,0.0,0.0,0.0,-1.0305,-1.0305,-1.0305,-1.0305,-1.0305,-1.0305,0.0,-1.0305,-1.1106,-1.1673,-1.1868,-1.3449,-1.4777,-1.5636,-1.8172,-1.9753,-2.0104,-2.1451,-2.2154,-2.2154,-2.3856,-2.4679,-2.4663,-2.4668,-2.457,-2.4335,-2.2773,-2.1972,-2.1758,-2.0934,-1.9586,-1.8008,-1.8008,-1.6952,-1.5402,-1.5402,-1.4854,0.0,0.0,0.0,0.0,0.0,0.0,0.0,-1.3887,-1.4916,-1.6122,-1.7499,-1.983,-2.2124,-2.2804,-2.5368,-2.789,-2.8065,-3.0434,-3.3235,-3.51,-3.6187,-3.712,-3.8173,-3.8946,-3.9723,-4.0713,-4.0907,-4.0907,-4.0907,-4.0907,-4.0907,-4.0907,-4.0907,-4.0907,-4.0907,-4.0907,-4.0907,-4.0907,-4.0907,-4.0907,-4.0907,-4.0907,-4.0907,-4.0907,-4.0907,-4.0907,-4.0907,-4.0907,-4.0907,-4.0907,-4.0907,-4.0926,-4.098,-4.098,-4.098,-4.0986,-4.092,-4.0907,-4.0907,-4.0907,-4.0907,-4.0907,-4.0907,-4.0907,-4.0907,-4.0907,-4.0907,-4.0907,-4.0907,-4.0907,-4.0907,0.0,0.0,0.0,0.0,0.0,0.0,0.0,0.0,-1.0246,-1.0253,-1.0254,-1.0257,-1.0304,-1.0305,0.0,0.0,-1.0715,-1.1145,-1.1575,-1.2414,-1.3645,-1.5324,-1.7118,-1.825,-1.866,-1.9578,-2.0241,-2.0651,-2.1958,-2.2993,-2.3774,-2.3783,-2.3571,-2.3161,-2.2243,-2.1619,-2.1209,-2.0773,-1.9582,-1.8005,-1.8005,-1.6952,-1.5391,-1.5391,-1.4863,-1.4101,-1.41,0.0,0.0,0.0,0.0,0.0,0.0,0.0,-1.5689,-1.7406,-1.9422,-2.1403,-2.2668,-2.4902,-2.7404,-2.9444,-3.1658,-3.374,-3.5426,-3.6479,-3.7353,-3.8212,-3.9082,-3.9956,-4.0752,-4.0907,-4.0907,-4.0907,-4.0907,-4.0907,-4.0907,-4.0907,-4.0907,-4.0907,-4.0907,-4.0907,-4.0907,-4.0907,-4.0907,-4.0907,-4.0907,-4.0907,-4.0907,-4.0907,-4.0907,-4.0907,-4.0907,-4.0907,-4.0907,-4.093,-4.0971,-4.0996,-4.0995,-4.0993,-4.101,-4.0933,-4.0911,-4.0907,-4.0907,-4.0907,-4.0907,-4.0907,-4.0907,-4.0907,-4.0907,-4.0907,-4.0907,-4.0907,-4.0907,-4.0907,0.0,0.0,0.0,0.0,0.0,0.0,0.0,0.0,0.0,-1.0208,-1.021,-1.0219,-1.0277,-1.0279,-1.0279,0.0,0.0,0.0,-1.1318,-1.1515,-1.2609,-1.4855,-1.5654,-1.6377,-1.71,-1.7393,-1.79,-1.8621,-1.9793,-2.1081,-2.2447,-2.276,-2.2544,-2.19,-2.1744,-2.1276,-2.0594,-2.0594,-1.9676,-1.8212,-1.8212,-1.7275,-1.5851,-1.5851,-1.5206,-1.4328,-1.4314,-1.3242,-1.1777,-1.158,0.0,0.0,0.0,0.0,-1.5275,-1.6967,-1.8803,-2.0646,-2.2318,-2.4377,-2.6958,-3.0803,-3.2536,-3.3701,-3.5231,-3.6362,-3.7294,-3.8037,-3.8984,-3.9956,-4.0752,-4.0907,-4.0907,-4.0907,-4.0907,-4.0907,-4.0907,-4.0907,-4.0907,-4.0907,-4.0907,-4.0907,-4.0907,-4.0907,-4.0907,-4.0907,-4.0907,-4.0907,-4.0907,-4.0907,-4.0907,-4.0907,-4.0917,-4.0921,-4.0921,-4.0964,-4.1007,-4.1015,-4.1013,-4.1025,-4.1019,-4.0951,-4.0933,-4.0911,-4.093,-4.093,-4.093,-4.0921,-4.0921,-4.0921,-4.0893,-4.0907,-4.0907,-4.0907,-4.0907,-4.0907,0.0,0.0,0.0,0.0,0.0,0.0,0.0,0.0,0.0,0.0,-1.0207,-1.021,-1.0215,-1.0215,-1.0215,-1.0215,-1.0211,-1.0259,-1.0377,0.0,0.0,-1.3096,-1.3313,-1.345,-1.3587,-1.4992,-1.5792,-1.5929,-1.8309,-1.9597,-1.9831,-2.1353,-2.1997,-2.1861,-2.11,-2.0711,-2.0594,-2.0594,-2.0027,-1.9128,-1.9128,-1.8524,-1.7647,-1.7647,-1.6632,-1.5226,-1.5227,-1.4118,-1.2539,-1.1816,-1.1542,0.0,0.0,0.0,-1.3491,-1.5217,-1.7458,-1.9735,-2.1425,-2.4763,-2.8278,-3.0341,-3.2108,-3.3546,-3.4459,-3.5935,-3.7139,-3.7256,-3.8576,-3.9956,-4.0752,-4.0907,-4.0907,-4.0907,-4.0907,-4.0907,-4.0907,-4.0907,-4.0907,-4.0907,-4.0907,-4.0907,-4.0907,-4.0907,-4.0907,-4.0907,-4.0907,-4.0907,-4.0907,-4.0907,-4.0907,-4.0907,-4.0967,-4.0988,-4.0988,-4.1006,-4.1039,-4.1083,-4.1092,-4.1092,-4.1089,-4.1083,-4.1048,-4.0997,-4.1055,-4.1075,-4.1075,-4.1,-4.0988,-4.0984,-4.0926,-4.0907,-4.0907,-4.0907,-4.0907,-4.0907,0.0,0.0,0.0,0.0,0.0,0.0,0.0,0.0,0.0,0.0,0.0,-1.0169,-1.0194,-1.0197,-1.0198,-1.0202,-1.0193,-1.0203,-1.0194,-1.1046,-1.172,-1.2118,-1.2589,-1.2864,-1.2904,-1.4055,-1.4913,-1.5402,-1.704,-1.8094,-1.8602,-1.985,-2.0709,-2.1159,-2.0769,-2.0594,-2.0594,-2.0594,-2.0105,-1.9304,-1.9304,-1.8778,-1.7997,-1.7997,-1.753,-1.6866,-1.6866,-1.5735,-1.4195,-1.3845,-1.3084,-1.2285,-1.2244,0.0,0.0,0.0,-1.6545,-1.8372,-2.1042,-2.4177,-2.7234,-2.9464,-3.0939,-3.2315,-3.4144,-3.513,-3.5915,-3.6906,-3.7702,-3.8654,-3.9975,-4.0597,-4.0907,-4.0907,-4.0907,-4.0907,-4.0907,-4.0907,-4.0907,-4.0907,-4.0907,-4.0907,-4.0907,-4.0907,-4.0907,-4.0907,-4.0907,-4.0907,-4.0907,-4.0935,-4.0967,-4.0967,-4.0988,-4.1006,-4.1006,-4.1042,-4.1072,-4.1095,-4.1104,-4.1104,-4.1095,-4.1095,-4.1076,-4.1068,-4.1088,-4.1088,-4.1049,-4.1013,-4.1006,-4.1006,-4.0968,-4.0968,-4.0971,-4.0953,-4.0968,-4.0952,0.0,0.0,0.0,0.0,0.0,0.0,0.0,0.0,0.0,0.0,0.0,-1.0117,-1.0178,0.0,0.0,0.0,-1.016,-1.0176,-1.0201,-1.0818,-1.1181,-1.1232,-1.1844,-1.2199,-1.224,-1.3039,-1.3898,-1.4758,-1.5831,-1.6826,-1.7685,-1.8563,-1.9324,-1.9969,-2.0398,-2.0594,-2.0594,-2.0594,-2.0222,-1.9636,-1.9636,-1.9246,-1.8681,-1.8915,-1.8856,-1.8681,-1.8915,-1.7861,-1.6319,-1.5889,-1.4758,-1.3452,-1.2988,-1.3262,0.0,0.0,0.0,-1.7404,-2.0606,-2.3338,-2.5816,-2.7967,-2.947,-3.0962,-3.3112,-3.3913,-3.4614,-3.6133,-3.6789,-3.7508,-3.881,-3.9897,-4.0655,-4.0869,-4.0907,-4.0907,-4.0907,-4.0907,-4.0907,-4.0907,-4.0907,-4.0907,-4.0907,-4.0907,-4.0907,-4.0907,-4.0907,-4.0912,-4.0926,-4.0975,-4.1,-4.1011,-4.1026,-4.1022,-4.1022,-4.1072,-4.1094,-4.1109,-4.1109,-4.1109,-4.1109,-4.1109,-4.1094,-4.1095,-4.1095,-4.1075,-4.1037,-4.1028,-4.1022,-4.1022,-4.1013,-4.0997,-4.0995,-4.1,-4.1009,-4.1,0.0,0.0,0.0,0.0,0.0,0.0,0.0,0.0,0.0,0.0,0.0,-1.0101,-1.0105,-1.0105,-1.0105,-1.0105,-1.0101,-1.0138,-1.0199,-1.0237,-1.0271,-1.0267,-1.0373,0.0,-1.0442,-1.1282,-1.2161,-1.3021,-1.466,-1.5909,-1.6786,-1.7666,-1.8095,-1.8212,-1.9852,-2.0594,-2.0594,-2.0594,-2.0574,-2.0535,-2.0535,-2.0516,-2.0555,-2.1373,-2.1178,-2.0574,-2.1392,-2.0573,-1.8835,-1.7196,-1.6026,-1.4992,-1.3393,-1.289,-1.2871,0.0,0.0,0.0,-1.9863,-2.2477,-2.4682,-2.5582,-2.7707,-2.9804,-3.0704,-3.2188,-3.3592,-3.4455,-3.5954,-3.7139,-3.7217,-3.8615,-4.0014,-4.0771,-4.0907,-4.0907,-4.0907,-4.0907,-4.0907,-4.0907,-4.0907,-4.0907,-4.0907,-4.0907,-4.0907,-4.0907,-4.0907,-4.0926,-4.0988,-4.0992,-4.0991,-4.1007,-4.1059,-4.1091,-4.1091,-4.1097,-4.1108,-4.1109,-4.1109,-4.1109,-4.1109,-4.1109,-4.1108,-4.1106,-4.1106,-4.1106,-4.1085,-4.1083,-4.1091,-4.1089,-4.1022,-4.099,-4.101,-4.099,-4.1009,-4.1,0.0,0.0,0.0,0.0,0.0,0.0,0.0,0.0,0.0,0.0,0.0,0.0,0.0,-1.0096,-1.0096,-1.0096,-1.011,-1.0116,-1.0136,-1.0136,-1.0169,-1.021,-1.0223,-1.0255,-1.0305,-1.1145,-1.1751,-1.2064,-1.3742,-1.4737,-1.5068,-1.6494,-1.7177,-1.7216,-1.8407,-1.9247,-1.9773,-1.9773,-2.0085,-2.0652,-2.1217,-2.1431,-2.1529,-2.235,-2.2486,-2.2252,-2.2564,-2.1939,-2.0787,-1.9597,-1.8251,-1.6768,-1.505,-1.4487,-1.4352,-1.3805,-1.4686,-1.6191,-1.7655,-1.994,-2.2362,-2.4333,-2.5957,-2.771,-3.0205,-3.1243,-3.2242,-3.4163,-3.5062,-3.5825,-3.6907,-3.8071,-3.8965,-3.9256,-3.9761,-4.013,-4.013,-4.0577,-4.0907,-4.0907,-4.0907,-4.0907,-4.0907,-4.0935,-4.0952,-4.0952,-4.0957,-4.0979,-4.099,-4.1033,-4.1067,-4.1059,-4.1085,-4.1097,-4.1097,-4.1106,-4.1109,-4.1109,-4.1109,-4.1109,-4.1109,-4.1109,-4.1109,-4.1109,-4.1109,-4.1109,-4.1108,-4.1101,-4.1097,-4.1097,-4.107,-4.1057,-4.1061,-4.1061,-4.1052,-4.1067,0.0,0.0,0.0,0.0,0.0,0.0,0.0,0.0,0.0,-1.0496,0.0,0.0,0.0,0.0,-1.0818,-1.0534,-1.0276,-1.0127,-1.0094,-1.0124,-1.0144,-1.0207,-1.022,-1.0251,-1.0302,-1.087,-1.1301,-1.1594,-1.2726,-1.341,-1.3723,-1.5167,-1.583,-1.5867,-1.6746,-1.7937,-1.9304,-1.9304,-1.9967,-2.1081,-2.1666,-2.2056,-2.2388,-2.3227,-2.3716,-2.397,-2.397,-2.3638,-2.2993,-2.1823,-2.03,-1.862,-1.7175,-1.6101,-1.5163,-1.4009,-1.428,-1.5157,-1.6035,-1.8142,-2.0581,-2.259,-2.4186,-2.5935,-2.8496,-2.9528,-3.0566,-3.2851,-3.355,-3.4158,-3.5574,-3.6529,-3.7401,-3.8255,-3.8887,-3.9256,-3.9256,-3.9723,-4.0053,-4.0053,-4.0066,-4.0056,-4.0056,-4.0369,-4.0567,-4.0567,-4.0822,-4.1016,-4.1025,-4.1083,-4.1098,-4.1107,-4.1103,-4.1109,-4.1109,-4.1109,-4.1109,-4.1109,-4.1109,-4.1109,-4.1109,-4.1109,-4.1109,-4.1109,-4.1109,-4.1109,-4.1109,-4.1109,-4.1109,-4.1109,-4.1109,-4.1101,-4.1109,-4.1104,-4.1095,-4.1098,0.0,0.0,0.0,0.0,0.0,0.0,0.0,0.0,-1.1348,-1.1348,0.0,0.0,0.0,0.0,0.0,-1.1386,-1.0649,-1.0198,-1.0115,-1.0169,-1.02,-1.0194,-1.0267,-1.0298,-1.0295,-1.0302,-1.0714,-1.1551,-1.1593,-1.2024,-1.2884,-1.3683,-1.4052,-1.4108,-1.4965,-1.6802,-1.9225,-1.9245,-2.0279,-2.1899,-2.1938,-2.2427,-2.3267,-2.4143,-2.5023,-2.5804,-2.5784,-2.5784,-2.553,-2.3775,-2.2073,-2.0547,-1.9608,-1.7516,-1.5072,-1.3378,-1.3456,-1.4274,0.0,0.0,0.0,-2.0248,-2.2392,-2.4527,-2.5487,-2.6953,-2.8632,-3.039,-3.1379,-3.22,-3.3099,-3.3947,-3.5337,-3.784,-3.8313,-3.8352,-3.8352,-3.8376,-3.8395,-3.8395,-3.8408,-3.8392,-3.8392,-3.9166,-3.9672,-3.9691,-4.049,-4.0992,-4.1096,-4.1096,-4.1107,-4.1108,-4.1109,-4.1109,-4.1109,-4.1109,-4.1109,-4.1109,-4.1109,-4.1109,-4.1109,-4.1109,-4.1109,-4.1109,-4.1109,-4.1109,-4.1109,-4.1109,-4.1109,-4.1109,-4.1109,-4.1109,-4.1109,-4.1109,-4.1095,-4.1098,0.0,0.0,0.0,0.0,0.0,-1.0968,-1.0968,-1.1692,-1.2243,0.0,0.0,0.0,-1.2603,-1.2603,-1.2243,-1.1386,-1.1106,-1.0737,-1.0133,-1.0125,-1.0146,-1.0197,-1.0225,-1.0245,-1.0299,-1.0301,-1.0419,-1.0652,-1.1296,-1.1725,-1.198,-1.2781,-1.3151,-1.3209,-1.4066,-1.5568,-1.746,-1.8086,-1.9704,-2.1888,-2.2518,-2.3668,-2.5087,-2.5952,-2.7178,-2.8364,-2.772,-2.7915,-2.8091,-2.577,-2.4251,-2.2868,-2.0155,-1.7516,-1.5306,-1.4819,-1.4408,-1.4152,-1.4384,0.0,0.0,0.0,0.0,0.0,-2.5074,-2.6054,-2.7042,-2.9374,-3.0038,-3.0643,-3.209,-3.2603,-3.321,-3.4505,-3.627,-3.7455,-3.7455,-3.8003,-3.8397,-3.8397,-3.8401,-3.8404,-3.8404,-3.8654,-3.9091,-3.9717,-4.0007,-4.0422,-4.1074,-4.1108,-4.11,-4.1109,-4.1109,-4.1109,-4.1109,-4.1109,-4.1109,-4.1109,-4.1109,-4.1109,-4.1109,-4.1109,-4.1109,-4.1109,-4.1109,-4.1109,-4.1109,-4.1109,-4.1109,-4.1109,-4.1109,-4.1109,-4.1109,-4.1109,-4.1106,-4.1101,0.0,0.0,-1.0211,-1.0531,-1.0988,-1.1424,-1.1787,-1.2873,-1.3637,0.0,0.0,0.0,-1.4691,-1.4055,-1.3449,-1.2937,-1.2262,-1.1532,-1.0694,-1.0635,-1.0519,-1.0203,-1.0209,-1.0229,-1.0265,-1.0294,-1.0298,-1.0298,-1.0806,-1.106,-1.108,-1.1919,-1.2309,-1.2346,-1.3554,-1.5072,-1.6766,-1.7624,-1.9676,-2.2394,-2.2903,-2.4366,-2.6295,-2.6805,-2.8265,-2.9936,-2.906,-2.9296,-2.9707,-2.748,-2.5705,-2.3854,-2.077,-1.8756,-1.7251,-1.5828,-1.5299,-1.5024,-1.4301,-1.5371,-1.693,-1.7905,0.0,0.0,-2.3065,-2.4082,-2.5246,-2.7453,-2.7912,-2.8436,-3.0137,-3.0762,-3.1172,-3.1637,-3.327,-3.4842,-3.5903,-3.6486,-3.6944,-3.7316,-3.7358,-3.7359,-3.7359,-3.7715,-3.8164,-3.8671,-3.9043,-3.9648,-4.0503,-4.0565,-4.0722,-4.1091,-4.1105,-4.1101,-4.1101,-4.1094,-4.1109,-4.1109,-4.1098,-4.1098,-4.1109,-4.1105,-4.1108,-4.1101,-4.1108,-4.109,-4.109,-4.109,-4.1104,-4.109,-4.1099,-4.1097,-4.1091,-4.1099,-4.1097,-4.1109,0.0,0.0,-1.0343,-1.116,-1.1386,-1.1768,-1.274,-1.4214,-1.5287,0.0,-1.6758,-1.7737,-1.7737,-1.6409,-1.5478,-1.5386,-1.3907,-1.2591,-1.1712,-1.1502,-1.1086,-1.0362,-1.0255,-1.0192,-1.0192,-1.026,-1.0292,-1.0292,-1.0297,-1.0299,-1.0319,-1.1098,-1.1467,-1.1521,-1.3216,-1.4927,-1.6617,-1.7688,-2.0061,-2.3101,-2.3095,-2.4715,-2.7137,-2.7249,-2.8863,-3.0985,-3.0205,-3.0485,-3.0939,-2.912,-2.6733,-2.4131,-2.1807,-2.0812,-1.9894,-1.6853,-1.6307,-1.6364,-1.4806,-1.5449,-1.6578,-1.6675,-1.8393,0.0,-2.0314,-2.1621,-2.328,-2.4927,-2.5336,-2.5942,-2.768,-2.8602,-2.9138,-2.9334,-3.0014,-3.1403,-3.3943,-3.4313,-3.4647,-3.5526,-3.5625,-3.5624,-3.5624,-3.6401,-3.6944,-3.7042,-3.7941,-3.8842,-3.9605,-3.974,-4.017,-4.0932,-4.1055,-4.1093,-4.1093,-4.1104,-4.1097,-4.1097,-4.1109,-4.1109,-4.1098,-4.1093,-4.1092,-4.1093,-4.1092,-4.1107,-4.1107,-4.1107,-4.1094,-4.1098,-4.1091,-4.1108,-4.1099,-4.1091,-4.1108,-4.1097,-1.0096,-1.0096,-1.0343,-1.116,-1.188,-1.2854,-1.4386,-1.5494,-1.6372,-1.703,-1.8001,-1.865,-1.865,-1.8353,-1.7875,-1.7164,-1.5591,-1.4259,-1.3391,-1.213,-1.1329,-1.1175,-1.0549,-1.0205,-1.0205,-1.0212,-1.0224,-1.0224,-1.0264,-1.0291,-1.0291,-1.0467,-1.0544,-1.0621,-1.2316,-1.4028,-1.58,-1.8024,-2.0564,-2.3107,-2.3104,-2.5049,-2.8045,-2.8755,-3.0624,-3.2876,-3.2701,-3.3151,-3.3485,-3.1094,-2.8127,-2.5352,-2.4851,-2.2764,-2.0362,-1.9699,-1.8178,-1.6636,-1.6286,-1.5935,-1.5819,-1.652,-1.7066,0.0,-1.9157,-2.0268,-2.1303,-2.2344,-2.3119,-2.4133,-2.5882,-2.6337,-2.6883,-2.8228,-2.8597,-2.9603,-3.2144,-3.2558,-3.2908,-3.3784,-3.3897,-3.3895,-3.3895,-3.4632,-3.5407,-3.6109,-3.761,-3.8573,-3.8745,-3.9418,-3.9884,-4.0053,-4.0739,-4.1091,-4.1091,-4.1092,-4.1093,-4.1092,-4.1092,-4.1092,-4.1092,-4.1109,-4.1108,-4.1091,-4.1108,-4.1107,-4.1107,-4.1107,-4.111,-4.1092,-4.1091,-4.1092,-4.1092,-4.1091,-4.1092,-4.1093,-1.0047,-1.0395,-1.0968,-1.1804,-1.2647,-1.3774,-1.5494,-1.6468,-1.7446,-1.8684,-1.9964,-2.0747,-2.0747,-2.0389,-1.9973,-1.9534,-1.7962,-1.6625,-1.5749,-1.416,-1.287,-1.2027,-1.1233,-1.0587,-1.0168,-1.0181,-1.0197,-1.0197,-1.0223,-1.0249,-1.0259,-1.025,-1.0459,-1.0911,-1.2214,-1.3991,-1.6131,-1.8292,-2.0716,-2.3136,-2.3563,-2.5531,-2.8299,-2.9176,-3.112,-3.3514,-3.4352,-3.4625,-3.4216,-3.1655,-2.9371,-2.7374,-2.6094,-2.4495,-2.2837,-2.1531,-1.9933,-1.8509,-1.8061,-1.7027,-1.6149,-1.6597,-1.6695,0.0,0.0,-1.8626,-1.9485,-2.0329,-2.0852,-2.169,-2.3434,-2.3745,-2.417,-2.5455,-2.5669,-2.6243,-2.796,-2.9714,-3.1135,-3.1992,-3.2109,-3.2109,-3.2109,-3.2849,-3.3885,-3.5168,-3.6064,-3.6923,-3.7819,-3.8682,-3.934,-3.9788,-4.0659,-4.1094,-4.1094,-4.1103,-4.1107,-4.1107,-4.1099,-4.1099,-4.1107,-4.1106,-4.1101,-4.1094,-4.1101,-4.1094,-4.1094,-4.1094,-4.1094,-4.1095,-4.1109,-4.11,-4.1106,-4.1098,-4.11,-4.1108,-1.0018,-1.0713,-1.1577,-1.2453,-1.3392,-1.4637,-1.6372,-1.7465,-1.8688,-2.0361,-2.1913,-2.2849,-2.2849,-2.2262,-2.188,-2.188,-2.0351,-1.9013,-1.8134,-1.651,-1.4825,-1.3141,-1.2145,-1.1228,-1.0351,-1.0222,-1.0186,-1.0186,-1.0195,-1.0198,-1.0197,-1.02,-1.0637,-1.1457,-1.2544,-1.4441,-1.6967,-1.8878,-2.1087,-2.3374,-2.4434,-2.6203,-2.8322,-2.9506,-3.1465,-3.3805,-3.5483,-3.5519,-3.4432,-3.2255,-3.0716,-2.9362,-2.7312,-2.6225,-2.529,-2.3168,-2.1706,-2.0557,-1.9681,-1.8335,-1.7144,-1.6987,-1.6812,-1.6695,0.0,0.0,0.0,-1.8589,-1.8842,-1.9446,-2.1005,-2.1297,-2.1531,-2.2233,-2.2486,-2.2798,-2.3324,-2.6069,-2.8522,-2.9886,-3.0197,-3.0295,-3.0295,-3.1232,-3.2482,-3.4002,-3.443,-3.5207,-3.6629,-3.7837,-3.8811,-3.9532,-4.056,-4.1103,-4.1103,-4.1108,-4.1098,-4.1098,-4.1097,-4.1097,-4.1097,-4.1103,-4.1092,-4.11,-4.1106,-4.1107,-4.1107,-4.1107,-4.1107,-4.1094,-4.1091,-4.1099,-4.1095,-4.1094,-4.1101,-4.1098,-1.0087,-1.0739,-1.1577,-1.2453,-1.3908,-1.5516,-1.7202,-1.8799,-2.0418,-2.2104,-2.3155,-2.3741,-2.3741,-2.3665,-2.3613,-2.3613,-2.209,-2.0752,-1.9864,-1.8249,-1.6567,-1.4882,-1.3319,-1.206,-1.1184,-1.0464,-1.0102,-1.0102,-1.0164,-1.02,-1.0197,-1.02,-1.0639,-1.1474,-1.3122,-1.5289,-1.7824,-2.0347,-2.2414,-2.4137,-2.5832,-2.7195,-2.8442,-3.0753,-3.2726,-3.4505,-3.6124,-3.6146,-3.5266,-3.438,-3.2462,-3.0445,-3.0277,-2.8132,-2.564,-2.5348,-2.3556,-2.1453,-2.0596,-1.9642,-1.8745,-1.8021,-1.7279,-1.6695,-1.6695,0.0,-1.687,-1.6969,0.0,-1.8411,-1.9329,0.0,0.0,-1.9623,-2.0286,-2.0557,-1.9896,-2.1453,-2.3848,-2.6963,-2.8015,-2.8502,-2.8502,-2.9983,-3.1349,-3.2306,-3.3768,-3.4681,-3.4876,-3.7194,-3.8558,-3.8636,-4.0237,-4.1097,-4.1097,-4.1103,-4.1106,-4.1106,-4.11,-4.11,-4.1106,-4.1094,-4.1091,-4.1097,-4.1091,-4.1107,-4.1107,-4.1107,-4.1107,-4.111,-4.1094,-4.11,-4.1106,-4.11,-4.11,-4.1092,-1.0047,-1.1122,-1.2177,-1.2546,-1.4401,-1.6258,-1.7412,-1.9854,-2.1989,-2.3193,-2.4526,-2.5341,-2.5346,-2.5773,-2.5862,-2.539,-2.4287,-2.3236,-2.2366,-2.0733,-1.9056,-1.7389,-1.5704,-1.4156,-1.2784,-1.1959,-1.13,-1.0804,-1.0867,-1.0649,-1.0154,-1.0668,-1.1333,-1.217,-1.3917,-1.6107,-1.8622,-2.0746,-2.2882,-2.5054,-2.7295,-2.8726,-2.9695,-3.1213,-3.3781,-3.6642,-3.7309,-3.764,-3.7491,-3.5697,-3.4395,-3.3215,-3.1243,-2.9729,-2.8459,-2.7395,-2.5656,-2.3984,-2.3614,-2.1765,-1.9875,-1.9523,-1.845,-1.7318,-1.6812,-1.6695,-1.6403,-1.5391,0.0,0.0,0.0,0.0,0.0,0.0,-1.7301,-1.7418,-1.7048,-1.8061,-2.0107,-2.3536,-2.4705,-2.564,-2.6654,-2.782,-2.9321,-3.1193,-3.1992,-3.3044,-3.4525,-3.659,-3.7974,-3.848,-4.0195,-4.1107,-4.1107,-4.1107,-4.1107,-4.1107,-4.1107,-4.1107,-4.1107,-4.1107,-4.1107,-4.1107,-4.1107,-4.1107,-4.1107,-4.1107,-4.1107,-4.1107,-4.1107,-4.1107,-4.1107,-4.1107,-4.1107,-4.1091,-1.0043,-1.1386,-1.256,-1.2572,-1.4865,-1.7216,-1.8743,-2.1224,-2.3324,-2.4436,-2.564,-2.6568,-2.7046,-2.7415,-2.7485,-2.7122,-2.6351,-2.5415,-2.432,-2.3122,-2.1598,-1.9663,-1.7977,-1.6372,-1.487,-1.3586,-1.2513,-1.1654,-1.1474,-1.0943,-1.0116,-1.0962,-1.1932,-1.301,-1.4974,-1.7261,-1.9788,-2.1768,-2.3805,-2.5904,-2.8459,-3.0416,-3.1887,-3.2711,-3.5244,-3.8349,-3.8342,-3.8747,-3.8973,-3.6871,-3.5919,-3.519,-3.2657,-3.1347,-3.0468,-2.9131,-2.7599,-2.6201,-2.5768,-2.3807,-2.1765,-2.1313,-2.0127,-1.882,-1.7943,-1.7398,-1.6636,-1.5118,-1.4612,0.0,0.0,0.0,-1.4222,0.0,0.0,-1.4592,-1.4358,-1.5293,-1.7164,-2.038,-2.194,-2.3324,-2.4842,-2.5952,-2.745,-2.9574,-3.0392,-3.1717,-3.3807,-3.5772,-3.735,-3.8461,-3.986,-4.0776,-4.1107,-4.1107,-4.1107,-4.1107,-4.1107,-4.1107,-4.1107,-4.1107,-4.1107,-4.1107,-4.1107,-4.1107,-4.1107,-4.1107,-4.1107,-4.1107,-4.1107,-4.1107,-4.1107,-4.1107,-4.1107,-4.1107,-1.0158,-1.135,-1.25,-1.25,-1.5247,-1.8583,-2.1929,-2.3185,-2.4377,-2.6092,-2.6365,-2.702,-2.8643,-2.8153,-2.8001,-2.8739,-2.8077,-2.6918,-2.5268,-2.5115,-2.3949,-2.1426,-1.9701,-1.8402,-1.7508,-1.5042,-1.3376,-1.2568,-1.1711,-1.0895,-1.0116,-1.0933,-1.2172,-1.3876,-1.6403,-1.8946,-2.1493,-2.4082,-2.5636,-2.6599,-2.9217,-3.219,-3.5157,-3.6101,-3.7501,-3.8972,-3.8972,-3.8991,-3.8903,-3.8101,-3.6743,-3.5398,-3.5351,-3.3125,-3.0501,-3.0438,-2.9182,-2.7484,-2.5932,-2.5425,-2.4977,-2.3406,-2.2349,-2.1453,-2.0576,-1.9113,-1.7708,-1.6792,-1.5955,-1.5352,-1.5352,0.0,0.0,0.0,0.0,0.0,0.0,-1.3093,0.0,0.0,-2.0321,-2.2194,-2.3109,-2.4725,-2.6108,-2.6963,-2.9379,-3.1191,-3.2131,-3.4567,-3.6727,-3.8441,-3.9062,-3.9919,-4.1088,-4.1107,-4.1107,-4.1107,-4.1107,-4.1107,-4.1107,-4.1107,-4.1107,-4.1107,-4.1107,-4.1107,-4.1107,-4.1107,-4.1107,-4.1107,-4.1107,-4.1107,-4.1107,-4.1107,-4.1107,-4.1107,-1.096,-1.2142,-1.312,-1.2592,-1.5266,-1.8645,-2.2089,-2.332,-2.4482,-2.618,-2.7364,-2.8489,-2.9643,-3.0469,-3.0863,-3.0636,-3.0331,-2.9688,-2.8587,-2.7969,-2.6765,-2.4784,-2.3097,-2.1282,-1.9295,-1.7886,-1.6223,-1.4252,-1.3376,-1.2249,-1.0911,-1.1768,-1.2743,-1.3934,-1.7064,-1.9548,-2.1565,-2.414,-2.6324,-2.8389,-3.2063,-3.4867,-3.6899,-3.7217,-3.8023,-3.9088,-3.9652,-3.9862,-3.9718,-3.8901,-3.8303,-3.7613,-3.5859,-3.4616,-3.3572,-3.2438,-3.0918,-2.9491,-2.8958,-2.7152,-2.5316,-2.4802,-2.3638,-2.2388,-2.1544,-2.0479,-1.9269,-1.7844,-1.6403,-1.5216,-1.4651,0.0,0.0,0.0,0.0,0.0,0.0,0.0,-1.2703,0.0,0.0,0.0,0.0,0.0,-2.4569,-2.5991,-2.7957,-2.971,-3.1154,-3.3668,-3.5577,-3.6746,-3.8636,-4.0097,-4.1094,-4.1091,-4.1107,-4.1107,-4.1107,-4.1107,-4.1107,-4.1107,-4.1107,-4.1107,-4.1107,-4.1107,-4.1107,-4.1107,-4.1107,-4.1107,-4.1107,-4.1107,-4.1107,-4.1107,-4.1107,-4.1107,-1.1825,-1.2758,-1.3542,-1.3013,-1.6189,-1.9658,-2.2184,-2.3781,-2.5228,-2.6613,-2.8264,-2.9777,-3.0924,-3.2287,-3.2905,-3.2397,-3.2336,-3.1847,-3.0701,-3.0121,-2.907,-2.7358,-2.5676,-2.39,-2.1951,-2.0212,-1.8378,-1.6453,-1.4981,-1.3548,-1.2191,-1.2762,-1.3621,-1.4867,-1.7958,-2.0255,-2.2013,-2.488,-2.7186,-2.9273,-3.3501,-3.6394,-3.8151,-3.8151,-3.8706,-3.9546,-4.0091,-4.0301,-4.0205,-3.9661,-3.9312,-3.8832,-3.7097,-3.6224,-3.5566,-3.4131,-3.2775,-3.1613,-3.1056,-2.9061,-2.7098,-2.687,-2.5563,-2.4115,-2.33,-2.2224,-2.1004,-1.9635,-1.7964,-1.6581,-1.6016,-1.4262,0.0,0.0,0.0,0.0,0.0,-1.0756,0.0,0.0,0.0,0.0,0.0,0.0,-2.2564,-2.4627,-2.6342,-2.8191,-3.0236,-3.2479,-3.4372,-3.585,-3.7523,-3.9276,-4.1078,-4.1091,-4.1107,-4.1107,-4.1107,-4.1107,-4.1107,-4.1107,-4.1107,-4.1107,-4.1107,-4.1107,-4.1107,-4.1107,-4.1107,-4.1107,-4.1107,-4.1107,-4.1107,-4.1107,-4.1107,-4.1107,-1.2833,-1.3364,-1.3952,-1.4009,-1.8003,-2.1509,-2.2425,-2.4643,-2.6534,-2.7443,-2.9121,-3.0856,-3.2551,-3.3595,-3.4162,-3.4094,-3.4135,-3.349,-3.1821,-3.1725,-3.0961,-2.9235,-2.7549,-2.6217,-2.5287,-2.2046,-1.9883,-1.8956,-1.6453,-1.4752,-1.3857,-1.3819,-1.4733,-1.6502,-1.8985,-2.1029,-2.2811,-2.6249,-2.8268,-2.9503,-3.3654,-3.6795,-3.9011,-3.9049,-3.9584,-4.0301,-4.0301,-4.0301,-4.0301,-4.0301,-3.9747,-3.9069,-3.9011,-3.7913,-3.6443,-3.5583,-3.4751,-3.3788,-3.2217,-3.1117,-3.0244,-2.9501,-2.8052,-2.6617,-2.5867,-2.4374,-2.2943,-2.2139,-2.0591,-1.9365,-1.9328,-1.7242,0.0,0.0,0.0,0.0,0.0,0.0,0.0,0.0,0.0,0.0,0.0,0.0,0.0,0.0,-2.4686,0.0,0.0,-3.1096,-3.3183,-3.5694,-3.5861,-3.7539,-4.0941,-4.1052,-4.1107,-4.1107,-4.1107,-4.1107,-4.1107,-4.1107,-4.1107,-4.1107,-4.1107,-4.1107,-4.1107,-4.1107,-4.1107,-4.1107,-4.1107,-4.1107,-4.1107,-4.1107,-4.1107,-4.1107,-1.5411,-1.6412,-1.762,-1.8269,-1.9996,-2.1772,-2.3233,-2.5056,-2.6806,-2.8277,-3.0491,-3.2591,-3.4274,-3.5796,-3.6661,-3.6652,-3.668,-3.6508,-3.6105,-3.5495,-3.4405,-3.2764,-3.1045,-2.8848,-2.616,-2.465,-2.2548,-1.9788,-1.7886,-1.6204,-1.4752,-1.4106,-1.4733,-1.6502,-1.8985,-2.1029,-2.2811,-2.6249,-2.9631,-3.2955,-3.5878,-3.7846,-3.9069,-3.9709,-4.011,-4.0301,-4.0301,-4.0301,-4.0301,-4.0301,-4.0148,-3.9843,-3.9202,-3.8706,-3.819,-3.7311,-3.6489,-3.563,-3.4553,-3.3211,-3.1919,-3.1174,-2.9729,-2.8433,-2.8289,-2.6919,-2.5441,-2.4638,-2.3123,-2.1775,-2.116,-1.9011,-1.7046,0.0,0.0,0.0,0.0,0.0,0.0,-1.0308,0.0,0.0,0.0,0.0,0.0,0.0,0.0,0.0,-2.8424,-3.0197,-3.2031,-3.3982,-3.524,-3.6955,-3.9143,-4.0448,-4.1107,-4.1107,-4.1107,-4.1107,-4.1107,-4.1107,-4.1107,-4.1107,-4.1107,-4.1107,-4.1107,-4.1107,-4.1107,-4.1107,-4.1107,-4.1107,-4.1107,-4.1107,-4.1107,-4.1107,-1.6923,-1.8112,-1.9647,-2.0884,-2.2096,-2.3246,-2.4176,-2.605,-2.7956,-2.9627,-3.2074,-3.4135,-3.5429,-3.71,-3.7976,-3.7585,-3.789,-3.7995,-3.768,-3.7204,-3.6356,-3.5066,-3.3385,-3.1275,-2.8649,-2.6702,-2.4612,-2.2333,-1.9888,-1.8039,-1.6739,-1.5516,-1.565,-1.7026,-1.9157,-2.1029,-2.2868,-2.7033,-3.1006,-3.4713,-3.6833,-3.8457,0.0,-4.011,-4.0301,-4.0301,-4.0301,-4.0301,-4.0301,-4.0301,-4.0301,-4.0205,-3.9709,-3.9565,-3.9412,-3.8514,-3.796,-3.7398,-3.6528,-3.5354,-3.4167,-3.3362,-3.1908,-3.0593,-3.0304,-2.8925,-2.7571,-2.7155,-2.5406,-2.3804,-2.3366,-2.1249,-1.9062,-1.7528,0.0,0.0,0.0,0.0,0.0,0.0,0.0,0.0,0.0,0.0,0.0,0.0,0.0,0.0,-2.7528,-2.9282,-3.1035,-3.2774,-3.4837,-3.6746,-3.8483,-4.0237,-4.1091,-4.1091,-4.111,-4.1107,-4.1107,-4.1107,-4.1107,-4.1107,-4.1107,-4.1107,-4.1107,-4.1107,-4.1107,-4.1107,-4.1107,-4.1107,-4.1107,-4.1107,-4.1107,-4.1107,-1.8302,-1.9495,-2.1111,-2.2571,-2.4302,-2.5515,-2.5648,-2.7479,-2.9499,-3.128,-3.3655,-3.5505,-3.6434,-3.7964,-3.8678,-3.803,-3.8678,-3.8869,-3.827,-3.8232,-3.7814,-3.6834,-3.5358,-3.365,-3.1771,-2.8642,-2.6485,-2.5346,-2.2146,-2.0065,-1.9019,-1.7453,-1.7094,-1.7824,-1.9525,-2.1454,-2.3728,-2.8389,-3.2306,-3.5515,-3.7063,-3.8801,-4.0454,-4.0454,-4.053,-4.0607,-4.0492,-4.0377,-4.0301,-4.0301,-4.0301,-4.0301,-4.0301,-4.0301,-4.0148,-3.9393,-3.9164,-3.8973,-3.8113,-3.7368,-3.6615,-3.5744,-3.4342,-3.3035,-3.2396,-3.0945,-2.9727,-2.9662,-2.7687,-2.5889,-2.5677,-2.3508,-2.1028,-1.8838,-1.6275,-1.4579,0.0,0.0,0.0,0.0,0.0,0.0,0.0,0.0,0.0,0.0,0.0,0.0,0.0,0.0,-3.0005,-3.1878,-3.4294,-3.6418,-3.8135,-3.9652,-4.0646,-4.1097,-4.1091,-4.111,-4.1107,-4.1107,-4.1107,-4.1107,-4.1107,-4.1107,-4.1107,-4.1107,-4.1107,-4.1107,-4.1107,-4.1107,-4.1107,-4.1107,-4.1107,-4.1107,-2.1642,-2.2969,-2.4226,-2.451,-2.6494,-2.8286,-2.9014,-2.9442,-3.0541,-3.2956,-3.4841,-3.6576,-3.8102,-3.9126,-3.9941,-4.0509,-4.0691,-4.1016,-4.1602,-4.164,-4.0978,-3.9498,-3.848,-3.652,-3.3447,-3.1458,-2.901,-2.6104,-2.4112,-2.1994,-1.9792,-1.8826,-1.8458,-1.8672,-2.0399,-2.3632,-2.7943,-3.028,-3.3203,-3.6366,-3.7311,-3.9145,-4.1285,-4.1285,-4.1743,-4.2278,-4.1552,-4.0864,-4.0301,-4.0301,-4.0301,-4.0301,-4.0301,-4.0301,-4.0263,-4.011,-4.0072,-3.9881,-3.9011,-3.8667,-3.8362,-3.7483,-3.6547,-3.5802,-3.5665,-3.4343,-3.2935,-3.2223,-3.0676,-2.8998,-2.7627,-2.4701,-2.2176,-2.1141,-1.8812,-1.711,0.0,0.0,0.0,0.0,0.0,-1.5796,0.0,0.0,0.0,0.0,0.0,0.0,0.0,0.0,-2.8483,-3.0957,-3.2869,-3.4645,-3.634,-3.6663,-3.824,-4.1097,-4.1094,-4.1094,-4.1107,-4.1107,-4.1107,-4.1107,-4.1107,-4.1107,-4.1107,-4.1107,-4.1107,-4.1107,-4.1107,-4.1107,-4.1107,-4.1107,-4.1107,-4.1107,-2.3549,-2.5062,-2.6425,-2.6854,-2.8968,-3.0901,-3.18,-3.2634,-3.3619,-3.4832,-3.6822,-3.8603,-3.9854,-4.0707,-4.1359,-4.1795,-4.1814,-4.2007,-4.2409,-4.2458,-4.2098,-4.1334,-4.0083,-3.8269,-3.577,-3.3251,-3.0529,-2.7606,-2.5469,-2.3352,-2.1274,-2.0472,-2.0092,-2.0183,-2.2385,-2.5428,-2.9044,-3.1209,-3.3826,-3.6615,-3.7865,-3.9623,-4.1495,-4.1495,-4.203,-4.2756,-4.2316,-4.1628,-4.0864,-4.0435,-4.0301,-4.0301,-4.0301,-4.0301,-4.0301,-4.0253,-4.0253,-4.0148,-3.97,-3.9595,-3.9414,-3.8536,-3.8057,-3.7684,-3.7234,-3.6184,-3.5048,-3.4184,-3.2653,-3.0856,-2.8766,-2.5999,-2.3927,-2.357,-2.1404,-1.9734,-1.9634,0.0,0.0,0.0,0.0,0.0,0.0,0.0,0.0,0.0,0.0,0.0,0.0,-2.5816,-2.745,-3.0041,-3.1956,-3.3887,-3.5875,-3.59,-3.7205,-3.9769,-4.0665,-4.1091,-4.1107,-4.1107,-4.1107,-4.1107,-4.1107,-4.1107,-4.1107,-4.1107,-4.1107,-4.1107,-4.1107,-4.1107,-4.1107,-4.1107,-4.1078,-4.1045,-2.5349,-2.7094,-2.8682,-2.9377,-3.1545,-3.3505,-3.4358,-3.5912,-3.6992,-3.6992,-3.8687,-4.0298,-4.134,-4.2022,-4.2458,-4.2659,-4.2678,-4.2754,-4.2924,-4.2931,-4.2867,-4.2666,-4.129,-3.9726,-3.8057,-3.4963,-3.2121,-2.9574,-2.7027,-2.4556,-2.2226,-2.1952,-2.1912,-2.2193,-2.4627,-2.7103,-2.9591,-3.2138,-3.459,-3.6882,-3.84,-4.0119,-4.1781,-4.1781,-4.2412,-4.331,-4.3119,-4.2507,-4.1648,-4.0826,-4.0435,-4.0301,-4.0301,-4.0301,-4.0291,-4.0215,-4.0196,-4.0186,-4.0127,-4.0147,-4.0005,-3.9319,-3.9204,-3.9069,-3.8382,-3.7599,-3.6827,-3.6124,-3.4319,-3.211,-2.9619,-2.7443,-2.598,-2.5856,-2.3875,-2.2323,-2.2265,0.0,0.0,0.0,0.0,0.0,0.0,0.0,0.0,0.0,0.0,0.0,-2.4057,-2.5109,-2.6766,-2.9145,-3.076,-3.2808,-3.5329,-3.5727,-3.6952,-3.9068,-4.0448,-4.111,-4.1107,-4.1107,-4.1085,-4.1078,-4.1078,-4.1078,-4.1078,-4.1085,-4.1107,-4.1107,-4.1107,-4.1107,-4.1107,-4.1081,-4.1041,-4.1019,-2.7996,-3.0021,-3.1741,-3.2011,-3.4169,-3.613,-3.6927,-3.849,-3.9559,-3.9559,-3.9767,-4.0506,-4.2098,-4.2344,-4.2716,-4.3512,-4.3587,-4.3891,-4.463,-4.4668,-4.4345,-4.3606,-4.2678,-4.1389,-3.9711,-3.7173,-3.4614,-3.2055,-2.9564,-2.5944,-2.1345,-2.2854,-2.3948,-2.474,-2.6556,-2.8788,-3.1325,-3.3875,-3.5974,-3.7674,-3.8629,-4.0482,-4.2679,-4.2679,-4.3673,-4.4953,-4.4159,-4.3367,-4.2545,-4.1686,-4.0903,-4.0301,-4.0301,-4.0301,-4.0291,-4.0215,-4.0196,-4.0186,-4.0127,-4.0087,-4.0098,-4.0002,-4.0042,-4.0072,-3.9977,-3.929,-3.8642,-3.8565,-3.5958,-3.2917,-3.0431,-2.9112,-2.8191,-2.7646,-2.5995,-2.4774,-2.4765,-2.3537,-2.2589,0.0,0.0,0.0,0.0,-2.093,0.0,0.0,0.0,0.0,0.0,-2.4737,-2.6439,-2.8269,-2.8495,-3.0211,-3.3592,-3.5146,-3.7564,-4.0866,-4.1019,-4.1094,-4.1107,-4.1107,-4.1071,-4.1,-4.1,-4.1,-4.1003,-4.1075,-4.1107,-4.1107,-4.1107,-4.1107,-4.1085,-4.1034,-4.1019,-4.0988,-3.0128,-3.2235,-3.4044,-3.4117,-3.6208,-3.7979,-3.8309,-3.975,-4.1004,-4.1509,-4.1933,-4.245,-4.3114,-4.3606,-4.4042,-4.4383,-4.4421,-4.4554,-4.4876,-4.4895,-4.4762,-4.4421,-4.3625,-4.2412,-4.0715,-3.8205,-3.5685,-3.3183,-3.0654,-2.8135,-2.571,-2.5927,-2.6467,-2.7331,-2.8565,-3.0525,-3.3034,-3.5064,-3.6903,-3.8591,-3.9966,-4.1418,-4.2851,-4.3348,-4.4244,-4.5197,-4.4843,-4.3829,-4.2626,-4.2314,-4.137,-4.0301,-4.0301,-4.0263,-4.0234,-4.0157,-4.0108,-4.0067,-4.0005,-4.0015,-4.0046,-4.0046,-4.0087,-4.0147,-4.0147,-3.988,-3.947,-3.8946,-3.6492,-3.4158,-3.3166,-3.1526,-3.0213,-2.9892,-2.8859,-2.7898,-2.7338,-2.6746,0.0,-2.4886,0.0,0.0,0.0,0.0,0.0,0.0,0.0,0.0,0.0,-2.4452,-2.5837,-2.8062,-2.8496,-3.02,-3.337,-3.5057,-3.7659,-4.1103,-4.1094,-4.1081,-4.1038,-4.1038,-4.0996,-4.0935,-4.0935,-4.0952,-4.0996,-4.103,-4.1038,-4.1038,-4.1038,-4.1023,-4.098,-4.0943,-4.0917,-4.0888,-3.269,-3.4649,-3.637,-3.6692,-3.8368,-3.9791,-4.0047,-4.1048,-4.2087,-4.2934,-4.346,-4.3793,-4.3901,-4.4505,-4.4895,-4.4895,-4.4895,-4.4895,-4.4895,-4.4895,-4.4895,-4.4895,-4.4137,-4.3038,-4.1567,-3.9304,-3.6917,-3.4434,-3.2141,-3.0105,-2.8332,-2.7505,-2.7975,-2.9554,-3.0676,-3.2325,-3.4365,-3.6556,-3.8213,-3.9509,-4.1189,-4.2373,-4.3204,-4.3757,-4.448,-4.5192,-4.5181,-4.4062,-4.2601,-4.2673,-4.1627,-4.0263,-4.0263,-4.0244,-4.0186,-4.0106,-4.0046,-3.9986,-3.9922,-3.9933,-3.9965,-3.9965,-4.0026,-4.0067,-4.0067,-4.0067,-3.9829,-3.8941,-3.7098,-3.5476,-3.4984,-3.3356,-3.1968,-3.1659,-3.0936,-3.0198,-2.9589,-2.927,-2.8586,-2.7158,-2.6549,-2.5697,-2.4325,-2.3758,0.0,0.0,0.0,0.0,0.0,-2.4768,-2.5897,-2.7806,-2.8418,-2.9966,-3.2619,-3.5762,-3.8585,-4.1032,-4.1041,-4.1023,-4.0975,-4.0943,-4.0917,-4.0864,-4.0864,-4.0912,-4.0975,-4.0988,-4.0996,-4.0996,-4.0996,-4.0967,-4.0907,-4.0869,-4.0844,-4.0807,-3.5926,-3.7448,-3.8894,-3.9952,-4.0811,-4.1661,-4.251,-4.2674,-4.2971,-4.3785,-4.3893,-4.4016,-4.4369,-4.4707,-4.4895,-4.4895,-4.4895,-4.4895,-4.4895,-4.4895,-4.4895,-4.4895,-4.4137,-4.3284,-4.2401,-4.0734,-3.865,-3.6168,-3.4472,-3.1562,-2.7494,-2.6614,-2.7991,-3.125,-3.299,-3.4204,-3.522,-3.8603,-4.0109,-4.0329,-4.2007,-4.3221,-4.3977,-4.3925,-4.4437,-4.5192,-4.5125,-4.4018,-4.2601,-4.2673,-4.1588,-4.0196,-4.0196,-4.0196,-4.0176,-4.0027,-3.9996,-3.9986,-3.9922,-3.99,-3.99,-3.99,-3.9954,-3.9996,-3.9996,-3.9996,-3.9758,-3.8871,-3.7988,-3.686,-3.5211,-3.4226,-3.3437,-3.27,-3.1808,-3.1235,-3.1337,-3.062,-2.9782,-2.8965,-2.9023,-2.8084,-2.5338,-2.526,0.0,0.0,0.0,0.0,-2.4183,-2.5841,-2.6937,-2.7304,-2.7764,-2.893,-3.0811,-3.743,-4.0794,-4.0902,-4.0893,-4.0907,-4.0907,-4.0833,-4.0812,-4.0807,-4.0807,-4.0839,-4.0912,-4.0975,-4.0996,-4.0996,-4.0996,-4.0967,-4.0883,-4.0828,-4.0807,-4.0801,-3.8307,-3.9196,-3.9994,-4.035,-4.1079,-4.1699,-4.1991,-4.2465,-4.2939,-4.3177,-4.3423,-4.3607,-4.3721,-4.4227,-4.457,-4.457,-4.4777,-4.4895,-4.4895,-4.4895,-4.4895,-4.4895,-4.4649,-4.4137,-4.3303,-4.1643,-4.0108,-3.8725,-3.6481,-3.4415,-3.2548,-3.2255,-3.3013,-3.4624,-3.5192,-3.6549,-3.8477,-3.958,-4.0733,-4.1926,-4.3063,-4.3685,-4.3982,-4.4562,-4.4941,-4.5125,-4.5068,-4.3927,-4.2481,-4.2536,-4.1455,-4.0067,-4.0067,-4.0087,-4.0108,-4.0036,-3.9965,-3.9922,-3.99,-3.99,-3.99,-3.99,-3.9911,-3.9933,-3.9933,-3.9933,-3.9846,-3.9589,-3.885,-3.8121,-3.759,-3.6813,-3.597,-3.5173,-3.4803,-3.4225,-3.3123,-3.2724,-3.2041,-3.0625,-3.0,-2.9127,-2.7697,-2.716,-2.6782,0.0,0.0,0.0,-2.5867,-2.6354,-2.7187,-2.8343,-2.9279,-3.0053,-3.0665,-3.7394,-4.0814,-4.0839,-4.0834,-4.083,-4.0833,-4.0812,-4.0808,-4.0808,-4.0808,-4.0804,-4.0833,-4.0854,-4.0859,-4.0859,-4.0859,-4.0848,-4.0831,-4.0814,-4.0808,-4.0802,-4.0202,-4.0637,-4.1035,-4.1361,-4.1832,-4.2158,-4.2158,-4.2574,-4.2901,-4.2901,-4.3087,-4.3213,-4.3213,-4.3687,-4.4095,-4.4198,-4.4402,-4.453,-4.453,-4.453,-4.4584,-4.4707,-4.4707,-4.4399,-4.372,-4.2678,-4.1548,-4.0393,-3.8509,-3.7315,-3.6784,-3.6784,-3.7068,-3.7599,-3.7921,-3.8965,-4.0496,-4.1122,-4.2028,-4.3118,-4.398,-4.4347,-4.4437,-4.4938,-4.5114,-4.5091,-4.501,-4.3869,-4.2412,-4.2481,-4.1383,-3.9996,-3.9996,-4.0036,-4.0046,-3.9975,-3.9933,-3.99,-3.99,-3.99,-3.99,-3.99,-3.99,-3.99,-3.99,-3.99,-3.99,-3.99,-3.9267,-3.869,-3.869,-3.7988,-3.7249,-3.6737,-3.6396,-3.5827,-3.4794,-3.4358,-3.3656,-3.2334,-3.1697,-3.0937,-2.9817,-2.9295,-2.8888,-2.8553,-2.8632,-2.8612,-2.8418,-2.8165,-2.8186,-2.8549,-3.0495,-3.1853,-3.251,-3.8024,-4.0791,-4.0795,-4.0795,-4.0793,-4.0792,-4.0796,-4.0797,-4.0797,-4.0797,-4.0794,-4.0807,-4.0807,-4.0807,-4.0807,-4.0807,-4.0792,-4.0797,-4.0797,-4.0797,-4.0797,-4.1632,-4.1777,-4.2012,-4.2755,-4.2901,-4.2901,-4.2901,-4.2901,-4.2901,-4.2901,-4.2901,-4.2901,-4.2901,-4.3178,-4.349,-4.3802,-4.3881,-4.3896,-4.3896,-4.3896,-4.405,-4.4341,-4.4374,-4.4159,-4.3717,-4.366,-4.2858,-4.1241,-4.0405,-4.0037,-4.0071,-4.0049,-4.0049,-4.0108,-4.0923,-4.1321,-4.1473,-4.3038,-4.3774,-4.3946,-4.4706,-4.5061,-4.517,-4.5057,-4.5045,-4.508,-4.4943,-4.3815,-4.2412,-4.2481,-4.1372,-3.9986,-3.9986,-3.9986,-3.9975,-3.9922,-3.99,-3.99,-3.99,-3.99,-3.99,-3.99,-3.99,-3.99,-3.99,-3.99,-3.99,-3.99,-3.9304,-3.8784,-3.8784,-3.8121,-3.7571,-3.7495,-3.6813,-3.6263,-3.6206,-3.5438,-3.4651,-3.3968,-3.3832,-3.3203,-3.1706,-3.1497,-3.1096,-3.0167,-3.0197,-3.0652,-3.1524,-3.1085,-3.0055,-2.8387,-3.1411,-3.4044,-3.6038,-3.9213,-4.0809,-4.0797,-4.0797,-4.0797,-4.0797,-4.0797,-4.0797,-4.0797,-4.0797,-4.0808,-4.0801,-4.0801,-4.0801,-4.0801,-4.0801,-4.0806,-4.0797,-4.0797,-4.0797,-4.0797,-4.2574,-4.2611,-4.2683,-4.2883,-4.2901,-4.2901,-4.2901,-4.2901,-4.2901,-4.2901,-4.2901,-4.2901,-4.2901,-4.2976,-4.305,-4.3123,-4.3607,-4.3896,-4.3896,-4.3896,-4.3943,-4.4001,-4.402,-4.3957,-4.3863,-4.3247,-4.2543,-4.1738,-4.1263,-4.1321,-4.1795,-4.1556,-4.1568,-4.1814,-4.2022,-4.2488,-4.3133,-4.3531,-4.4054,-4.4654,-4.4891,-4.5014,-4.5038,-4.5003,-4.5003,-4.5003,-4.4919,-4.3815,-4.2412,-4.2424,-4.1306,-3.9922,-3.9922,-3.9922,-3.9922,-3.99,-3.99,-3.99,-3.99,-3.99,-3.99,-3.99,-3.99,-3.99,-3.99,-3.99,-3.99,-3.99,-3.9748,-3.9616,-3.9616,-3.9445,-3.9115,-3.85,-3.7666,-3.6908,-3.6301,-3.5438,-3.4841,-3.467,-3.4101,-3.3569,-3.319,-3.2545,-3.2115,-3.1971,-3.2551,-3.2997,-3.3212,-3.429,-3.3914,-3.1737,-3.245,-3.5025,-3.9553,-4.041,-4.079,-4.0797,-4.0797,-4.0797,-4.0797,-4.0797,-4.0797,-4.0797,-4.0797,-4.0803,-4.0796,-4.0796,-4.0796,-4.0796,-4.0796,-4.0809,-4.0797,-4.0797,-4.0797,-4.0797,-4.2901,-4.2901,-4.2901,-4.2901,-4.2901,-4.2901,-4.2901,-4.2901,-4.2901,-4.2901,-4.2901,-4.2901,-4.2901,-4.2901,-4.2901,-4.2901,-4.3213,-4.3439,-4.3439,-4.3439,-4.3507,-4.3656,-4.3673,-4.3738,-4.3896,-4.3469,-4.3118,-4.2809,-4.262,-4.2727,-4.3082,-4.3069,-4.3149,-4.3309,-4.3471,-4.3815,-4.4251,-4.4251,-4.4497,-4.4895,-4.4931,-4.4967,-4.501,-4.4974,-4.4876,-4.4783,-4.487,-4.3711,-4.2189,-4.2347,-4.1283,-3.99,-3.99,-3.99,-3.99,-3.99,-3.99,-3.99,-3.99,-3.99,-3.99,-3.99,-3.99,-3.99,-3.99,-3.99,-3.99,-3.99,-3.99,-3.99,-3.99,-3.99,-3.9767,-3.9323,-3.8527,-3.7837,-3.7401,-3.6585,-3.6045,-3.6045,-3.5666,-3.5382,-3.5382,-3.4965,-3.4727,-3.4782,-3.52,-3.5447,-3.5447,-3.6084,-3.5267,-3.2705,-3.4101,-3.6672,-4.0344,-4.0491,-4.0561,-4.0661,-4.0661,-4.0707,-4.0797,-4.0797,-4.0797,-4.0797,-4.0797,-4.0797,-4.0777,-4.0371,-4.0216,-4.0178,-3.9765,-3.9611,-3.9611,-3.9611,-3.9611,-3.9611,-4.2901,-4.2901,-4.2901,-4.2901,-4.2901,-4.2901,-4.2901,-4.2901,-4.2901,-4.2901,-4.2901,-4.2901,-4.2901,-4.2901,-4.2901,-4.2901,-4.2901,-4.2901,-4.2901,-4.2901,-4.3032,-4.3301,-4.3319,-4.3474,-4.3738,-4.3754,-4.377,-4.3818,-4.377,-4.3802,-4.3912,-4.4154,-4.4285,-4.4327,-4.461,-4.4777,-4.4814,-4.4814,-4.4858,-4.4895,-4.4895,-4.4931,-4.4986,-4.4919,-4.4732,-4.4506,-4.4732,-4.3567,-4.1937,-4.2233,-4.1207,-3.9856,-3.9889,-3.9878,-3.9856,-3.9889,-3.99,-3.99,-3.99,-3.99,-3.99,-3.99,-3.99,-3.99,-3.99,-3.99,-3.99,-3.99,-3.99,-3.99,-3.99,-3.99,-3.99,-3.99,-3.921,-3.869,-3.869,-3.795,-3.7401,-3.7401,-3.7401,-3.7401,-3.7401,-3.7401,-3.7401,-3.7401,-3.7533,-3.7609,-3.7609,-3.7275,-3.6003,-3.3617,-3.5808,-3.7957,-3.9872,-4.0107,-4.0285,-4.0462,-4.0462,-4.0566,-4.0752,-4.0752,-4.0759,-4.0797,-4.0797,-4.0739,-4.0545,-3.981,-3.9423,-3.923,-3.8489,-3.8193,-3.8193,-3.8193,-3.8193,-3.8193,-4.2901,-4.2901,-4.2901,-4.2901,-4.2901,-4.2901,-4.2901,-4.2901,-4.2901,-4.2901,-4.2901,-4.2901,-4.2901,-4.2901,-4.2901,-4.2901,-4.2901,-4.2901,-4.2901,-4.2901,-4.292,-4.2976,-4.2976,-4.2995,-4.305,-4.305,-4.3195,-4.3491,-4.3195,-4.3354,-4.3896,-4.3673,-4.3705,-4.3989,-4.4035,-4.4213,-4.4471,-4.4471,-4.4636,-4.4895,-4.4895,-4.4914,-4.4907,-4.4895,-4.4694,-4.4411,-4.4471,-4.3359,-4.1911,-4.195,-4.0904,-3.9599,-3.9826,-3.9747,-3.9611,-3.9826,-3.99,-3.99,-3.99,-3.99,-3.99,-3.99,-3.99,-3.99,-3.99,-3.99,-3.99,-3.99,-3.99,-3.99,-3.99,-3.99,-3.99,-3.99,-3.921,-3.869,-3.869,-3.795,-3.7401,-3.7401,-3.7401,-3.7401,-3.7401,-3.7401,-3.7401,-3.7401,-3.8083,-3.85,-3.85,-3.9047,-3.9188,-3.875,-3.6501,-3.6764,-3.9872,-4.011,-4.0233,-4.0334,-4.0334,-4.0399,-4.0552,-4.0552,-4.0647,-4.0797,-4.0797,-4.0371,-3.9694,-3.9559,-3.9075,-3.8392,-3.8251,-3.8193,-3.8193,-3.8193,-3.8193,-3.8193,-4.2901,-4.2901,-4.2901,-4.2901,-4.2901,-4.2901,-4.2901,-4.2901,-4.2901,-4.2901,-4.2901,-4.2901,-4.2901,-4.2901,-4.2901,-4.2901,-4.2901,-4.2901,-4.2901,-4.2901,-4.2901,-4.2901,-4.2901,-4.2901,-4.2901,-4.2901,-4.2976,-4.3123,-4.2976,-4.305,-4.3371,-4.3388,-4.3473,-4.364,-4.3818,-4.3989,-4.4154,-4.4313,-4.4484,-4.4655,-4.4833,-4.4895,-4.4895,-4.4895,-4.4584,-4.4154,-4.4327,-4.3104,-4.1449,-4.1623,-4.0597,-3.9268,-3.9599,-3.9599,-3.9563,-3.9815,-3.99,-3.99,-3.99,-3.99,-3.99,-3.99,-3.99,-3.99,-3.99,-3.99,-3.99,-3.99,-3.99,-3.99,-3.99,-3.99,-3.99,-3.99,-3.9578,-3.9342,-3.9342,-3.9001,-3.8755,-3.8755,-3.8755,-3.8755,-3.8755,-3.8755,-3.8755,-3.8755,-3.9115,-3.9342,-3.9342,-3.9692,-3.99,-3.99,-3.8396,-3.8344,-3.9884,-3.9979,-4.009,-4.0185,-4.0266,-4.0334,-4.0399,-4.0586,-4.0654,-4.0635,-4.0752,-4.0313,-3.9462,-3.8992,-3.8295,-3.7464,-3.7019,-3.6845,-3.6845,-3.6845,-3.6845,-3.6845,-4.2901,-4.2901,-4.2901,-4.2901,-4.2901,-4.2901,-4.2901,-4.2901,-4.2901,-4.2901,-4.2901,-4.2901,-4.2901,-4.2901,-4.2901,-4.2901,-4.2901,-4.2901,-4.2901,-4.2901,-4.2901,-4.2901,-4.2901,-4.2901,-4.2901,-4.2901,-4.2901,-4.2901,-4.2901,-4.2901,-4.2901,-4.316,-4.3284,-4.3302,-4.3557,-4.3705,-4.3802,-4.4046,-4.4213,-4.4299,-4.4557,-4.4668,-4.4681,-4.4745,-4.4374,-4.3833,-4.4169,-4.2868,-4.1036,-4.1305,-4.0285,-3.8971,-3.9287,-3.9377,-3.9446,-3.9717,-3.9856,-3.99,-3.99,-3.99,-3.99,-3.99,-3.99,-3.99,-3.99,-3.99,-3.99,-3.99,-3.99,-3.99,-3.99,-3.99,-3.99,-3.99,-3.99,-3.99,-3.99,-3.99,-3.99,-3.99,-3.99,-3.99,-3.99,-3.99,-3.99,-3.99,-3.99,-3.99,-3.99,-3.99,-3.99,-3.99,-3.99,-3.99,-3.99,-3.99,-3.9946,-4.0041,-4.0167,-4.0221,-4.0266,-4.0557,-4.0607,-4.0492,-4.0494,-4.0004,-3.9133,-3.8257,-3.7386,-3.6555,-3.5936,-3.5704,-3.5704,-3.5704,-3.5704,-3.5704,-4.2901,-4.2901,-4.2901,-4.2901,-4.2901,-4.2901,-4.2901,-4.2901,-4.2901,-4.2901,-4.2901,-4.2901,-4.2901,-4.2901,-4.2901,-4.2901,-4.2901,-4.2901,-4.2901,-4.2901,-4.2901,-4.2901,-4.2901,-4.2901,-4.2901,-4.2901,-4.2901,-4.2901,-4.2901,-4.2901,-4.2901,-4.292,-4.2939,-4.2939,-4.2976,-4.3142,-4.344,-4.3456,-4.3656,-4.3943,-4.3958,-4.3974,-4.4004,-4.4313,-4.4016,-4.3473,-4.3818,-4.267,-4.1003,-4.102,-3.9953,-3.8673,-3.8957,-3.9036,-3.909,-3.9433,-3.9712,-3.99,-3.99,-3.99,-3.99,-3.99,-3.99,-3.99,-3.99,-3.99,-3.99,-3.99,-3.99,-3.99,-3.99,-3.99,-3.99,-3.99,-3.99,-3.99,-3.99,-3.99,-3.99,-3.99,-3.99,-3.99,-3.99,-3.99,-3.99,-3.99,-3.99,-3.99,-3.99,-3.99,-3.99,-3.99,-3.99,-3.99,-3.99,-3.99,-3.99,-3.9922,-3.9914,-3.9989,-4.012,-4.0266,-4.0391,-4.0472,-3.9863,-3.9088,-3.8232,-3.7367,-3.6516,-3.5781,-3.5723,-3.5704,-3.5704,-3.5704,-3.5704,-3.5704,-4.2901,-4.2901,-4.2901,-4.2901,-4.2901,-4.2901,-4.2901,-4.2901,-4.2901,-4.2901,-4.2901,-4.2901,-4.2901,-4.2901,-4.2901,-4.2901,-4.2901,-4.2901,-4.2901,-4.2901,-4.2901,-4.2901,-4.2901,-4.2901,-4.2901,-4.2901,-4.2901,-4.2901,-4.2901,-4.2901,-4.2901,-4.2901,-4.2901,-4.2901,-4.2901,-4.2976,-4.3087,-4.3301,-4.3473,-4.3607,-4.3818,-4.3896,-4.3943,-4.427,-4.3986,-4.3439,-4.3786,-4.2509,-4.0685,-4.0685,-3.9665,-3.8401,-3.8673,-3.8744,-3.8847,-3.9357,-3.9682,-3.99,-3.99,-3.99,-3.99,-3.99,-3.99,-3.99,-3.99,-3.99,-3.99,-3.99,-3.99,-3.99,-3.99,-3.99,-3.99,-3.99,-3.99,-3.99,-3.99,-3.99,-3.99,-3.99,-3.99,-3.99,-3.99,-3.99,-3.99,-3.99,-3.99,-3.99,-3.99,-3.99,-3.99,-3.99,-3.99,-3.99,-3.99,-3.99,-3.99,-3.99,-3.9969,-4.0,-3.9998,-4.0283,-4.0407,-4.0334,-3.9753,-3.9011,-3.8135,-3.727,-3.6439,-3.5704,-3.5704,-3.5704,-3.5704,-3.5704,-3.5704,-3.5704,-4.2901,-4.2901,-4.2901,-4.2901,-4.2901,-4.2901,-4.2901,-4.2901,-4.2901,-4.2901,-4.2901,-4.2901,-4.2901,-4.2901,-4.2901,-4.2901,-4.2901,-4.2901,-4.2901,-4.2901,-4.2901,-4.2901,-4.2901,-4.2901,-4.2901,-4.2901,-4.2901,-4.2901,-4.2901,-4.2901,-4.2901,-4.2901,-4.2901,-4.2901,-4.2901,-4.2901,-4.292,-4.3142,-4.3231,-4.3248,-4.349,-4.359,-4.3623,-4.3955,-4.3735,-4.3284,-4.3623,-4.2508,-4.0836,-4.0583,-3.9641,-3.855,-3.8508,-3.8541,-3.8718,-3.9331,-3.9623,-3.9792,-3.9878,-3.99,-3.99,-3.99,-3.99,-3.99,-3.99,-3.99,-3.99,-3.99,-3.99,-3.99,-3.99,-3.99,-3.99,-3.99,-3.99,-3.99,-3.99,-3.99,-3.99,-3.99,-3.99,-3.99,-3.99,-3.99,-3.99,-3.99,-3.99,-3.99,-3.99,-3.99,-3.99,-3.99,-3.99,-3.99,-3.99,-3.99,-3.99,-3.99,-3.9979,-3.9998,-3.9911,-4.0266,-4.0249,-3.9895,-3.9328,-3.8605,-3.7729,-3.6864,-3.6207,-3.5704,-3.5704,-3.5704,-3.5704,-3.5704,-3.5704,-3.5704,-4.2901,-4.2901,-4.2901,-4.2901,-4.2901,-4.2901,-4.2901,-4.2901,-4.2901,-4.2901,-4.2901,-4.2901,-4.2901,-4.2901,-4.2901,-4.2901,-4.2901,-4.2901,-4.2901,-4.2901,-4.2901,-4.2901,-4.2901,-4.2901,-4.2901,-4.2901,-4.2901,-4.2901,-4.2901,-4.2901,-4.2901,-4.2901,-4.2901,-4.2901,-4.2901,-4.2901,-4.2901,-4.2901,-4.2901,-4.2901,-4.2901,-4.2901,-4.2939,-4.3266,-4.3195,-4.2939,-4.3266,-4.2667,-4.1578,-4.0764,-4.0021,-3.926,-3.8462,-3.8385,-3.8718,-3.9318,-3.9502,-3.9563,-3.9834,-3.99,-3.99,-3.99,-3.99,-3.99,-3.99,-3.99,-3.99,-3.99,-3.99,-3.99,-3.99,-3.99,-3.99,-3.99,-3.99,-3.99,-3.99,-3.99,-3.99,-3.99,-3.99,-3.99,-3.99,-3.99,-3.99,-3.99,-3.99,-3.99,-3.99,-3.99,-3.99,-3.99,-3.99,-3.99,-3.99,-3.99,-3.99,-3.99,-3.99,-3.99,-3.9911,-4.0167,-3.9851,-3.9065,-3.8446,-3.769,-3.6845,-3.6033,-3.5704,-3.5704,-3.5704,-3.5704,-3.5704,-3.5704,-3.5704,-3.5704,-4.2901,-4.2901,-4.2901,-4.2901,-4.2901,-4.2901,-4.2901,-4.2901,-4.2901,-4.2901,-4.2901,-4.2901,-4.2901,-4.2901,-4.2901,-4.2901,-4.2901,-4.2901,-4.2901,-4.2901,-4.2901,-4.2901,-4.2901,-4.2901,-4.2901,-4.2901,-4.2901,-4.2901,-4.2901,-4.2901,-4.2901,-4.2901,-4.2901,-4.2901,-4.2901,-4.2901,-4.2901,-4.2901,-4.2901,-4.2901,-4.2901,-4.2901,-4.2939,-4.3266,-4.3195,-4.2939,-4.3266,-4.2667,-4.1578,-4.0764,-4.0021,-3.926,-3.8462,-3.8385,-3.8673,-3.904,-3.9313,-3.9563,-3.9834,-3.99,-3.99,-3.99,-3.99,-3.99,-3.99,-3.99,-3.99,-3.99,-3.99,-3.99,-3.99,-3.99,-3.99,-3.99,-3.99,-3.99,-3.99,-3.99,-3.99,-3.99,-3.99,-3.99,-3.99,-3.99,-3.99,-3.99,-3.99,-3.99,-3.99,-3.99,-3.99,-3.99,-3.99,-3.99,-3.99,-3.99,-3.99,-3.99,-3.99,-3.99,-3.9892,-3.9509,-3.9202,-3.8897,-3.7625,-3.6972,-3.6768,-3.5919,-3.5614,-3.5704,-3.5704,-3.5704,-3.5704,-3.5704,-3.5704,-3.5704,-4.2901,-4.2901,-4.2901,-4.2901,-4.2901,-4.2901,-4.2901,-4.2901,-4.2901,-4.2901,-4.2901,-4.2901,-4.2901,-4.2901,-4.2901,-4.2901,-4.2901,-4.2901,-4.2901,-4.2901,-4.2901,-4.2901,-4.2901,-4.2901,-4.2901,-4.2901,-4.2901,-4.2901,-4.2901,-4.2901,-4.2901,-4.2901,-4.2901,-4.2901,-4.2901,-4.2901,-4.2901,-4.2901,-4.2901,-4.2901,-4.2901,-4.2901,-4.292,-4.3142,-4.3087,-4.292,-4.3123,-4.2759,-4.2013,-4.0872,-3.9804,-3.8826,-3.8354,-3.8305,-3.8494,-3.8759,-3.9054,-3.9364,-3.9658,-3.9815,-3.99,-3.99,-3.99,-3.99,-3.99,-3.99,-3.99,-3.99,-3.99,-3.99,-3.99,-3.99,-3.99,-3.99,-3.99,-3.99,-3.99,-3.99,-3.99,-3.99,-3.99,-3.99,-3.99,-3.99,-3.99,-3.99,-3.99,-3.99,-3.99,-3.99,-3.99,-3.99,-3.99,-3.99,-3.99,-3.9578,-3.9578,-3.99,-3.9578,-3.9437,-3.9399,-3.8699,-3.8213,-3.786,-3.6982,-3.6471,-3.6241,-3.5721,-3.5584,-3.5704,-3.5704,-3.5704,-3.5704,-3.5704,-3.5704,-3.5704,-4.2901,-4.2901,-4.2901,-4.2901,-4.2901,-4.2901,-4.2901,-4.2901,-4.2901,-4.2901,-4.2901,-4.2901,-4.2901,-4.2901,-4.2901,-4.2901,-4.2901,-4.2901,-4.2901,-4.2901,-4.2901,-4.2901,-4.2901,-4.2901,-4.2901,-4.2901,-4.2901,-4.2901,-4.2901,-4.2901,-4.2901,-4.2901,-4.2901,-4.2901,-4.2901,-4.2901,-4.2901,-4.2901,-4.2901,-4.2901,-4.2901,-4.2901,-4.2901,-4.2901,-4.2901,-4.2901,-4.2901,-4.2901,-4.2647,-4.1053,-3.9514,-3.8299,-3.8227,-3.8209,-3.8257,-3.8525,-3.8774,-3.9036,-3.9408,-3.967,-3.9878,-3.9889,-3.99,-3.99,-3.99,-3.99,-3.99,-3.99,-3.99,-3.99,-3.99,-3.99,-3.99,-3.99,-3.99,-3.99,-3.99,-3.99,-3.99,-3.99,-3.99,-3.99,-3.99,-3.99,-3.99,-3.99,-3.99,-3.99,-3.99,-3.99,-3.99,-3.99,-3.9748,-3.9711,-3.9786,-3.8982,-3.8982,-3.9786,-3.8963,-3.8576,-3.8567,-3.7814,-3.707,-3.6384,-3.6433,-3.6077,-3.5463,-3.5463,-3.554,-3.5662,-3.5673,-3.5673,-3.5679,-3.5704,-3.5704,-3.5704,-4.2901,-4.2901,-4.2901,-4.2901,-4.2901,-4.2901,-4.2901,-4.2901,-4.2901,-4.2901,-4.2901,-4.2901,-4.2901,-4.2901,-4.2901,-4.2901,-4.2901,-4.2901,-4.2901,-4.2901,-4.2901,-4.2901,-4.2901,-4.2901,-4.2901,-4.2901,-4.2901,-4.2901,-4.2901,-4.2901,-4.2901,-4.2901,-4.2901,-4.2901,-4.2901,-4.2901,-4.2901,-4.2901,-4.2901,-4.2901,-4.2901,-4.2901,-4.2901,-4.2901,-4.2901,-4.2901,-4.2901,-4.2901,-4.2647,-4.1053,-3.9894,-3.9025,-3.8408,-3.8209,-3.8257,-3.8525,-3.8646,-3.8822,-3.9357,-3.9551,-3.9635,-3.9856,-3.99,-3.99,-3.99,-3.99,-3.99,-3.99,-3.99,-3.99,-3.99,-3.99,-3.99,-3.99,-3.99,-3.99,-3.99,-3.99,-3.99,-3.99,-3.99,-3.99,-3.99,-3.99,-3.99,-3.99,-3.99,-3.99,-3.99,-3.99,-3.99,-3.99,-3.8618,-3.8269,-3.8955,-3.8121,-3.8121,-3.8955,-3.8102,-3.7685,-3.7666,-3.6862,-3.6407,-3.6217,-3.5552,-3.5242,-3.5187,-3.5187,-3.5266,-3.5395,-3.5509,-3.554,-3.5553,-3.5662,-3.5704,-3.5704,-4.2882,-4.2901,-4.2901,-4.2901,-4.2901,-4.2901,-4.2901,-4.2901,-4.2901,-4.2901,-4.2901,-4.2901,-4.2901,-4.2901,-4.2901,-4.2901,-4.2901,-4.2901,-4.2901,-4.2901,-4.2901,-4.2901,-4.2901,-4.2901,-4.2901,-4.2862,-4.2862,-4.2901,-4.2901,-4.2901,-4.2901,-4.2901,-4.2901,-4.2901,-4.2901,-4.2901,-4.2901,-4.2901,-4.2901,-4.2901,-4.2901,-4.2901,-4.2901,-4.2901,-4.2901,-4.2901,-4.2901,-4.2647,-4.214,-4.0908,-4.0021,-3.926,-3.8462,-3.8209,-3.8242,-3.837,-3.8494,-3.8676,-3.8975,-3.9168,-3.9338,-3.9635,-3.9712,-3.9747,-3.9878,-3.99,-3.99,-3.99,-3.99,-3.99,-3.99,-3.99,-3.99,-3.99,-3.99,-3.99,-3.99,-3.99,-3.99,-3.99,-3.99,-3.99,-3.99,-3.99,-3.99,-3.99,-3.99,-3.9892,-3.9905,-3.9905,-3.9534,-3.8736,-3.7862,-3.7616,-3.8083,-3.7249,-3.7059,-3.7495,-3.7059,-3.6832,-3.6813,-3.595,-3.5571,-3.5552,-3.5097,-3.4973,-3.5105,-3.5105,-3.5179,-3.5315,-3.5381,-3.5409,-3.5423,-3.5566,-3.5651,-3.5704,-4.2843,-4.2881,-4.2881,-4.2881,-4.2882,-4.2901,-4.2901,-4.2901,-4.2901,-4.2901,-4.2901,-4.29,-4.2881,-4.2862,-4.2862,-4.2862,-4.2881,-4.2881,-4.2844,-4.2881,-4.2881,-4.2844,-4.2862,-4.2862,-4.2862,-4.2785,-4.2804,-4.2881,-4.2862,-4.2862,-4.2881,-4.2881,-4.29,-4.2901,-4.29,-4.29,-4.2901,-4.29,-4.29,-4.2901,-4.2901,-4.2882,-4.2881,-4.29,-4.2882,-4.2881,-4.29,-4.2466,-4.1759,-4.0818,-4.0093,-3.9423,-3.8499,-3.8209,-3.8209,-3.8209,-3.837,-3.8541,-3.8585,-3.8759,-3.9013,-3.9326,-3.9458,-3.9563,-3.9781,-3.9867,-3.99,-3.99,-3.99,-3.99,-3.99,-3.99,-3.99,-3.99,-3.99,-3.99,-3.99,-3.99,-3.99,-3.99,-3.99,-3.9843,-3.9711,-3.9816,-3.9903,-3.9903,-3.9903,-3.9897,-3.9901,-3.9368,-3.8416,-3.701,-3.6963,-3.7049,-3.7192,-3.6396,-3.5979,-3.5979,-3.5979,-3.5979,-3.595,-3.523,-3.4908,-3.4908,-3.4908,-3.4954,-3.507,-3.507,-3.513,-3.5227,-3.5251,-3.5278,-3.5274,-3.5416,-3.5547,-3.5662,-4.2649,-4.2727,-4.2822,-4.2822,-4.2862,-4.2901,-4.2901,-4.2901,-4.2901,-4.2901,-4.2901,-4.2881,-4.2822,-4.2707,-4.2649,-4.2649,-4.2764,-4.2746,-4.2649,-4.2746,-4.2746,-4.2649,-4.2649,-4.2649,-4.2649,-4.2629,-4.2688,-4.2822,-4.2688,-4.2707,-4.2822,-4.2822,-4.2842,-4.29,-4.2842,-4.2842,-4.29,-4.2842,-4.2842,-4.2901,-4.2901,-4.288,-4.2822,-4.2881,-4.2862,-4.2822,-4.2881,-4.2828,-4.2502,-4.1017,-4.042,-4.0111,-3.8645,-3.8209,-3.8209,-3.8209,-3.8242,-3.8305,-3.8541,-3.8631,-3.8718,-3.8999,-3.9287,-3.9514,-3.9551,-3.9735,-3.99,-3.99,-3.99,-3.99,-3.99,-3.99,-3.99,-3.99,-3.99,-3.99,-3.99,-3.99,-3.99,-3.99,-3.99,-3.9635,-3.8936,-3.948,-3.9901,-3.9905,-3.9905,-3.9905,-3.9896,-3.7143,-3.5471,-3.5263,-3.5247,-3.5608,-3.6358,-3.5514,-3.5078,-3.5078,-3.5078,-3.5078,-3.5078,-3.4946,-3.4908,-3.4908,-3.4908,-3.4898,-3.4936,-3.4936,-3.4926,-3.4963,-3.5079,-3.513,-3.5147,-3.5274,-3.5409,-3.5528,-4.2589,-4.2649,-4.2688,-4.2688,-4.2707,-4.2728,-4.2728,-4.2728,-4.2728,-4.2728,-4.2728,-4.2709,-4.2688,-4.2629,-4.2609,-4.2609,-4.2649,-4.2668,-4.2609,-4.2649,-4.2649,-4.2609,-4.2609,-4.2609,-4.2609,-4.2568,-4.2566,-4.2625,-4.2607,-4.2629,-4.2688,-4.2764,-4.2783,-4.2728,-4.2783,-4.2765,-4.2728,-4.2707,-4.2707,-4.2728,-4.2728,-4.2709,-4.2688,-4.2709,-4.2765,-4.2803,-4.2881,-4.2901,-4.2719,-4.156,-4.0872,-4.0311,-3.9206,-3.8571,-3.8209,-3.8209,-3.8209,-3.8242,-3.8354,-3.8387,-3.843,-3.8718,-3.889,-3.9091,-3.9421,-3.9599,-3.9724,-3.9878,-3.99,-3.99,-3.99,-3.99,-3.99,-3.99,-3.99,-3.99,-3.99,-3.9513,-3.9058,-3.8565,-3.8509,-3.85,-3.8483,-3.8788,-3.9247,-3.9849,-3.9906,-3.9077,-3.7212,-3.5702,-3.4896,-3.4897,-3.4907,-3.5078,-3.5476,-3.5097,-3.4908,-3.4908,-3.4908,-3.4908,-3.4908,-3.4908,-3.4908,-3.4908,-3.4908,-3.4908,-3.4908,-3.4908,-3.4908,-3.4917,-3.4963,-3.5035,-3.5105,-3.5163,-3.5266,-3.5402]},{"header":{"parameterUnit":"m.s-1","parameterCategory":1,"la1":30.6,"la2":28.766,"lo1":-90.7593,"lo2":-88.6598,"dx":0.0162,"dy":0.0183,"nx":116,"ny":114,"refTime":"2022-12-07T18:00:00:Z","depth":0,"parameterNumber":3,"parameterNumberName":"V-component_of_WINDS"},"data":[0.0,0.0,0.0,0.0,0.0,0.0,0.0,0.0,0.0,0.0,0.0,0.0,0.0,0.0,0.0,0.0,0.0,0.0,0.0,0.0,0.0,0.0,0.0,0.0,0.0,0.0,0.0,0.0,0.0,0.0,0.0,0.0,0.0,0.0,0.0,0.0,0.0,0.0,0.0,0.0,0.0,0.0,0.0,0.0,0.0,0.0,0.0,0.0,0.0,0.0,0.0,0.0,0.0,0.0,0.0,0.0,0.0,0.0,0.0,0.0,0.0,0.0,0.0,0.0,0.0,0.0,0.0,0.0,0.0,0.0,0.0,0.0,0.0,0.0,0.0,0.0,0.0,0.0,0.0,0.0,0.0,0.0,0.0,0.0,0.0,0.0,0.0,0.0,0.0,0.0,0.0,0.0,0.0,0.0,0.0,0.0,0.0,0.0,0.0,0.0,0.0,0.0,0.0,0.0,0.0,0.0,0.0,0.0,0.0,0.0,0.0,0.0,0.0,0.0,0.0,0.0,0.0,0.0,0.0,0.0,0.0,0.0,0.0,0.0,0.0,0.0,0.0,0.0,0.0,0.0,0.0,0.0,0.0,0.0,0.0,0.0,0.0,0.0,0.0,0.0,0.0,0.0,0.0,0.0,0.0,0.0,0.0,0.0,0.0,0.0,0.0,0.0,0.0,0.0,0.0,0.0,0.0,0.0,0.0,0.0,0.0,0.0,0.0,0.0,0.0,0.0,0.0,0.0,0.0,0.0,0.0,0.0,0.0,0.0,0.0,0.0,0.0,0.0,0.0,0.0,0.0,0.0,0.0,0.0,0.0,0.0,0.0,0.0,0.0,0.0,0.0,0.0,0.0,0.0,0.0,0.0,0.0,0.0,0.0,0.0,0.0,0.0,0.0,0.0,0.0,0.0,0.0,0.0,0.0,0.0,0.0,0.0,0.0,0.0,0.0,0.0,0.0,0.0,0.0,0.0,0.0,0.0,0.0,0.0,0.0,0.0,0.0,0.0,0.0,0.0,0.0,0.0,0.0,0.0,0.0,0.0,0.0,0.0,0.0,0.0,0.0,0.0,0.0,0.0,0.0,0.0,0.0,0.0,0.0,0.0,0.0,0.0,0.0,0.0,0.0,0.0,0.0,0.0,0.0,0.0,0.0,0.0,0.0,0.0,0.0,0.0,0.0,0.0,0.0,0.0,0.0,0.0,0.0,0.0,0.0,0.0,0.0,0.0,0.0,0.0,0.0,0.0,0.0,0.0,0.0,0.0,0.0,0.0,0.0,0.0,0.0,0.0,0.0,0.0,0.0,0.0,0.0,0.0,0.0,0.0,0.0,0.0,0.0,0.0,0.0,0.0,0.0,0.0,0.0,0.0,0.0,0.0,0.0,0.0,0.0,0.0,0.0,0.0,0.0,0.0,0.0,0.0,0.0,0.0,0.0,0.0,0.0,0.0,0.0,0.0,0.0,0.0,0.0,0.0,0.0,0.0,0.0,0.0,0.0,0.0,0.0,0.0,0.0,0.0,0.0,0.0,0.0,0.0,0.0,0.0,0.0,0.0,0.0,0.0,0.0,0.0,0.0,0.0,0.0,0.0,0.0,0.0,0.0,0.0,0.0,0.0,0.0,0.0,0.0,0.0,0.0,0.0,0.0,0.0,0.0,0.0,0.0,0.0,0.0,0.0,0.0,0.0,0.0,0.0,0.0,0.0,0.0,0.0,0.0,0.0,0.0,0.0,0.0,0.0,0.0,0.0,0.0,0.0,0.0,0.0,0.0,0.0,0.0,0.0,0.0,0.0,0.0,0.0,0.0,0.0,0.0,0.0,0.0,0.0,0.0,0.0,0.0,0.0,0.0,0.0,0.0,0.0,0.0,0.0,0.0,0.0,0.0,0.0,0.0,0.0,0.0,0.0,0.0,0.0,0.0,0.0,0.0,0.0,0.0,0.0,0.0,0.0,0.0,0.0,0.0,0.0,0.0,0.0,0.0,0.0,0.0,0.0,0.0,0.0,0.0,0.0,0.0,0.0,0.0,0.0,0.0,0.0,0.0,0.0,0.0,0.0,0.0,0.0,0.0,0.0,0.0,0.0,0.0,0.0,0.0,0.0,0.0,0.0,0.0,0.0,0.0,0.0,0.0,0.0,0.0,0.0,0.0,0.0,0.0,0.0,0.0,0.0,0.0,0.0,0.0,0.0,0.0,0.0,0.0,0.0,0.0,0.0,0.0,0.0,0.0,0.0,0.0,0.0,0.0,0.0,0.0,0.0,0.0,0.0,0.0,0.0,0.0,0.0,0.0,0.0,0.0,0.0,0.0,0.0,0.0,0.0,0.0,0.0,0.0,0.0,0.0,0.0,0.0,0.0,0.0,0.0,0.0,0.0,0.0,0.0,0.0,0.0,0.0,0.0,0.0,0.0,0.0,0.0,0.0,0.0,0.0,0.0,0.0,0.0,0.0,0.0,0.0,0.0,0.0,0.0,0.0,0.0,0.0,0.0,0.0,0.0,0.0,0.0,0.0,0.0,0.0,0.0,0.0,0.0,0.0,0.0,0.0,0.0,0.0,0.0,0.0,0.0,0.0,0.0,0.0,0.0,0.0,0.0,0.0,0.0,0.0,0.0,0.0,0.0,0.0,0.0,0.0,0.0,0.0,0.0,0.0,0.0,0.0,0.0,0.0,0.0,0.0,0.0,0.0,0.0,0.0,0.0,0.0,0.0,0.0,0.0,0.0,0.0,0.0,0.0,0.0,0.0,0.0,0.0,0.0,0.0,0.0,0.0,0.0,0.0,0.0,0.0,0.0,0.0,0.0,0.0,0.0,0.0,0.0,0.0,0.0,0.0,0.0,0.0,0.0,0.0,0.0,0.0,0.0,0.0,0.0,0.0,0.0,0.0,0.0,0.0,0.0,0.0,0.0,0.0,0.0,0.0,0.0,0.0,0.0,0.0,0.0,0.0,0.0,0.0,0.0,0.0,0.0,0.0,0.0,0.0,0.0,0.0,0.0,0.0,0.0,0.0,0.0,0.0,0.0,0.0,0.0,0.0,0.0,0.0,0.0,0.0,0.0,0.0,0.0,0.0,0.0,0.0,0.0,0.0,0.0,0.0,0.0,0.0,0.0,0.0,0.0,0.0,0.0,0.0,0.0,0.0,0.0,0.0,0.0,0.0,0.0,0.0,0.0,0.0,0.0,0.0,0.0,0.0,0.0,0.0,0.0,0.0,0.0,0.0,0.0,0.0,0.0,0.0,0.0,0.0,0.0,0.0,0.0,0.0,0.0,0.0,0.0,0.0,0.0,0.0,0.0,0.0,0.0,0.0,0.0,0.0,0.0,0.0,0.0,0.0,0.0,0.0,0.0,0.0,0.0,0.0,0.0,0.0,0.0,0.0,0.0,0.0,0.0,0.0,0.0,0.0,0.0,0.0,0.0,0.0,0.0,0.0,0.0,0.0,0.0,0.0,0.0,0.0,0.0,0.0,0.0,0.0,0.0,0.0,0.0,0.0,0.0,0.0,0.0,0.0,0.0,0.0,0.0,0.0,0.0,0.0,0.0,0.0,0.0,0.0,0.0,0.0,0.0,0.0,0.0,0.0,0.0,0.0,0.0,0.0,0.0,0.0,0.0,0.0,0.0,0.0,0.0,0.0,0.0,0.0,0.0,0.0,0.0,0.0,0.0,0.0,0.0,0.0,0.0,0.0,0.0,0.0,0.0,0.0,0.0,0.0,0.0,0.0,0.0,0.0,0.0,0.0,0.0,0.0,0.0,0.0,0.0,0.0,0.0,0.0,0.0,0.0,0.0,0.0,0.0,0.0,0.0,0.0,0.0,0.0,0.0,0.0,0.0,0.0,0.0,0.0,0.0,0.0,0.0,0.0,0.0,0.0,0.0,0.0,0.0,0.0,0.0,0.0,0.0,0.0,0.0,0.0,0.0,0.0,0.0,0.0,0.0,0.0,0.0,0.0,0.0,0.0,0.0,0.0,0.0,0.0,0.0,0.0,0.0,0.0,0.0,0.0,0.0,0.0,0.0,0.0,0.0,0.0,0.0,0.0,0.0,0.0,0.0,0.0,0.0,0.0,0.0,0.0,0.0,0.0,0.0,0.0,0.0,0.0,0.0,0.0,0.0,0.0,0.0,0.0,0.0,0.0,0.0,0.0,0.0,0.0,0.0,0.0,0.0,0.0,0.0,0.0,0.0,0.0,0.0,0.0,0.0,0.0,0.0,0.0,0.0,0.0,0.0,0.0,0.0,0.0,0.0,0.0,0.0,0.0,0.0,0.0,0.0,0.0,0.0,0.0,0.0,0.0,0.0,0.0,0.0,0.0,0.0,0.0,0.0,0.0,0.0,0.0,0.0,0.0,0.0,0.0,0.0,0.0,0.0,0.0,0.0,0.0,0.0,0.0,0.0,0.0,0.0,0.0,0.0,0.0,0.0,0.0,0.0,0.0,0.0,0.0,0.0,0.0,0.0,0.0,0.0,0.0,0.0,0.0,0.0,0.0,0.0,0.0,0.0,0.0,0.0,0.0,0.0,0.0,0.0,0.0,0.0,0.0,0.0,0.0,0.0,0.0,0.0,0.0,0.0,0.0,0.0,0.0,0.0,0.0,0.0,0.0,0.0,0.0,0.0,0.0,0.0,0.0,0.0,0.0,0.0,0.0,0.0,0.0,0.0,0.0,0.0,0.0,0.0,0.0,0.0,0.0,0.0,0.0,0.0,0.0,0.0,0.0,0.0,0.0,0.0,0.0,0.0,0.0,0.0,0.0,0.0,0.0,0.0,0.0,0.0,0.0,0.0,0.0,0.0,0.0,0.0,0.0,0.0,0.0,0.0,0.0,0.0,0.0,0.0,0.0,0.0,0.0,0.0,0.0,0.0,0.0,0.0,0.0,0.0,0.0,0.0,0.0,0.0,0.0,0.0,0.0,0.0,0.0,0.0,0.0,0.0,0.0,0.0,0.0,0.0,0.0,0.0,0.0,0.0,0.0,0.0,0.0,0.0,0.0,0.0,0.0,0.0,0.0,0.0,0.0,0.0,0.0,0.0,0.0,0.0,0.0,0.0,0.0,0.0,0.0,0.0,0.0,0.0,0.0,0.0,0.0,0.0,0.0,0.0,0.0,0.0,0.0,0.0,0.0,0.0,0.0,0.0,0.0,0.0,0.0,0.0,0.0,0.0,0.0,0.0,0.0,0.0,0.0,0.0,0.0,0.0,0.0,0.0,0.0,0.0,0.0,0.0,0.0,0.0,0.0,0.0,0.0,0.0,0.0,0.0,0.0,0.0,0.0,0.0,0.0,0.0,0.0,0.0,0.0,0.0,0.0,0.0,0.0,0.0,0.0,0.0,0.0,0.0,0.0,0.0,0.0,0.0,0.0,0.0,0.0,0.0,0.0,0.0,0.0,0.0,0.0,0.0,0.0,0.0,0.0,0.0,0.0,0.0,0.0,0.0,0.0,0.0,0.0,0.0,0.0,0.0,0.0,0.0,0.0,0.0,0.0,0.0,0.0,0.0,0.0,0.0,0.0,0.0,0.0,0.0,0.0,0.0,0.0,0.0,0.0,0.0,0.0,0.0,0.0,0.0,0.0,0.0,0.0,0.0,0.0,0.0,0.0,0.0,0.0,0.0,0.0,0.0,0.0,0.0,0.0,0.0,0.0,0.0,0.0,0.0,0.0,0.0,0.0,0.0,0.0,0.0,0.0,0.0,0.0,0.0,0.0,0.0,0.0,0.0,0.0,0.0,0.0,0.0,0.0,0.0,0.0,0.0,0.0,0.0,0.0,0.0,0.0,0.0,0.0,0.0,0.0,0.0,0.0,0.0,0.0,0.0,0.0,0.0,0.0,0.0,0.0,0.0,0.0,0.0,0.0,0.0,0.0,0.0,0.0,0.0,0.0,0.0,0.0,0.0,0.0,0.0,0.0,0.0,0.0,0.0,0.0,0.0,0.0,0.0,0.0,0.0,0.0,0.0,0.0,0.0,0.0,0.0,0.0,0.0,0.0,0.0,0.0,0.0,0.0,0.0,0.0,0.0,0.0,0.0,0.0,0.0,0.0,0.0,0.0,0.0,0.0,0.0,0.0,0.0,0.0,0.0,0.0,-0.775,-0.7303,0.0,0.0,0.0,0.0,0.0,0.0,0.0,0.0,0.0,0.0,0.0,0.0,0.0,0.0,0.0,0.0,0.0,0.0,0.0,0.0,0.0,0.0,0.0,-0.1365,-0.14,-0.1534,-0.1476,0.0,0.0,0.0,0.0,0.0,0.0,0.0,0.0,0.0,-0.1738,-0.2027,-0.2128,-0.242,-0.2865,-0.2515,-0.2141,-0.1759,0.0,0.0,0.0,0.0,0.0,0.0,0.0,0.0,0.0,0.0,0.0,0.0,0.0,0.0,0.0,0.0,0.0,0.0,0.0,0.0,0.0,0.0,0.0,0.0,0.0,0.0,0.0,0.0,0.0,0.0,0.0,0.0,0.0,0.0,0.0,0.0,0.0,0.0,0.0,0.0,0.0,0.0,0.0,0.0,0.0,0.0,0.0,0.0,0.0,0.0,0.0,0.0,0.0,0.0,0.0,0.0,0.0,0.0,0.0,0.0,0.0,0.0,0.0,0.0,0.0,0.0,0.0,0.0,0.0,0.0,-0.878,-0.8162,0.0,0.0,0.0,0.0,0.0,0.0,0.0,0.0,0.0,0.0,0.0,0.0,0.0,0.0,0.0,0.0,0.0,0.0,0.0,0.0,0.0,-0.1407,-0.1428,-0.1488,-0.1619,-0.187,-0.1869,-0.1913,-0.2079,-0.2057,0.0,0.0,0.0,0.0,-0.1851,-0.1903,-0.2156,-0.2621,-0.2949,-0.3312,-0.3701,-0.3815,-0.3613,-0.3104,-0.2789,0.0,0.0,0.0,0.0,0.0,0.0,0.0,0.0,0.0,0.0,0.0,0.0,0.0,0.0,0.0,0.0,0.0,0.0,0.0,0.0,0.0,0.0,0.0,0.0,0.0,0.0,0.0,0.0,0.0,0.0,0.0,0.0,0.0,0.0,0.0,0.0,0.0,0.0,0.0,0.0,0.0,0.0,0.0,0.0,0.0,0.0,0.0,0.0,0.0,0.0,0.0,0.0,0.0,0.0,0.0,0.0,0.0,0.0,0.0,0.0,0.0,0.0,0.0,-0.9541,-0.9782,-0.9804,-1.0404,-1.0667,-1.0557,-0.9724,-0.9029,-0.8534,-0.8887,0.0,0.0,0.0,0.0,0.0,0.0,0.0,0.0,0.0,0.0,0.0,0.0,0.0,0.0,0.0,0.0,0.0,0.0,0.0,-0.1439,-0.1557,-0.1837,-0.2069,-0.222,-0.2128,-0.2169,-0.2423,-0.2061,0.0,0.0,0.0,-0.2067,-0.2066,-0.2293,-0.2643,-0.3112,-0.3945,-0.4396,-0.446,-0.512,-0.5183,-0.4733,-0.3738,-0.311,-0.2808,0.0,0.0,0.0,0.0,0.0,0.0,0.0,0.0,0.0,0.0,0.0,0.0,0.0,0.0,0.0,0.0,0.0,0.0,0.0,0.0,0.0,0.0,0.0,0.0,0.0,0.0,0.0,0.0,0.0,0.0,0.0,0.0,0.0,0.0,0.0,0.0,0.0,0.0,0.0,0.0,0.0,-0.4571,-0.4877,0.0,0.0,0.0,0.0,0.0,0.0,0.0,0.0,0.0,0.0,0.0,0.0,0.0,-0.886,-0.9333,-0.9446,-0.9775,-1.0338,-1.0419,-1.0455,-1.047,-1.0872,-1.0887,-1.0623,-1.0762,0.0,-0.9753,-0.9588,0.0,0.0,0.0,0.0,0.0,0.0,0.0,0.0,0.0,0.0,0.0,0.0,0.0,0.0,0.0,0.0,0.0,0.0,0.0,0.0,0.0,-0.2194,-0.2498,-0.294,-0.2675,-0.2714,-0.3257,-0.2953,0.0,0.0,-0.273,-0.2722,-0.2717,-0.2829,-0.3252,-0.3986,-0.4916,-0.5387,-0.5392,-0.5871,-0.6009,-0.5803,-0.5314,-0.4524,-0.3543,-0.3306,0.0,0.0,0.0,0.0,0.0,0.0,0.0,0.0,0.0,0.0,0.0,0.0,0.0,0.0,0.0,0.0,0.0,0.0,0.0,0.0,0.0,0.0,0.0,0.0,0.0,0.0,0.0,0.0,0.0,0.0,0.0,0.0,0.0,0.0,0.0,0.0,0.0,0.0,0.0,-0.4727,-0.5141,-0.5513,-0.5647,-0.5869,0.0,0.0,0.0,0.0,0.0,0.0,0.0,0.0,0.0,-0.8609,-0.9361,-0.9838,-1.0002,-1.0292,-1.0667,-1.1166,-1.1319,-1.1399,-1.1414,-1.1743,-1.1809,-1.167,-1.1633,-1.1431,-1.1078,-1.0582,-1.0522,-1.068,0.0,0.0,0.0,0.0,-0.9628,-0.9628,0.0,0.0,0.0,0.0,0.0,0.0,0.0,0.0,0.0,0.0,0.0,0.0,-0.2237,-0.2568,-0.2995,-0.3508,-0.3332,-0.3411,-0.3967,-0.3698,-0.3532,-0.3532,-0.3379,-0.3332,-0.3374,-0.3609,-0.4129,-0.4954,-0.5772,-0.621,-0.6299,-0.6546,-0.6697,-0.6751,-0.6692,-0.5846,-0.4484,-0.4078,-0.3651,-0.3178,0.0,0.0,0.0,0.0,0.0,0.0,0.0,0.0,0.0,0.0,0.0,0.0,0.0,0.0,0.0,0.0,0.0,0.0,0.0,0.0,0.0,0.0,0.0,0.0,0.0,0.0,0.0,0.0,0.0,0.0,0.0,0.0,0.0,0.0,0.0,0.0,0.0,-0.534,-0.5626,-0.6044,-0.6141,-0.6464,0.0,0.0,0.0,0.0,0.0,0.0,-0.877,-0.9425,-0.9608,-0.9262,-1.0286,-1.0811,-1.0729,-1.1135,-1.1487,-1.1841,-1.2043,-1.2127,-1.2135,-1.2463,-1.2565,-1.2477,-1.2317,-1.2207,-1.2094,-1.1511,-1.1343,-1.1489,-1.1293,-1.1296,-1.1404,-1.0987,-1.0841,-1.0849,0.0,0.0,0.0,0.0,0.0,0.0,0.0,0.0,0.0,0.0,0.0,-0.2026,-0.2101,-0.2977,-0.3585,-0.3683,-0.4025,-0.4242,-0.4277,-0.3846,-0.3586,-0.3586,-0.3586,-0.3667,-0.3856,-0.4734,-0.5433,-0.592,-0.643,-0.679,-0.7063,-0.7256,-0.7487,-0.772,-0.7465,-0.6812,-0.5865,-0.5266,-0.4778,-0.4341,-0.3561,0.0,0.0,0.0,0.0,0.0,0.0,0.0,0.0,0.0,0.0,0.0,0.0,0.0,0.0,0.0,0.0,0.0,0.0,0.0,0.0,0.0,0.0,0.0,0.0,0.0,0.0,0.0,0.0,0.0,0.0,0.0,0.0,0.0,0.0,0.0,0.0,0.0,0.0,-0.6347,-0.6543,0.0,0.0,0.0,0.0,-0.7691,-0.7735,-0.8124,-0.9042,-0.9844,-1.025,-1.022,-1.1088,-1.1663,-1.192,-1.1952,-1.2113,-1.2441,-1.2456,-1.2463,-1.2477,-1.2833,-1.2811,-1.2507,-1.2833,-1.2782,-1.2445,-1.2097,-1.1776,-1.1538,-1.2094,-1.2143,-1.1952,-1.2601,-1.2834,-1.2914,0.0,0.0,0.0,-0.1662,-0.161,-0.1602,-0.1743,-0.1699,-0.1754,-0.2016,-0.2289,-0.2693,-0.3312,-0.3778,-0.4352,-0.5105,-0.503,-0.5071,-0.5366,-0.4951,-0.4773,-0.4946,-0.4783,-0.4859,-0.5235,-0.5749,-0.6159,-0.6457,-0.6908,-0.7213,-0.7294,-0.7535,-0.772,-0.7795,-0.7715,-0.7374,-0.6849,-0.6206,-0.5712,-0.5263,-0.4556,-0.4144,0.0,0.0,0.0,0.0,0.0,0.0,0.0,0.0,0.0,0.0,0.0,0.0,0.0,0.0,0.0,0.0,0.0,0.0,0.0,0.0,0.0,0.0,0.0,0.0,0.0,0.0,0.0,0.0,0.0,0.0,0.0,0.0,0.0,0.0,0.0,0.0,0.0,-0.702,-0.7251,0.0,-0.7666,-0.751,-0.7801,-0.8714,-0.8907,-0.9305,-1.0091,-1.0609,-1.0732,-1.0386,-1.1185,-1.1682,-1.1866,-1.2586,-1.3243,-1.3777,-1.3777,-1.3777,-1.3777,-1.3894,-1.3887,-1.3777,-1.3894,-1.3879,-1.3792,-1.3674,-1.3174,-1.2468,-1.2468,-1.2491,-1.2496,-1.2149,-1.2118,-1.2195,0.0,0.0,0.0,-0.1736,-0.1673,-0.1693,-0.1875,-0.1849,-0.1944,-0.2317,-0.2795,-0.335,-0.4024,-0.4547,-0.5139,-0.5911,-0.5791,-0.5796,-0.6125,-0.5847,-0.5744,-0.5939,-0.576,-0.5857,-0.6226,-0.6398,-0.6639,-0.6924,-0.7239,-0.7503,-0.7658,-0.7844,-0.7962,-0.8038,-0.7957,-0.7833,-0.7616,-0.6993,-0.6488,-0.6047,-0.5455,-0.5116,-0.4914,0.0,0.0,0.0,0.0,0.0,0.0,0.0,0.0,0.0,0.0,0.0,0.0,0.0,0.0,0.0,0.0,0.0,0.0,0.0,0.0,0.0,0.0,0.0,0.0,0.0,0.0,0.0,0.0,0.0,0.0,0.0,0.0,0.0,0.0,-0.6961,-0.7327,-0.7621,-0.7822,-0.8072,-0.8393,-0.819,-0.8382,-0.9158,-0.9366,-0.9682,-1.0302,-1.0795,-1.0953,-1.067,-1.1679,-1.2234,-1.2334,-1.3327,-1.4078,-1.4511,-1.4511,-1.4511,-1.4511,-1.4511,-1.4511,-1.4511,-1.4511,-1.4511,-1.4511,-1.4511,-1.4111,-1.3467,-1.3267,-1.3198,-1.3251,-1.3002,-1.289,-1.2813,0.0,0.0,-0.1803,-0.1803,-0.1748,-0.1749,-0.1898,-0.1968,-0.2143,-0.2498,-0.3331,-0.3968,-0.415,-0.5204,-0.5912,-0.5941,-0.623,-0.6417,-0.6417,-0.6412,-0.6406,-0.6406,-0.6412,-0.6525,-0.6725,-0.6731,-0.6935,-0.7405,-0.741,-0.7704,-0.8207,-0.8218,-0.8317,-0.8506,-0.8301,-0.8218,-0.818,-0.7637,-0.7143,-0.6704,-0.6216,-0.6017,-0.5942,0.0,0.0,0.0,0.0,0.0,0.0,0.0,0.0,0.0,0.0,0.0,0.0,0.0,0.0,0.0,0.0,0.0,0.0,0.0,0.0,0.0,0.0,0.0,0.0,0.0,0.0,0.0,0.0,0.0,0.0,0.0,0.0,0.0,-0.7095,-0.7288,-0.7621,-0.8138,-0.8234,-0.8306,-0.8511,-0.8533,-0.8635,-0.8911,-0.8967,-0.9173,-0.9625,-1.041,-1.0953,-1.12,-1.2628,-1.337,-1.3384,-1.4152,-1.4526,-1.4533,-1.4533,-1.4533,-1.4533,-1.4533,-1.4533,-1.4533,-1.4533,-1.454,-1.4494,-1.4494,-1.4494,-1.4465,-1.4509,-1.4289,-1.4112,-1.5238,-1.5322,-1.4914,-0.1803,-0.1803,-0.1803,-0.1803,-0.1781,-0.1865,-0.2152,-0.2201,-0.2491,-0.3268,-0.3763,-0.4419,-0.5448,-0.5903,-0.634,-0.688,-0.7007,-0.7007,-0.6923,-0.6863,-0.6764,-0.6618,0.0,0.0,-0.7191,-0.7196,-0.7374,-0.7704,-0.7871,-0.8052,-0.8213,-0.8365,-0.8452,-0.8511,-0.8447,-0.8344,-0.8202,-0.8041,-0.7785,-0.7451,-0.6774,-0.6511,-0.6457,0.0,0.0,0.0,0.0,0.0,0.0,0.0,0.0,0.0,0.0,0.0,0.0,0.0,0.0,0.0,0.0,0.0,0.0,0.0,0.0,0.0,0.0,0.0,0.0,0.0,0.0,0.0,0.0,0.0,0.0,0.0,-0.7025,-0.7144,-0.7294,-0.7825,-0.8238,-0.8398,-0.8711,-0.8942,-0.9007,-0.9012,-0.9184,-0.9599,-1.0028,-1.047,-1.0941,-1.1184,-1.1333,-1.1403,-1.2297,-1.2868,-1.3116,-1.4233,-1.4933,-1.5167,-1.5167,-1.5167,-1.5167,-1.5167,-1.5167,-1.5167,-1.5167,-1.4866,-1.4447,-1.4447,-1.4159,-1.374,-1.4309,-1.4113,-1.3603,-1.4043,-1.3716,-1.3053,-0.1803,-0.1803,-0.1803,-0.1803,-0.1846,-0.1966,-0.222,-0.2375,-0.2778,-0.3632,-0.4298,-0.5079,-0.6162,-0.6594,-0.6987,-0.7354,-0.7392,-0.7306,-0.7112,-0.7061,-0.6985,-0.688,0.0,-0.7278,-0.7394,-0.7519,-0.7715,-0.7976,-0.8111,-0.823,-0.8338,-0.8447,-0.8517,-0.8517,-0.8517,-0.8436,-0.8328,-0.8219,-0.8101,-0.7933,-0.7386,-0.7095,-0.6956,-0.6479,-0.6296,-0.6216,-0.5626,-0.5426,-0.5372,-0.5012,0.0,0.0,0.0,0.0,0.0,0.0,0.0,0.0,0.0,0.0,0.0,0.0,0.0,0.0,0.0,0.0,0.0,0.0,0.0,0.0,0.0,0.0,0.0,0.0,-0.7488,-0.7731,-0.7846,-0.8222,-0.863,-0.8926,-0.9281,-0.9545,-0.9653,-0.975,-0.9884,-1.0158,-1.0529,-1.0892,-1.1287,-1.131,-1.132,-1.1421,-1.2363,-1.2848,-1.2756,-1.4049,-1.4648,-1.458,-1.458,-1.458,-1.458,-1.458,-1.458,-1.458,-1.458,-1.4321,-1.3977,-1.3977,-1.3773,-1.3444,0.0,0.0,0.0,0.0,-1.3181,-1.276,-0.1803,-0.1803,-0.1803,-0.1803,-0.1909,-0.2049,-0.2174,-0.2489,-0.296,-0.3695,-0.4765,-0.5725,-0.642,-0.7184,-0.7614,-0.7542,-0.7521,-0.7386,-0.7139,-0.7112,-0.7122,-0.7122,-0.731,-0.7415,-0.7503,-0.7731,-0.7982,-0.8219,-0.8219,-0.8333,-0.8517,-0.8517,-0.8517,-0.8517,-0.8517,-0.8517,-0.8501,-0.8311,-0.8219,-0.8203,-0.7966,-0.7698,-0.7383,-0.6961,-0.679,-0.6725,-0.6248,-0.6076,-0.6044,-0.5836,0.0,0.0,0.0,0.0,0.0,0.0,0.0,0.0,0.0,0.0,0.0,0.0,0.0,0.0,0.0,0.0,0.0,0.0,0.0,0.0,0.0,0.0,0.0,0.0,-0.8093,-0.8581,-0.8662,-0.8673,-0.891,-0.954,-0.9841,-1.0089,-1.0309,-1.0514,-1.0608,-1.063,-1.0635,-1.0778,-1.1009,-1.1025,0.0,0.0,0.0,-1.3009,-1.2406,-1.3675,-1.3977,-1.3398,-1.3423,-1.3442,-1.3442,-1.3474,-1.3487,-1.3487,-1.3487,-1.3444,-1.3365,-1.3365,-1.3316,-1.3267,-1.3289,-1.3307,-1.3398,-1.3222,-1.3215,-1.3239,-0.1803,-0.1803,-0.1803,-0.1803,-0.1909,-0.2049,-0.2174,-0.2489,-0.296,-0.3695,-0.4603,-0.5513,-0.6403,-0.7029,-0.7448,-0.7652,-0.7568,-0.744,-0.7257,-0.7171,-0.7171,-0.7342,-0.7367,-0.7599,-0.8036,-0.809,-0.823,-0.8447,-0.8447,-0.8468,-0.8517,-0.8517,-0.8517,-0.8517,-0.8517,-0.8517,-0.8511,-0.8463,-0.8447,-0.842,-0.8209,-0.7971,-0.7698,-0.739,-0.7261,-0.7196,-0.6747,-0.6575,-0.6538,-0.6336,-0.6056,-0.5814,-0.5814,-0.5486,0.0,0.0,0.0,0.0,0.0,0.0,0.0,0.0,0.0,0.0,0.0,0.0,0.0,0.0,0.0,0.0,0.0,0.0,0.0,-0.8269,-0.8581,-0.8996,-0.9567,-0.9611,-0.9701,-0.9836,-1.0195,-1.0474,-1.0522,-1.0571,-1.0672,-1.0902,-1.0918,-1.102,-1.1225,-1.1236,-1.1262,-1.1305,-1.2155,-1.2534,-1.2406,-1.3173,-1.3519,-1.3398,-1.3571,0.0,-1.3641,-1.3863,-1.3964,-1.3964,-1.3964,-1.3658,-1.3171,-1.3171,-1.2856,-1.2367,-1.2527,-1.2918,-1.327,-1.2118,-1.2198,-1.2747,-0.1803,-0.1803,-0.1803,-0.1803,-0.197,-0.2124,-0.2184,-0.2538,-0.3032,-0.3707,-0.436,-0.5124,-0.6083,-0.6638,-0.7061,-0.7315,-0.7308,-0.7306,-0.729,-0.7171,-0.7192,-0.7383,-0.7535,-0.779,-0.8202,-0.8301,-0.8393,-0.8517,-0.8517,-0.8517,-0.8517,-0.8517,-0.8517,-0.8517,-0.8517,-0.8517,-0.8517,-0.8517,-0.8517,-0.8506,-0.8382,-0.8264,-0.8118,-0.7734,-0.7594,-0.7551,-0.7197,-0.7041,-0.7031,-0.6821,-0.6579,-0.6355,-0.6355,-0.6114,-0.5803,0.0,0.0,0.0,0.0,0.0,0.0,0.0,0.0,0.0,0.0,0.0,0.0,0.0,0.0,-0.7338,-0.7603,0.0,-0.8441,-0.8651,-0.9087,-0.9513,-0.9873,-1.0229,-1.0406,-1.0254,-1.0595,-1.081,-1.081,-1.0882,-1.1,-1.116,-1.1165,-1.1177,-1.13,-1.1305,-1.1305,-1.1305,-1.2103,-1.2377,-1.204,-1.2867,-1.3065,-1.2756,-1.2835,-1.2894,-1.29,-1.3028,-1.3081,-1.3081,-1.3081,-1.2905,-1.2597,-1.2597,-1.2415,-1.2118,-1.2232,-1.2441,-1.2668,-1.196,-1.201,-1.2353,-0.1803,-0.1803,-0.1803,-0.1803,-0.2022,-0.2197,-0.2197,-0.2578,-0.3043,-0.3558,-0.3991,-0.4633,-0.5613,-0.615,-0.6579,-0.6974,-0.7082,-0.7171,0.0,-0.7171,-0.7214,-0.7476,-0.7698,-0.793,-0.8247,-0.8414,-0.8517,-0.8517,-0.8517,-0.8517,-0.8517,-0.8517,-0.8517,-0.8517,-0.8517,-0.8517,-0.8517,-0.8517,-0.8517,-0.8517,-0.8517,-0.8517,-0.8468,-0.8032,-0.7838,-0.7763,-0.7455,-0.7353,-0.7321,-0.7149,-0.6961,-0.6779,-0.6779,-0.6618,-0.6423,-0.6194,-0.5997,0.0,0.0,0.0,0.0,0.0,0.0,0.0,0.0,-0.6746,-0.6983,-0.7268,-0.7488,-0.7755,-0.8241,-0.856,-0.8797,-0.9068,-0.9588,-1.0024,-1.011,-1.0622,-1.0929,-1.0748,-1.0939,-1.1052,-1.1052,-1.1193,-1.1305,-1.1305,-1.1305,-1.1327,-1.137,-1.1375,-1.1396,-1.1439,-1.2186,-1.2332,-1.1768,-1.2547,-1.2643,-1.2094,-1.2143,-1.2164,-1.217,-1.2213,-1.2235,-1.2235,-1.2235,-1.2235,-1.2235,-1.2235,-1.2235,-1.2235,-1.2235,-1.2235,-1.2224,-1.2127,-1.2094,-1.2089,-0.1803,-0.1803,-0.1803,-0.1803,-0.2022,-0.2197,-0.2197,-0.2491,-0.2795,-0.2967,-0.3395,-0.4055,-0.5002,-0.5514,-0.6115,-0.6929,-0.7167,-0.723,-0.7139,-0.7112,-0.7289,-0.7742,-0.7785,-0.8011,-0.8463,-0.8501,-0.8517,-0.8517,-0.8517,-0.8517,-0.8517,-0.8517,-0.8517,-0.8517,-0.8517,-0.8517,-0.8517,-0.8517,-0.8517,-0.8517,-0.8517,-0.8517,-0.8484,-0.8241,-0.8009,-0.7742,-0.7289,-0.7128,-0.7122,-0.7117,-0.7095,-0.7047,-0.7047,-0.6886,-0.6666,-0.6639,-0.6468,-0.6309,-0.6283,-0.6256,-0.625,-0.6299,-0.6643,-0.6972,0.0,-0.7354,-0.7747,-0.8009,-0.8226,-0.8474,-0.8771,-0.9192,-0.9534,-0.9766,-1.0056,-1.0396,-1.081,-1.0934,-1.1052,-1.1203,-1.1252,-1.1268,-1.1268,-1.1289,-1.1305,-1.1305,-1.1305,-1.1396,-1.165,-1.1661,-1.1752,-1.2008,-1.2131,-1.2142,-1.2056,-1.2169,-1.2186,-1.2094,-1.2269,-1.2371,-1.2382,-1.2587,-1.2732,-1.2732,-1.2732,-1.2732,-1.2732,-1.2732,-1.2732,-1.2732,-1.2732,-1.2732,-1.2678,-1.2251,-1.2094,-1.2118,-0.1916,-0.1853,-0.1803,-0.1803,-0.2022,-0.2197,-0.2197,-0.2409,-0.2649,-0.2815,-0.2939,-0.3283,-0.3987,-0.4592,-0.5305,-0.6175,-0.6427,-0.6639,-0.6854,-0.6684,-0.6872,-0.7551,-0.7367,-0.7618,-0.8328,-0.8441,-0.8517,-0.8517,-0.8517,-0.8517,-0.8517,-0.8517,-0.8517,-0.8517,-0.8517,-0.8517,-0.8517,-0.8517,-0.8517,-0.8506,-0.8361,-0.8333,-0.829,-0.7887,-0.7653,-0.754,-0.7342,-0.7272,0.0,-0.7133,-0.7112,-0.7112,-0.7112,-0.7015,-0.6939,-0.6939,-0.6772,-0.6538,-0.6433,-0.6589,-0.6794,-0.6794,-0.7279,-0.7733,-0.7733,-0.8106,-0.8479,-0.8576,-0.8754,-0.9034,-0.941,-0.9642,-0.99,-1.0238,-1.0536,-1.0762,-1.0955,-1.1106,-1.1193,-1.1295,-1.1305,-1.1305,-1.1305,-1.1305,-1.1364,-1.1498,-1.1509,-1.1655,-1.1937,-1.1948,-1.1991,-1.2089,-1.2235,-1.2264,-1.2264,-1.2445,-1.251,-1.2516,-1.2565,-1.2619,-1.2619,-1.277,-1.2813,-1.2813,-1.2813,-1.2813,-1.2813,-1.2813,-1.2813,-1.2813,-1.2813,-1.2813,-1.2791,-1.2586,-1.251,-1.2505,-0.2059,-0.1972,-0.1909,-0.1909,-0.2063,-0.2197,-0.2197,-0.2378,-0.2548,-0.2706,-0.261,-0.2753,-0.3294,-0.3959,-0.4626,-0.5292,-0.5653,-0.6051,-0.6488,-0.6413,-0.6601,-0.7146,-0.6963,-0.7056,-0.7578,-0.775,-0.7805,-0.7805,-0.7964,-0.809,-0.8185,-0.835,-0.835,-0.822,-0.822,-0.8081,-0.7859,-0.7859,-0.7856,-0.779,-0.7649,-0.768,-0.7792,-0.7336,-0.7275,-0.7383,-0.7347,-0.7321,-0.7294,-0.7144,-0.7112,-0.7112,-0.7112,-0.7112,-0.7112,-0.7112,-0.7015,-0.687,-0.6704,-0.7026,-0.742,-0.7462,-0.7993,-0.849,-0.856,-0.8895,-0.9187,-0.9187,-0.9287,-0.9507,-0.982,-0.9976,-1.0159,-1.0528,-1.0832,-1.1004,-1.1074,-1.1193,-1.1305,-1.1305,-1.1364,-1.1402,-1.1402,-1.1402,-1.1498,-1.1779,-1.1795,-1.1898,-1.2181,-1.2197,-1.2224,-1.2289,-1.2414,-1.2511,-1.2511,-1.2678,-1.2813,-1.2813,-1.2813,-1.2813,-1.2813,-1.2813,-1.2813,-1.2813,-1.2813,-1.2813,-1.2813,-1.2813,-1.2813,-1.2813,-1.2813,-1.2813,-1.2813,-1.2813,-1.2813,-1.2813,-0.219,-0.2187,-0.2184,-0.2184,-0.219,-0.2197,-0.2197,-0.2378,-0.2494,-0.2517,-0.2447,-0.2601,-0.314,-0.3859,-0.4336,-0.4434,-0.5101,-0.5653,-0.5992,-0.6447,-0.6659,-0.6639,-0.6606,-0.645,-0.6087,-0.6065,-0.6069,-0.6069,-0.6671,-0.7077,-0.7336,-0.7939,-0.7964,-0.7521,-0.7521,-0.7049,-0.6262,-0.6262,-0.6193,-0.6069,-0.6061,-0.6422,-0.6908,-0.6716,-0.6953,-0.7362,-0.7182,-0.7122,-0.7095,-0.7112,-0.7112,-0.7112,-0.7112,-0.7112,-0.7112,-0.7112,-0.7219,-0.7373,-0.7362,-0.7758,-0.8203,-0.8414,-0.8824,-0.9238,-0.948,-0.9717,-0.989,-0.989,-0.9857,-0.9863,-0.9879,-1.0121,-1.0358,-1.0554,-1.0832,-1.1069,-1.1262,-1.13,-1.1305,-1.1305,-1.1553,-1.1688,-1.1688,-1.1688,-1.1785,-1.2067,-1.2083,-1.2191,-1.2388,-1.2404,-1.2506,-1.278,-1.2797,-1.2802,-1.2802,-1.2807,-1.2813,-1.2813,-1.2813,-1.2813,-1.2813,-1.2813,-1.2813,-1.2813,-1.2813,-1.2813,-1.2813,-1.2813,-1.2813,-1.2813,-1.2813,-1.2813,-1.2813,-1.2813,-1.2813,-1.2813,-0.2269,-0.2192,-0.2138,-0.2138,-0.2138,-0.2124,-0.2069,-0.2133,-0.2174,-0.2174,-0.2068,0.0,0.0,0.0,0.0,0.0,-0.4036,-0.4609,-0.5365,-0.5591,-0.5989,-0.6643,-0.662,-0.6549,-0.6388,-0.6525,-0.6413,-0.5992,-0.6203,-0.6358,-0.645,-0.6632,-0.6669,-0.6515,-0.6515,-0.6357,-0.6079,-0.6079,-0.6046,-0.598,-0.5856,-0.6155,-0.664,-0.5936,-0.619,-0.6865,0.0,-0.6582,-0.7112,-0.7112,-0.7112,-0.7112,-0.7112,-0.7112,-0.7117,-0.7251,-0.7358,-0.7487,-0.7828,-0.829,-0.8711,-0.8915,-0.9453,-0.9949,-1.0035,-1.0229,-1.0313,-1.0196,-1.0249,-1.0308,-1.0196,-1.0363,-1.0595,-1.0832,-1.0934,-1.1069,-1.1273,-1.1439,-1.1585,-1.1585,-1.179,-1.204,-1.2156,-1.2027,-1.2078,-1.2274,-1.2291,-1.2393,-1.2635,-1.2646,-1.2732,-1.2807,-1.2813,-1.2813,-1.2813,-1.2813,-1.2813,-1.2813,-1.2813,-1.2813,-1.2813,-1.2813,-1.2813,-1.2813,-1.2813,-1.2813,-1.2813,-1.2813,-1.2813,-1.2813,-1.2813,-1.2813,-1.2813,-1.2813,-1.2813,-1.2813,-0.2333,-0.2261,-0.2213,-0.2213,-0.2161,0.0,0.0,0.0,0.0,0.0,0.0,0.0,0.0,0.0,0.0,0.0,0.0,-0.3836,-0.4543,-0.484,-0.5232,-0.5758,-0.5761,-0.5682,-0.546,-0.5616,-0.5535,-0.513,-0.536,-0.5508,-0.5567,-0.5804,-0.5807,-0.5631,-0.5631,-0.5475,-0.521,-0.521,-0.521,-0.5196,-0.5034,-0.5305,-0.5778,-0.5124,-0.5491,0.0,-0.5864,-0.6197,-0.6853,-0.6929,-0.6961,-0.6972,-0.7058,-0.7144,-0.7246,-0.7351,-0.754,-0.7801,-0.8306,-0.8787,-0.9252,-0.9615,-1.0132,-1.0541,-1.0541,-1.0589,-1.0506,-1.0229,-1.0277,-1.027,-1.0078,-1.0299,-1.0589,-1.0821,-1.0929,-1.1069,-1.1273,-1.1553,-1.1698,-1.1698,-1.1984,-1.2242,-1.2398,-1.2391,-1.2418,-1.2527,-1.2538,-1.2603,-1.2802,-1.2813,-1.2813,-1.2813,-1.2813,-1.2813,-1.2813,-1.2813,-1.2813,-1.2813,-1.2813,-1.2813,-1.2813,-1.2813,-1.2813,-1.2813,-1.2813,-1.2813,-1.2813,-1.2813,-1.2813,-1.2813,-1.2813,-1.2813,-1.2813,-1.2813,-1.2813,-1.2813,-0.2391,-0.2391,-0.2391,0.0,0.0,0.0,0.0,0.0,0.0,0.0,0.0,0.0,0.0,0.0,0.0,0.0,0.0,0.0,-0.3644,-0.4229,0.0,-0.4122,-0.4266,-0.4043,-0.3445,-0.3558,-0.3622,-0.3594,-0.4168,-0.4542,-0.474,-0.531,-0.5348,-0.4944,-0.4944,-0.4502,-0.3793,-0.3793,-0.379,-0.3745,-0.3635,-0.3947,-0.445,-0.4286,-0.4821,-0.563,-0.562,-0.5915,-0.6355,-0.6607,-0.6704,-0.6752,-0.6983,-0.7224,-0.7399,-0.741,-0.7801,-0.8337,-0.8798,-0.9284,-0.9782,-1.0476,-1.0821,-1.0982,-1.0966,-1.0772,-1.0426,-0.9997,-0.99,-0.983,-0.9599,-0.9949,-1.0347,-1.0522,-1.0805,-1.1052,-1.1257,-1.1553,-1.1715,-1.1715,-1.214,-1.2431,-1.2431,-1.2635,-1.2813,-1.2813,-1.2813,-1.2813,-1.2813,-1.2813,-1.2813,-1.2813,-1.2813,-1.2813,-1.2813,-1.2813,-1.2813,-1.2813,-1.2813,-1.2813,-1.2813,-1.2813,-1.2813,-1.2813,-1.2813,-1.2813,-1.2813,-1.2813,-1.2813,-1.2813,-1.2813,-1.2813,-1.2813,-1.2813,-1.2813,-1.2813,0.0,0.0,0.0,0.0,0.0,0.0,0.0,0.0,0.0,0.0,0.0,0.0,0.0,0.0,0.0,0.0,0.0,0.0,-0.3157,-0.3647,0.0,0.0,0.0,0.0,0.0,0.0,0.0,-0.3311,-0.3465,-0.3606,-0.3761,-0.392,-0.3966,-0.3957,-0.3957,-0.38,-0.349,-0.349,-0.3439,-0.3352,-0.3324,-0.3667,-0.4144,-0.3506,-0.3871,-0.4714,-0.4557,-0.4814,-0.5338,-0.6187,-0.657,-0.6675,-0.6496,-0.6887,-0.7431,-0.7632,-0.8048,-0.8565,-0.9252,-0.975,-1.0239,-1.0767,-1.0939,-1.0939,-1.0762,-1.0361,-0.9981,-0.9728,-0.9669,-0.9588,-0.9346,-0.969,-1.0035,-1.0056,-1.0415,-1.0805,-1.1047,-1.1629,-1.2002,-1.2002,-1.2429,-1.2721,-1.2721,-1.2775,-1.2813,-1.2813,-1.2813,-1.2813,-1.2813,-1.2813,-1.2813,-1.2813,-1.2813,-1.2813,-1.2813,-1.2813,-1.2813,-1.2813,-1.2813,-1.2813,-1.2813,-1.2813,-1.2813,-1.2813,-1.2813,-1.2813,-1.2813,-1.2813,-1.2813,-1.2813,-1.2813,-1.2813,-1.2813,-1.2813,-1.2813,-1.2813,0.0,0.0,0.0,0.0,0.0,0.0,0.0,0.0,0.0,0.0,0.0,0.0,0.0,0.0,0.0,0.0,0.0,0.0,0.0,-0.2997,0.0,0.0,0.0,0.0,0.0,0.0,0.0,0.0,0.0,0.0,-0.3223,-0.3297,-0.3357,-0.3422,-0.3422,-0.3387,-0.3322,-0.3322,-0.3314,0.0,0.0,-0.3313,-0.3547,-0.301,-0.3259,-0.3863,-0.3806,-0.4152,-0.4697,-0.5161,-0.5937,-0.6691,-0.672,-0.7125,-0.7642,-0.8016,-0.8447,-0.8953,-0.9561,-1.0078,-1.0503,-1.0767,-1.0832,-1.074,-1.0356,-0.9911,-0.9513,-0.9179,-0.9114,-0.9071,-0.8931,-0.9206,-0.9556,-0.9868,-1.0239,-1.06,-1.0939,-1.164,-1.2094,-1.2094,-1.2516,-1.2813,-1.2813,-1.2813,-1.2813,-1.2813,-1.2813,-1.2813,-1.2813,-1.2813,-1.2813,-1.2813,-1.2813,-1.2813,-1.2813,-1.2813,-1.2813,-1.2813,-1.2813,-1.2813,-1.2813,-1.2813,-1.2813,-1.2813,-1.2813,-1.2813,-1.2813,-1.2813,-1.2813,-1.2813,-1.2813,-1.2813,-1.2813,-1.2813,-1.2813,-1.2813,0.0,0.0,0.0,0.0,0.0,0.0,0.0,0.0,0.0,-0.1937,-0.1896,-0.1928,-0.2022,-0.2033,0.0,0.0,0.0,0.0,0.0,0.0,-0.2479,0.0,0.0,0.0,0.0,0.0,-0.293,-0.293,-0.305,-0.3059,0.0,0.0,-0.3131,-0.3172,-0.3172,-0.3161,-0.3123,-0.3123,-0.3199,-0.3265,-0.3034,-0.293,-0.2906,0.0,0.0,-0.3117,-0.3306,-0.3872,-0.4475,-0.4136,-0.5174,-0.666,-0.7045,-0.7462,-0.7892,-0.8377,-0.8765,-0.9173,-0.9761,-1.0176,-1.0508,-1.0562,-1.0571,-1.0426,-0.9981,-0.948,-0.899,-0.8554,-0.8441,-0.842,-0.842,-0.8635,-0.9052,-0.9631,-1.0019,-1.0396,-1.0832,-1.1548,-1.2024,-1.2083,-1.2494,-1.2775,-1.2807,-1.2813,-1.2813,-1.2813,-1.2813,-1.2813,-1.2813,-1.2813,-1.2813,-1.2813,-1.2813,-1.2813,-1.2813,-1.2813,-1.2813,-1.2813,-1.2813,-1.2813,-1.2813,-1.2813,-1.2813,-1.2813,-1.2813,-1.2813,-1.2813,-1.2813,-1.2813,-1.2813,-1.2813,-1.2813,-1.2813,-1.2813,-1.2813,-1.2813,0.0,0.0,0.0,0.0,0.0,0.0,0.0,0.0,0.0,0.0,-0.2378,-0.2349,0.0,0.0,0.0,0.0,0.0,0.0,0.0,0.0,0.0,0.0,0.0,0.0,0.0,-0.2585,-0.2596,-0.2596,-0.2618,-0.2667,0.0,-0.2767,-0.2852,-0.295,-0.295,-0.2893,-0.2778,-0.2778,-0.2732,-0.2653,-0.2612,-0.2596,-0.2562,0.0,0.0,0.0,-0.3052,-0.4046,-0.5083,-0.4767,-0.5279,-0.6034,-0.5992,-0.6842,-0.7892,-0.8377,-0.8432,-0.8607,-0.9616,-0.9846,-0.991,-1.0478,-1.0492,-1.0229,-0.975,-0.912,-0.8554,-0.8301,-0.809,-0.7925,-0.7925,-0.828,-0.8614,-0.8737,-0.9448,-1.0083,-1.0374,-1.1025,-1.1612,-1.2046,-1.2301,-1.2549,-1.2797,-1.2813,-1.2813,-1.2813,-1.2813,-1.2813,-1.2813,-1.2813,-1.2813,-1.2813,-1.2813,-1.2813,-1.2813,-1.2813,-1.2813,-1.2813,-1.2813,-1.2813,-1.2813,-1.2813,-1.2813,-1.2813,-1.2813,-1.2813,-1.2813,-1.2813,-1.2813,-1.2813,-1.2813,-1.2813,-1.2813,-1.2813,-1.2813,-1.2813,0.0,0.0,0.0,0.0,0.0,0.0,0.0,-0.2574,-0.2716,-0.2756,-0.2765,-0.267,-0.2427,-0.2349,-0.2272,0.0,0.0,0.0,0.0,0.0,0.0,0.0,0.0,0.0,0.0,-0.2395,-0.2395,-0.2395,0.0,-0.2501,-0.2484,-0.2563,-0.262,-0.2698,-0.2698,-0.2665,-0.2588,-0.2588,-0.2555,-0.2495,-0.2417,-0.2395,0.0,0.0,0.0,0.0,-0.2732,-0.3438,-0.4228,-0.4379,-0.4752,-0.5302,-0.6089,-0.6782,-0.7542,-0.8563,-0.8968,-0.9125,-0.9307,-0.9847,-1.0191,-0.9662,-0.9738,-0.9766,-0.9163,-0.8662,-0.8221,-0.786,-0.7693,-0.7589,-0.7589,-0.7776,-0.8055,-0.842,-0.9093,-0.9674,-1.0046,-1.078,-1.1391,-1.1661,-1.2118,-1.2457,-1.2571,-1.2737,-1.2813,-1.2813,-1.2813,-1.2813,-1.2813,-1.2813,-1.2813,-1.2813,-1.2813,-1.2813,-1.2813,-1.2813,-1.2813,-1.2813,-1.2813,-1.2813,-1.2813,-1.2813,-1.2813,-1.2813,-1.2813,-1.2813,-1.2813,-1.2813,-1.2813,-1.2813,-1.2813,-1.2813,-1.2813,-1.2813,-1.2813,-1.2813,0.0,0.0,0.0,0.0,0.0,0.0,0.0,-0.2732,-0.2941,-0.2989,-0.3021,-0.2943,-0.2632,-0.2473,-0.2368,0.0,0.0,0.0,0.0,0.0,0.0,0.0,0.0,0.0,0.0,0.0,0.0,-0.2259,-0.2363,0.0,0.0,0.0,0.0,0.0,-0.2406,-0.2406,-0.2406,-0.2406,-0.2406,0.0,0.0,-0.2259,-0.2248,0.0,0.0,0.0,0.0,-0.2859,-0.3405,-0.3776,-0.424,-0.4877,-0.6227,-0.6676,-0.6988,-0.8456,-0.9098,-0.9233,-0.8874,-0.9542,-0.9973,-0.8578,-0.8628,-0.8866,-0.8251,-0.786,-0.7581,-0.7292,-0.7177,-0.7174,-0.7319,-0.7357,-0.7621,-0.8232,-0.8797,-0.9297,-0.9782,-1.0587,-1.1193,-1.1295,-1.193,-1.2355,-1.2409,-1.2624,-1.2813,-1.2813,-1.2813,-1.2813,-1.2813,-1.2813,-1.2813,-1.2813,-1.2813,-1.2813,-1.2813,-1.2813,-1.2813,-1.2813,-1.2813,-1.2813,-1.2813,-1.2813,-1.2813,-1.2813,-1.2813,-1.2813,-1.2759,-1.2565,-1.2613,-1.2764,-1.2268,-1.2262,-1.2446,-1.2183,-1.2111,-1.2103,0.0,0.0,0.0,0.0,0.0,0.0,0.0,-0.2781,-0.2989,-0.3,-0.3115,-0.3126,-0.2968,-0.277,-0.2566,0.0,0.0,0.0,0.0,0.0,0.0,0.0,0.0,0.0,0.0,0.0,0.0,-0.2116,-0.2127,0.0,0.0,0.0,0.0,0.0,0.0,-0.2132,-0.2132,-0.2132,0.0,0.0,0.0,0.0,0.0,0.0,0.0,0.0,0.0,-0.308,-0.3788,-0.3402,-0.4117,-0.5206,-0.5676,-0.5881,-0.6253,-0.7565,-0.7655,-0.7488,-0.8166,-0.8243,-0.7976,-0.7513,-0.7294,-0.7069,-0.6816,-0.6349,-0.6069,-0.6582,-0.6481,-0.6482,-0.7036,-0.7272,-0.7514,-0.7817,-0.8473,-0.91,-0.9576,-1.0239,-1.0823,-1.1257,-1.1785,-1.2213,-1.2393,-1.2624,-1.2813,-1.2813,-1.2813,-1.2813,-1.2813,-1.2813,-1.2813,-1.2813,-1.2813,-1.2813,-1.2813,-1.2813,-1.2813,-1.2813,-1.2813,-1.2813,-1.2813,-1.2813,-1.2813,-1.2813,-1.2813,-1.2813,-1.271,-1.1765,-1.1917,-1.2613,-1.0641,-1.0467,-1.1249,-1.0272,-0.9874,-0.9909,0.0,0.0,0.0,0.0,0.0,0.0,-0.2501,-0.2848,-0.3126,-0.3126,-0.3228,-0.3258,-0.3139,-0.298,-0.2756,-0.2444,0.0,0.0,0.0,0.0,0.0,0.0,0.0,0.0,0.0,0.0,-0.21,-0.21,-0.21,0.0,0.0,0.0,0.0,0.0,0.0,-0.21,-0.21,-0.21,0.0,0.0,0.0,0.0,0.0,0.0,0.0,0.0,0.0,0.0,-0.3321,-0.3548,-0.3839,-0.4217,-0.4785,-0.4819,-0.5033,-0.7034,-0.73,-0.6995,-0.6992,-0.7301,-0.7405,-0.6471,-0.6452,-0.6601,-0.6164,-0.5868,-0.5705,-0.5756,-0.5677,-0.5782,-0.6335,-0.6516,-0.678,-0.744,-0.8065,-0.863,-0.9117,-0.989,-1.0305,-1.0081,-1.1271,-1.1666,-1.0543,-1.1864,-1.2813,-1.2813,-1.1575,-1.1179,-1.1819,-1.2462,-1.2516,-1.1868,-1.1819,-1.1526,-1.0886,-1.0886,-1.0886,-1.0886,-1.0886,-1.0886,-1.0886,-1.0886,-1.0886,-1.0886,-1.0886,-1.0886,-1.0837,-1.0391,-1.0489,-1.0788,-0.9953,-0.9842,-1.0168,-0.9772,-0.9591,-0.9618,0.0,0.0,0.0,0.0,0.0,-0.2501,-0.2501,-0.2859,-0.3145,-0.3145,-0.3247,-0.33,-0.3156,-0.3048,-0.2855,-0.2533,-0.2409,0.0,0.0,0.0,0.0,0.0,0.0,0.0,0.0,0.0,-0.215,-0.215,-0.2202,-0.2218,0.0,0.0,-0.2218,-0.2218,0.0,0.0,0.0,0.0,0.0,0.0,0.0,0.0,0.0,0.0,0.0,0.0,0.0,0.0,0.0,0.0,0.0,-0.3656,-0.4254,-0.4218,-0.432,-0.6212,-0.66,-0.6326,-0.5941,-0.6317,-0.6577,-0.5389,-0.5425,-0.5661,-0.5247,-0.5098,-0.5057,-0.5011,-0.4986,-0.5145,-0.5694,-0.5799,-0.602,-0.6779,-0.7475,-0.8091,-0.8557,-0.9611,-1.0018,-0.9294,-1.0631,-1.0981,-0.9262,-1.0747,-1.1873,-1.1873,-1.0444,-0.9948,-1.0685,-1.1424,-1.1526,-1.073,-1.0734,-1.0342,-0.9608,-0.9608,-0.9608,-0.9608,-0.9505,-0.9505,-0.9608,-0.9505,-0.9505,-0.9608,-0.9608,-0.9608,-0.9558,-0.9258,-0.9308,-0.9558,-0.8913,-0.8856,-0.9099,-0.8779,-0.8663,-0.8639,0.0,0.0,0.0,0.0,0.0,0.0,-0.2501,-0.2792,-0.3002,-0.3002,-0.3123,-0.3153,-0.3016,-0.3002,-0.2855,-0.2533,-0.2501,0.0,0.0,0.0,0.0,0.0,0.0,0.0,0.0,0.0,-0.2296,-0.2296,-0.2425,-0.2498,-0.2498,-0.2498,-0.2498,-0.2493,0.0,0.0,0.0,0.0,0.0,0.0,0.0,0.0,0.0,0.0,0.0,0.0,0.0,0.0,0.0,0.0,0.0,0.0,0.0,-0.4288,-0.4381,-0.4897,-0.5164,-0.5315,-0.5234,-0.5262,-0.5128,-0.431,-0.3969,-0.3818,-0.3812,-0.3724,-0.3777,-0.438,-0.4515,-0.4677,-0.5195,-0.5304,-0.5389,-0.5682,-0.6625,-0.7477,-0.7947,-0.9316,-1.0018,-0.9294,-0.9972,-1.0149,-0.9169,-0.9445,-0.9657,-0.9657,-0.9608,-0.9608,-0.9608,-0.9608,-0.9608,-0.9608,-0.9608,-0.9608,-0.9608,-0.9608,-0.9608,-0.9608,-0.9349,-0.9349,-0.9608,-0.9349,-0.9349,-0.9608,-0.9608,-0.9608,-0.9509,-0.8467,-0.8665,-0.941,-0.7279,-0.7062,-0.7878,-0.6822,-0.6437,-0.6437,0.0,0.0,0.0,0.0,0.0,0.0,0.0,-0.2357,-0.2628,-0.2966,-0.3123,-0.315,-0.3013,-0.2951,-0.2811,-0.2528,-0.2501,0.0,0.0,0.0,0.0,0.0,0.0,0.0,0.0,0.0,-0.2352,-0.243,-0.2484,-0.2501,-0.2501,-0.2501,-0.2501,-0.2501,-0.2463,-0.2387,0.0,0.0,0.0,0.0,0.0,0.0,-0.21,0.0,0.0,0.0,0.0,0.0,0.0,0.0,0.0,0.0,0.0,0.0,0.0,-0.3862,-0.4081,-0.4273,-0.4307,-0.4328,-0.4276,-0.398,-0.3841,-0.3764,-0.3684,-0.3572,-0.3489,-0.3583,-0.3614,-0.3794,-0.4379,-0.4547,-0.4781,-0.5333,-0.5952,-0.667,-0.7597,-0.8088,-0.8334,-0.8253,-0.7793,-0.7951,-0.9195,-0.815,-0.8024,-0.9509,-0.8074,-0.7481,-0.8173,-0.7375,-0.7375,-0.8467,-0.8322,-0.7875,-0.7132,-0.698,-0.6877,-0.6877,-0.6775,-0.6775,-0.6877,-0.6775,-0.6775,-0.6877,-0.6877,-0.6877,-0.6828,-0.6481,-0.6581,-0.6778,-0.6134,-0.6176,-0.6617,-0.6276,-0.6234,-0.6387,0.0,0.0,0.0,0.0,0.0,0.0,0.0,-0.1828,-0.2066,-0.2368,-0.2472,-0.2488,-0.2406,-0.2449,-0.2403,-0.2223,-0.2284,0.0,0.0,0.0,0.0,0.0,0.0,0.0,-0.2293,-0.24,-0.2523,-0.266,-0.2729,-0.2773,-0.2773,-0.2773,-0.2727,-0.2686,-0.2661,-0.2574,0.0,0.0,0.0,0.0,0.0,0.0,-0.21,0.0,0.0,0.0,0.0,0.0,0.0,0.0,0.0,0.0,0.0,0.0,0.0,0.0,-0.3468,-0.3676,-0.377,-0.3773,-0.3784,-0.3736,-0.3717,-0.3687,-0.3542,-0.3455,-0.3365,-0.3218,-0.3228,-0.3388,-0.3764,-0.3932,-0.4182,-0.4654,-0.521,-0.5864,-0.6746,-0.7239,-0.7513,-0.76,-0.6733,-0.6652,-0.8076,-0.7005,-0.6783,-0.8124,-0.6734,-0.6137,-0.6833,-0.6034,-0.6082,-0.708,-0.693,-0.6534,-0.5839,-0.5687,-0.5586,-0.5584,-0.5486,-0.5486,-0.5584,-0.5486,-0.5486,-0.5586,-0.5586,-0.5586,0.0,-0.5586,-0.5586,-0.5586,-0.5586,-0.5687,-0.5837,-0.5834,-0.5934,-0.6089,0.0,0.0,0.0,0.0,0.0,0.0,0.0,-0.1208,-0.1345,-0.1389,-0.1389,-0.1389,-0.1389,-0.16,-0.1721,-0.1697,0.0,0.0,0.0,0.0,0.0,0.0,0.0,0.0,-0.2317,-0.258,-0.2783,-0.2915,-0.3112,-0.3193,-0.3193,-0.3193,-0.3137,-0.3008,-0.2936,-0.2824,0.0,0.0,0.0,0.0,-0.2028,-0.205,0.0,0.0,0.0,0.0,0.0,0.0,0.0,0.0,0.0,0.0,0.0,0.0,0.0,0.0,0.0,0.0,0.0,-0.3572,-0.3613,-0.3613,-0.3613,-0.3555,-0.3441,-0.3406,0.0,-0.3228,-0.3322,-0.34,-0.34,-0.3501,-0.3649,-0.3764,-0.4428,-0.5105,-0.5617,-0.671,-0.7379,-0.7206,-0.6514,-0.6132,-0.6246,-0.6072,-0.5992,-0.5992,-0.5737,-0.5586,-0.5586,-0.5536,-0.5536,-0.5536,-0.5536,-0.5536,-0.5586,-0.5536,-0.5536,-0.5536,-0.5288,-0.5288,-0.5536,-0.5288,-0.5288,-0.5536,-0.5536,-0.5536,-0.5536,-0.5536,-0.5536,-0.5536,-0.5536,-0.5541,-0.5596,-0.5589,-0.5589,-0.5596,0.0,0.0,0.0,0.0,0.0,0.0,0.0,0.0,0.0,0.0,-0.1252,-0.1252,-0.1252,-0.121,-0.1287,0.0,0.0,0.0,0.0,0.0,0.0,0.0,0.0,0.0,-0.2596,-0.2769,-0.295,-0.3134,-0.3166,-0.3193,-0.3193,-0.3193,-0.318,-0.3148,-0.3034,-0.2813,0.0,0.0,0.0,0.0,-0.2085,-0.209,0.0,0.0,0.0,0.0,-0.2398,-0.2501,0.0,0.0,0.0,0.0,0.0,0.0,0.0,0.0,-0.3145,-0.3242,-0.3297,0.0,-0.3613,-0.3613,-0.3613,-0.3605,0.0,-0.3468,-0.3392,-0.3365,-0.3381,-0.34,-0.34,-0.3501,-0.3595,-0.3566,-0.3997,-0.4584,-0.5351,-0.6263,-0.6646,-0.613,-0.5912,-0.5818,-0.5844,-0.5728,-0.5687,-0.5687,-0.5438,-0.529,-0.529,-0.5087,-0.4985,-0.4985,-0.4985,-0.5087,-0.529,-0.5087,-0.4985,-0.4985,-0.4935,-0.4935,-0.4985,-0.4935,-0.4935,-0.4985,-0.4985,-0.4985,-0.4985,-0.4985,-0.4985,-0.4985,-0.4985,-0.5138,-0.5292,-0.529,-0.5438,-0.5589,0.0,0.0,0.0,0.0,0.0,0.0,0.0,0.0,0.0,0.0,0.0,-0.0562,-0.0562,-0.061,0.0,0.0,0.0,0.0,0.0,0.0,0.0,0.0,0.0,-0.2353,-0.2783,-0.2889,-0.3066,-0.3303,-0.336,-0.3387,-0.3387,-0.3332,-0.3302,-0.3294,-0.3077,-0.2802,0.0,0.0,0.0,-0.2061,-0.2055,0.0,0.0,0.0,0.0,0.0,-0.2338,-0.2438,0.0,-0.2742,-0.2843,-0.289,0.0,0.0,0.0,0.0,-0.2905,-0.2966,-0.2966,-0.3239,-0.3498,-0.3444,-0.3514,-0.3569,-0.3457,-0.3423,-0.3387,-0.333,-0.3362,-0.34,-0.34,-0.3572,-0.3702,-0.3673,-0.3979,-0.4408,-0.5035,-0.5491,-0.5706,-0.5467,-0.5464,-0.5541,-0.5593,-0.5497,-0.5438,-0.5438,-0.5188,-0.5037,-0.5037,-0.4885,-0.4784,-0.4784,-0.4784,-0.4885,-0.5037,-0.4885,-0.4784,-0.4784,-0.4784,-0.4784,-0.4784,-0.4784,-0.4784,-0.4784,-0.4784,-0.4784,-0.4784,-0.4784,-0.4784,-0.4784,-0.4784,-0.4885,-0.5037,-0.5037,-0.5087,-0.5236,0.0,0.0,0.0,0.0,0.0,0.0,0.0,0.0,0.0,0.0,0.0,0.0,0.0,0.0,0.0,0.0,0.0,0.0,0.0,0.0,0.0,0.0,0.0,-0.2386,-0.2912,-0.2984,-0.3168,-0.3404,-0.3506,-0.3564,-0.3581,-0.3449,-0.3361,-0.3287,-0.3066,-0.2751,0.0,0.0,-0.2172,-0.199,-0.2004,0.0,0.0,0.0,0.0,0.0,0.0,0.0,0.0,-0.2615,-0.2737,-0.2838,-0.2838,0.0,0.0,0.0,0.0,0.0,-0.2663,-0.2993,-0.33,-0.3208,-0.3355,-0.3473,-0.3262,-0.3295,-0.3319,-0.3218,-0.3276,-0.3353,-0.3372,-0.3593,-0.3776,-0.3812,-0.4063,-0.4385,-0.4743,-0.4779,-0.4893,-0.5098,-0.5169,-0.5274,-0.5428,-0.5234,-0.514,-0.514,-0.4937,-0.4784,-0.4784,-0.4784,-0.4784,-0.4784,-0.4784,-0.4784,-0.4784,-0.4784,-0.4784,-0.4784,-0.4784,-0.4784,-0.4784,-0.4784,-0.4784,-0.4784,-0.4784,-0.4784,-0.4784,-0.4784,-0.4784,-0.4784,-0.4784,-0.4784,-0.4784,-0.4784,-0.4784,-0.4784,0.0,0.0,0.0,0.0,0.0,0.0,0.0,0.0,0.0,0.0,0.0,0.0,0.0,0.0,0.0,0.0,0.0,0.0,0.0,0.0,0.0,-0.0982,-0.1867,-0.2556,-0.2968,-0.3106,-0.3275,-0.3475,-0.3403,-0.3372,-0.3429,-0.3338,-0.3174,-0.2895,-0.2841,-0.2598,-0.2236,-0.2277,-0.2153,-0.1928,-0.2046,0.0,0.0,0.0,0.0,0.0,0.0,0.0,0.0,-0.249,-0.2549,-0.2563,-0.2563,0.0,0.0,0.0,0.0,0.0,-0.253,-0.2709,-0.2945,-0.3138,-0.3189,-0.3211,-0.3335,-0.3247,-0.3129,-0.3115,-0.3124,-0.319,-0.3283,-0.3445,-0.3535,-0.3472,-0.3862,-0.4268,-0.4644,-0.4784,-0.4893,-0.5098,-0.5027,-0.5031,-0.5134,-0.4982,-0.4885,-0.4885,-0.4834,-0.4784,-0.4784,-0.4784,-0.4784,-0.4784,-0.4784,-0.4784,-0.4784,-0.4784,-0.4784,-0.4784,-0.4784,-0.4784,-0.4784,-0.4784,-0.4784,-0.4784,-0.4784,-0.4784,-0.4784,-0.4784,-0.4784,-0.4784,-0.4784,-0.4784,-0.4784,-0.4784,-0.4784,-0.4784,0.0,0.0,0.0,0.0,0.0,0.0,0.0,0.0,0.0,0.0,0.0,0.0,0.0,0.0,0.0,0.0,0.0,0.0,0.0,0.0,0.0,-0.078,-0.1306,-0.1873,-0.25,-0.261,-0.2912,-0.338,-0.3379,-0.3371,-0.3385,-0.3342,-0.3098,-0.2751,-0.2773,-0.2576,-0.2197,-0.2243,-0.2073,-0.1811,0.0,0.0,0.0,0.0,0.0,0.0,0.0,0.0,0.0,0.0,-0.2313,-0.2356,-0.2434,0.0,0.0,0.0,0.0,0.0,-0.239,-0.2485,-0.2644,-0.2925,-0.3054,-0.3105,-0.3137,-0.3107,-0.3119,-0.3206,-0.3216,-0.3249,-0.3326,-0.3499,-0.3666,-0.386,-0.4045,-0.4266,-0.4547,-0.4574,-0.4599,-0.4693,-0.4748,-0.4797,-0.4893,-0.4833,-0.4784,-0.4784,-0.4784,-0.4784,-0.4784,-0.4784,-0.4784,-0.4784,-0.4784,-0.4762,-0.4767,-0.4767,-0.474,-0.4784,-0.4784,-0.4784,-0.4784,-0.4784,-0.4784,-0.4784,-0.4784,-0.4784,-0.4784,-0.4784,-0.4784,-0.4784,-0.4784,-0.4784,-0.4784,-0.4784,-0.4784,-0.4778,0.0,0.0,0.0,0.0,0.0,0.0,0.0,0.0,0.0,0.0,0.0,0.0,0.0,0.0,0.0,0.0,0.0,0.0,0.0,0.0,-0.0037,-0.0449,-0.049,-0.0944,-0.1858,-0.1933,-0.2301,-0.3057,-0.3066,-0.3164,-0.3293,-0.3246,-0.3031,-0.2684,-0.2692,-0.2519,-0.2192,-0.2174,-0.1976,-0.1707,0.0,0.0,0.0,0.0,0.0,0.0,0.0,0.0,0.0,0.0,0.0,0.0,0.0,0.0,0.0,-0.2205,-0.2224,-0.2219,-0.2281,-0.2348,-0.2465,-0.2691,-0.2893,-0.3,-0.2943,-0.2973,-0.3057,-0.3189,-0.3228,-0.3276,-0.3348,-0.3566,-0.3833,-0.4178,-0.4199,-0.4264,-0.4407,-0.4374,-0.4332,-0.4378,-0.4498,-0.4577,-0.4667,-0.4734,-0.4773,-0.4773,-0.4773,-0.4773,-0.4773,-0.4773,-0.4773,-0.4773,-0.4773,-0.4743,-0.4677,-0.4677,-0.4708,-0.4773,-0.4773,-0.4783,-0.4756,-0.4756,-0.4766,-0.4784,-0.4784,-0.4784,-0.4784,-0.4784,-0.4784,-0.4784,-0.4784,-0.4784,-0.4782,-0.4762,-0.4756,-0.4742,0.0,0.0,0.0,0.0,0.0,0.0,0.0,0.0,0.0,0.0,0.0,0.0,0.0,0.0,0.0,0.0,0.0,0.0,0.0,0.0,0.0541,0.0509,0.0604,0.0073,-0.1229,-0.1197,-0.1574,-0.2358,-0.2182,-0.2405,-0.3015,-0.3009,-0.2863,-0.2603,-0.2484,-0.2339,-0.22,-0.2059,-0.1901,-0.1709,-0.185,0.0,0.0,0.0,0.0,0.0,0.0,0.0,0.0,0.0,0.0,0.0,0.0,0.0,-0.2019,-0.2025,-0.211,-0.2219,-0.2281,-0.2348,-0.244,-0.2584,-0.2678,-0.2767,-0.2965,-0.2901,-0.2871,-0.2988,-0.3074,-0.3131,-0.3191,-0.3525,-0.385,-0.3995,-0.4107,-0.4202,-0.4214,-0.4244,-0.4332,-0.4378,-0.4394,-0.4481,-0.4573,-0.4635,-0.4591,-0.4591,-0.4591,-0.4591,-0.4591,-0.4591,-0.4591,-0.4591,-0.4591,-0.4635,-0.4629,-0.4629,-0.4633,-0.4591,-0.4591,-0.4634,-0.4718,-0.4718,-0.4761,-0.4784,-0.4784,-0.4784,-0.4784,-0.4784,-0.4784,-0.4784,-0.4784,-0.4784,-0.4774,-0.4747,-0.4718,-0.4704,0.0,0.0,0.0,0.0,0.0,0.0,0.0,0.0,0.0,0.0,0.0,0.0,0.0,0.0,0.0,0.0,0.0,0.0,0.0,0.054,0.0598,0.0609,0.0733,0.0572,0.005,-0.0307,-0.0806,-0.1507,-0.1906,-0.242,-0.3015,-0.3015,-0.2871,-0.2661,-0.2483,-0.235,-0.2244,-0.2084,-0.188,-0.1705,-0.176,-0.1729,0.0,0.0,0.0,0.0,0.0,0.0,0.0,0.0,-0.1716,-0.1722,-0.1763,-0.185,-0.1944,-0.198,-0.2119,-0.2275,-0.2342,-0.2432,-0.2564,-0.2687,-0.275,-0.2785,-0.2845,-0.2941,-0.3015,-0.3105,-0.3197,-0.3356,-0.3524,-0.3709,-0.3859,-0.4074,-0.4148,-0.4235,-0.4244,-0.4279,-0.4312,-0.4346,-0.4354,-0.4402,-0.4483,-0.4538,-0.4621,-0.4621,-0.4621,-0.4621,-0.4621,-0.4621,-0.4621,-0.4621,-0.4621,-0.4545,-0.4487,-0.4487,-0.4459,-0.4404,-0.4518,-0.4589,-0.4624,-0.4624,-0.4643,-0.4673,-0.4659,-0.4666,-0.4674,-0.4667,-0.4687,-0.4726,-0.4753,-0.4702,-0.4667,-0.4634,-0.4624,-0.4612,0.0,0.0,0.0,0.0,0.0,0.0,0.0,0.0,0.0,0.0,0.0,0.0,0.0,0.0,0.0,0.0,0.0,0.0,0.0394,0.0527,0.0609,0.0609,0.072,0.0806,0.0806,0.0415,-0.0088,-0.0729,-0.1692,-0.2423,-0.2944,-0.2944,-0.2863,-0.2683,-0.2341,-0.2158,-0.2091,-0.1863,-0.1685,-0.1543,-0.1665,-0.1655,0.0,0.0,0.0,0.0,0.0,0.0,0.0,0.0,-0.1609,-0.1602,-0.1647,-0.1766,-0.1914,-0.1956,-0.2119,-0.2325,-0.2393,-0.251,-0.2626,-0.2781,-0.2818,-0.2883,-0.2909,-0.3046,-0.3169,-0.3287,-0.3407,-0.36,-0.3805,-0.3913,-0.3996,-0.4185,-0.4239,-0.4232,-0.4291,-0.43,-0.43,-0.43,-0.4355,-0.4346,-0.4346,-0.4449,-0.4485,-0.4485,-0.4485,-0.4485,-0.4485,-0.4485,-0.4485,-0.4485,-0.4485,-0.4455,-0.4348,-0.4346,-0.4361,-0.43,-0.4426,-0.4502,-0.4528,-0.4528,-0.4545,-0.4623,-0.4584,-0.4594,-0.4593,-0.4622,-0.463,-0.4667,-0.4655,-0.4654,-0.4616,-0.454,-0.4528,-0.4516,0.0,0.0,0.0,0.0,0.0,0.0,0.0,0.0,0.0,0.0,0.0,0.0,0.0,0.0,0.0,0.0,0.0,0.0,0.0394,0.0527,0.0609,0.0609,0.0719,0.0806,0.0806,0.0866,0.057,-0.0088,-0.1427,-0.2337,-0.2798,-0.2798,-0.275,-0.2655,-0.2002,-0.1709,-0.1671,-0.1418,-0.1267,-0.1227,-0.1558,-0.1655,-0.1609,0.0,0.0,0.0,0.0,0.0,0.0,0.0,-0.1609,-0.1609,-0.1609,-0.1733,-0.1902,-0.1902,-0.2094,-0.2327,-0.2393,-0.2512,-0.2628,-0.2754,-0.2893,-0.3036,-0.3187,-0.3194,-0.3247,-0.3467,-0.3642,-0.3859,-0.3962,-0.4112,-0.4216,-0.4216,-0.4244,-0.43,-0.43,-0.43,-0.43,-0.43,-0.43,-0.43,-0.43,-0.43,-0.43,-0.43,-0.43,-0.43,-0.43,-0.43,-0.43,-0.43,-0.43,-0.43,-0.43,-0.43,-0.43,-0.43,-0.43,-0.4346,-0.4388,-0.4388,-0.4483,-0.4621,-0.458,-0.4574,-0.4619,-0.4619,-0.4579,-0.4576,-0.4594,-0.4619,-0.4559,-0.4467,-0.4388,-0.4374,0.0,0.0,0.0,0.0,0.0,0.0,0.0,0.0,0.0,0.0,0.0,0.0,0.0,0.0,0.0,0.0,0.0,0.0,0.0394,0.0526,0.0606,0.0608,0.0681,0.074,0.0806,0.0866,0.057,-0.0088,-0.0485,-0.0969,-0.1557,-0.197,-0.2139,-0.2065,-0.1819,-0.1709,-0.1674,-0.1121,-0.1009,-0.1212,-0.131,-0.1455,-0.1609,0.0,0.0,0.0,0.0,0.0,0.0,0.0,0.0,0.0,-0.1609,-0.1733,-0.1902,-0.1902,-0.2117,-0.2383,-0.2384,-0.2578,-0.2774,-0.2917,-0.3032,-0.3195,-0.3377,-0.342,-0.3487,-0.3732,-0.3822,-0.3916,-0.4097,-0.4155,-0.4237,-0.4253,-0.4281,-0.43,-0.43,-0.43,-0.43,-0.43,-0.43,-0.43,-0.43,-0.43,-0.43,-0.43,-0.43,-0.43,-0.43,-0.43,-0.43,-0.43,-0.43,-0.43,-0.43,-0.43,-0.43,-0.43,-0.43,-0.4314,-0.434,-0.434,-0.4355,-0.4381,-0.4398,-0.4395,-0.4379,-0.4427,-0.4414,-0.4406,-0.4444,-0.4436,-0.4377,-0.4349,-0.434,-0.4336,0.0,0.0,0.0,0.0,0.0,0.0,0.0,0.0,0.0,0.0,0.0405,0.0405,0.0,0.0,0.0,0.0,0.0,0.0,0.0394,0.0506,0.0579,0.059,0.0659,0.0723,0.0805,0.0842,0.0652,0.025,0.0058,-0.0382,-0.0979,-0.1324,-0.1473,-0.1423,-0.1188,-0.1072,-0.1029,-0.0598,-0.0532,-0.0705,-0.0882,-0.1052,-0.1157,0.0,0.0,0.0,0.0,0.0,0.0,0.0,0.0,0.0,-0.1558,-0.1724,-0.1902,-0.1902,-0.2135,-0.2392,-0.2392,-0.259,-0.2818,-0.2964,-0.3091,-0.3249,-0.3501,-0.3577,-0.3671,-0.3906,-0.3955,-0.4008,-0.4189,-0.4224,-0.424,-0.4291,-0.43,-0.43,-0.43,-0.43,-0.43,-0.43,-0.43,-0.43,-0.43,-0.43,-0.43,-0.43,-0.43,-0.43,-0.43,-0.43,-0.43,-0.43,-0.43,-0.43,-0.43,-0.43,-0.43,-0.43,-0.43,-0.43,-0.43,-0.43,-0.43,-0.43,-0.43,-0.43,-0.43,-0.4344,-0.4344,-0.4304,-0.4359,-0.4346,-0.43,-0.43,-0.43,-0.43,0.0,0.0,0.0,0.0,0.0,0.0,0.0,0.0,0.0,0.0405,0.0405,0.0405,0.0,0.0,0.0,0.0405,0.04,0.0404,0.0403,0.047,0.053,0.0595,0.0667,0.074,0.0793,0.08,0.0803,0.0803,0.0324,-0.0195,-0.0751,-0.0779,-0.0822,-0.0798,-0.0307,-0.0098,-0.0095,0.0023,0.0085,0.0059,-0.0373,-0.0518,-0.0504,-0.0504,0.0,0.0,0.0,0.0,0.0,0.0,0.0,0.0,-0.1493,-0.1671,-0.1879,-0.1896,-0.2131,-0.2382,-0.239,-0.2596,-0.2856,-0.2966,-0.3103,-0.3285,-0.3542,-0.371,-0.3866,-0.3958,-0.4,-0.4057,-0.4269,-0.43,-0.43,-0.43,-0.43,-0.43,-0.43,-0.43,-0.43,-0.43,-0.43,-0.43,-0.43,-0.43,-0.43,-0.43,-0.43,-0.43,-0.43,-0.43,-0.43,-0.43,-0.43,-0.43,-0.43,-0.43,-0.43,-0.4255,-0.4255,-0.421,-0.4164,-0.4253,-0.43,-0.43,-0.43,-0.43,-0.43,-0.43,-0.43,-0.43,-0.43,-0.43,-0.43,-0.43,-0.43,-0.43,0.0,0.0,0.0,0.0,0.0,0.0,0.0,0.0,0.0405,0.0405,0.0405,0.0405,0.0405,0.0405,0.0,0.0405,0.04,0.0395,0.0401,0.047,0.05,0.0529,0.0635,0.0711,0.0724,0.0773,0.0798,0.0798,0.0729,0.0646,0.0511,0.0027,-0.0188,-0.0186,-0.0124,-0.0096,-0.0071,0.0365,0.0385,0.0098,-0.002,-0.0222,-0.0504,-0.0504,-0.0535,0.0,0.0,0.0,0.0,0.0,0.0,0.0,-0.1475,-0.1584,-0.1695,-0.1859,-0.2106,-0.2325,-0.2397,-0.2666,-0.2962,-0.2981,-0.3232,-0.3493,-0.3689,-0.3803,-0.3901,-0.397,-0.4093,-0.4175,-0.4279,-0.43,-0.43,-0.43,-0.43,-0.43,-0.43,-0.43,-0.43,-0.43,-0.43,-0.43,-0.43,-0.43,-0.43,-0.43,-0.43,-0.43,-0.43,-0.43,-0.43,-0.43,-0.43,-0.43,-0.43,-0.43,-0.4121,-0.3765,-0.3765,-0.354,-0.3226,-0.3985,-0.43,-0.43,-0.43,-0.43,-0.43,-0.43,-0.43,-0.43,-0.43,-0.43,-0.43,-0.43,-0.43,-0.43,0.0,0.0,0.0,0.0,0.0,0.0,0.0,0.0,0.075,0.065,0.0638,0.0582,0.0416,0.0405,0.0,0.0,0.0398,0.0401,0.0404,0.0434,0.0462,0.0502,0.0598,0.0657,0.0652,0.0684,0.0729,0.0744,0.0791,0.0828,0.0856,0.0519,0.0386,0.0379,0.034,0.0307,0.0301,0.0589,0.0556,0.0334,0.0334,0.0203,-0.0017,-0.0017,-0.0049,-0.0092,-0.0215,0.0,0.0,0.0,0.0,0.0,0.0,0.0,-0.1511,-0.181,-0.2063,-0.2273,-0.2383,-0.2617,-0.2911,-0.3127,-0.3362,-0.3546,-0.3762,-0.3834,-0.3926,-0.3974,-0.4108,-0.42,-0.4283,-0.43,-0.43,-0.43,-0.43,-0.43,-0.43,-0.43,-0.43,-0.43,-0.43,-0.43,-0.43,-0.43,-0.43,-0.43,-0.43,-0.43,-0.43,-0.43,-0.43,-0.43,-0.43,-0.43,-0.43,-0.4076,-0.3855,-0.3587,-0.3361,-0.3136,-0.2913,-0.3626,-0.4074,-0.43,-0.43,-0.43,-0.43,-0.43,-0.43,-0.43,-0.43,-0.43,-0.43,-0.43,-0.43,-0.43,0.0,0.0,0.0,0.0,0.0,0.0,0.0,0.0,0.0,0.0972,0.0949,0.0849,0.0572,0.0539,0.0539,0.0,0.0,0.0,0.0482,0.044,0.044,0.0503,0.0547,0.0572,0.056,0.0569,0.0606,0.0671,0.0691,0.0736,0.0784,0.0795,0.0812,0.0789,0.0783,0.0743,0.0697,0.0697,0.0666,0.0616,0.0616,0.0584,0.0519,0.0519,0.0514,0.0469,0.025,0.0101,-0.0013,-0.019,0.0,0.0,0.0,0.0,-0.132,-0.169,-0.1976,-0.2193,-0.2346,-0.2562,-0.2863,-0.3272,-0.342,-0.3542,-0.3742,-0.3822,-0.392,-0.3956,-0.4097,-0.42,-0.4283,-0.43,-0.43,-0.43,-0.43,-0.43,-0.43,-0.43,-0.43,-0.43,-0.43,-0.43,-0.43,-0.43,-0.43,-0.43,-0.43,-0.43,-0.43,-0.43,-0.43,-0.43,-0.421,-0.4166,-0.4166,-0.3719,-0.3452,-0.3363,-0.2868,-0.2689,-0.2778,-0.3178,-0.3626,-0.4074,-0.4076,-0.4076,-0.4076,-0.4166,-0.4166,-0.4166,-0.4253,-0.43,-0.43,-0.43,-0.43,-0.43,0.0,0.0,0.0,0.0,0.0,0.0,0.0,0.0,0.0,0.0,0.1163,0.1141,0.1096,0.1096,0.1096,0.1096,0.0938,0.083,0.0828,0.0,0.0,0.05,0.045,0.0426,0.043,0.0491,0.0517,0.0521,0.0639,0.0706,0.0714,0.0769,0.0792,0.0787,0.0737,0.0701,0.0697,0.0697,0.0699,0.0689,0.0689,0.0647,0.0578,0.0578,0.0544,0.0498,0.0465,0.0293,0.0068,-0.0013,-0.0164,0.0,0.0,0.0,-0.1091,-0.1315,-0.1681,-0.2074,-0.2252,-0.263,-0.3003,-0.3189,-0.3375,-0.3526,-0.3622,-0.3777,-0.3903,-0.3916,-0.4055,-0.42,-0.4283,-0.43,-0.43,-0.43,-0.43,-0.43,-0.43,-0.43,-0.43,-0.43,-0.43,-0.43,-0.43,-0.43,-0.43,-0.43,-0.43,-0.43,-0.43,-0.43,-0.43,-0.43,-0.39,-0.3676,-0.3676,-0.3227,-0.278,-0.2378,-0.1839,-0.1839,-0.2288,-0.2378,-0.2645,-0.3092,-0.3096,-0.3097,-0.3097,-0.3542,-0.3676,-0.3721,-0.4121,-0.43,-0.43,-0.43,-0.43,-0.43,0.0,0.0,0.0,0.0,0.0,0.0,0.0,0.0,0.0,0.0,0.0,0.1463,0.1274,0.1252,0.1241,0.1208,0.1116,0.1016,0.0903,0.0785,0.0653,0.0503,0.0467,0.0435,0.0394,0.046,0.0504,0.0504,0.0595,0.0652,0.065,0.0715,0.0746,0.0739,0.0703,0.0697,0.0697,0.0697,0.0702,0.0695,0.0695,0.0656,0.0609,0.0609,0.0574,0.0552,0.0552,0.0464,0.0325,0.0287,0.02,0.0054,-0.02,0.0,0.0,0.0,-0.1103,-0.1305,-0.1471,-0.1717,-0.1964,-0.1996,-0.2435,-0.2863,-0.3025,-0.3383,-0.3775,-0.3879,-0.3963,-0.4063,-0.4202,-0.4267,-0.43,-0.43,-0.43,-0.43,-0.43,-0.43,-0.43,-0.43,-0.43,-0.43,-0.43,-0.43,-0.43,-0.43,-0.43,-0.43,-0.43,-0.4032,-0.39,-0.39,-0.3451,-0.3227,-0.3227,-0.2735,-0.2242,-0.1749,-0.1525,-0.1525,-0.1749,-0.1749,-0.2153,-0.2917,-0.2918,-0.2918,-0.2915,-0.3138,-0.3227,-0.3227,-0.3449,-0.3674,-0.3855,-0.3628,-0.3674,-0.3853,0.0,0.0,0.0,0.0,0.0,0.0,0.0,0.0,0.0,0.0,0.0,0.1784,0.1532,0.0,0.0,0.0,0.1383,0.1261,0.1038,0.0946,0.0819,0.0638,0.053,0.0453,0.0401,0.0455,0.047,0.0467,0.0536,0.0588,0.0598,0.0648,0.0675,0.0676,0.069,0.0697,0.0697,0.0697,0.0706,0.0707,0.0707,0.0672,0.0632,0.064,0.0638,0.0632,0.064,0.0604,0.0552,0.0538,0.0483,0.0382,0.0113,0.0,0.0,0.0,0.0,-0.0779,-0.0877,-0.0993,-0.1099,-0.1099,-0.1577,-0.2131,-0.2461,-0.2967,-0.3447,-0.3758,-0.3867,-0.3942,-0.4079,-0.4193,-0.4273,-0.4295,-0.43,-0.43,-0.43,-0.43,-0.43,-0.43,-0.43,-0.43,-0.43,-0.43,-0.43,-0.43,-0.43,-0.4255,-0.4121,-0.381,-0.3542,-0.3408,-0.2959,-0.2734,-0.2734,-0.2242,-0.1794,-0.1391,-0.1391,-0.1391,-0.1391,-0.1391,-0.1794,-0.2513,-0.2513,-0.2512,-0.251,-0.2644,-0.2734,-0.2734,-0.2868,-0.3092,-0.3361,-0.3047,-0.3183,-0.3542,0.0,0.0,0.0,0.0,0.0,0.0,0.0,0.0,0.0,0.0,0.0,0.2078,0.2056,0.2056,0.2056,0.2056,0.1872,0.1662,0.1388,0.1076,0.0921,0.0966,0.0612,0.0,0.0399,0.0406,0.0411,0.0398,0.048,0.0538,0.0605,0.0598,0.0612,0.0616,0.0672,0.0697,0.0697,0.0697,0.0696,0.0695,0.0695,0.0694,0.0695,0.077,0.074,0.0696,0.077,0.0741,0.0678,0.0619,0.0542,0.0474,0.0395,0.0155,-0.0098,0.0,0.0,0.0,-0.0889,-0.1006,-0.1105,-0.1089,-0.124,-0.1529,-0.2181,-0.2498,-0.2828,-0.3469,-0.3779,-0.3903,-0.3912,-0.4059,-0.4206,-0.4285,-0.43,-0.43,-0.43,-0.43,-0.43,-0.43,-0.43,-0.43,-0.43,-0.43,-0.43,-0.43,-0.43,-0.4121,-0.3676,-0.3631,-0.3406,-0.2957,-0.2466,-0.2243,-0.2243,-0.1705,-0.1436,-0.1391,-0.1391,-0.1391,-0.1391,-0.1391,-0.1436,-0.148,-0.148,-0.148,-0.1524,-0.2018,-0.2243,-0.2288,-0.2734,-0.2911,-0.2913,-0.2911,-0.3183,-0.3542,0.0,0.0,0.0,0.0,0.0,0.0,0.0,0.0,0.0,0.0,0.0,0.0,0.0,0.21,0.21,0.21,0.2034,0.1898,0.1673,0.1549,0.1316,0.0949,0.0793,0.0616,0.0405,0.0401,0.0398,0.0395,0.0465,0.0515,0.0543,0.0576,0.06,0.0601,0.0623,0.0651,0.069,0.069,0.0701,0.0699,0.0741,0.0772,0.0775,0.078,0.0785,0.0777,0.0788,0.079,0.0749,0.0684,0.0617,0.0549,0.0493,0.0379,0.0298,0.0331,0.024,0.0141,0.0173,0.0218,0.0268,0.0345,-0.0057,-0.0514,-0.0758,-0.1296,-0.2007,-0.2801,-0.2567,-0.2584,-0.3676,-0.4001,-0.4095,-0.4126,-0.4179,-0.4218,-0.4218,-0.4265,-0.43,-0.43,-0.43,-0.43,-0.43,-0.4032,-0.3853,-0.3853,-0.3583,-0.3315,-0.3181,-0.2869,-0.2647,-0.2466,-0.1973,-0.1705,-0.1705,-0.148,-0.1391,-0.1391,-0.1391,-0.1391,-0.1391,-0.1391,-0.1391,-0.1391,-0.1391,-0.1391,-0.1436,-0.1615,-0.1705,-0.1705,-0.1883,-0.2152,-0.2422,-0.2062,-0.2241,-0.2647,0.0,0.0,0.0,0.0,0.0,0.0,0.0,0.0,0.0,0.2195,0.0,0.0,0.0,0.0,0.2275,0.2203,0.1998,0.1843,0.1803,0.1626,0.1358,0.0983,0.0838,0.0672,0.0472,0.0427,0.0407,0.043,0.0458,0.0468,0.0464,0.053,0.057,0.0606,0.0621,0.0666,0.0695,0.0695,0.0719,0.0736,0.078,0.0794,0.0806,0.0836,0.0828,0.0837,0.0837,0.0825,0.0828,0.0762,0.0709,0.0691,0.0656,0.0633,0.0629,0.0627,0.0686,0.0745,0.0788,0.0891,0.1011,0.111,0.0792,0.0368,0.0062,-0.0451,-0.1101,-0.1973,-0.1722,-0.1678,-0.28,-0.3316,-0.3642,-0.3936,-0.4087,-0.4126,-0.4126,-0.4175,-0.421,-0.421,-0.4079,-0.3989,-0.3989,-0.3576,-0.3326,-0.3326,-0.3078,-0.2823,-0.2689,-0.2378,-0.2109,-0.193,-0.157,-0.1391,-0.1391,-0.1391,-0.1391,-0.1391,-0.1391,-0.1391,-0.1391,-0.1391,-0.1391,-0.1391,-0.1391,-0.1391,-0.1391,-0.1391,-0.1391,-0.1391,-0.1391,-0.1615,-0.1885,-0.1525,-0.1749,-0.2109,0.0,0.0,0.0,0.0,0.0,0.0,0.0,0.0,0.2412,0.2412,0.0,0.0,0.0,0.0,0.0,0.242,0.1806,0.1535,0.1795,0.1316,0.105,0.1105,0.0729,0.054,0.0596,0.0472,0.0433,0.0504,0.0443,0.0407,0.0408,0.0478,0.0537,0.0601,0.067,0.0697,0.0713,0.0714,0.0752,0.0813,0.0814,0.0808,0.0813,0.0896,0.0901,0.0929,0.0929,0.0929,0.0919,0.083,0.0867,0.0897,0.0899,0.0899,0.0872,0.0745,0.0749,0.0811,0.0,0.0,0.0,0.1017,0.1149,0.1071,0.0222,0.0029,-0.0219,-0.1094,-0.1301,-0.13,-0.13,-0.1965,-0.282,-0.3769,-0.3942,-0.3946,-0.3946,-0.3907,-0.3909,-0.3909,-0.3571,-0.3317,-0.3317,-0.2954,-0.2731,-0.2732,-0.2787,-0.2597,-0.2154,-0.2154,-0.193,-0.1436,-0.1391,-0.1391,-0.1391,-0.1391,-0.1391,-0.1391,-0.1391,-0.1391,-0.1391,-0.1391,-0.1391,-0.1391,-0.1391,-0.1391,-0.1391,-0.1391,-0.1391,-0.1391,-0.1391,-0.1391,-0.1391,-0.1391,-0.1749,-0.2109,0.0,0.0,0.0,0.0,0.0,0.2319,0.2319,0.2485,0.2616,0.0,0.0,0.0,0.2708,0.2708,0.2616,0.242,0.2234,0.2087,0.2016,0.174,0.1482,0.1252,0.0996,0.0761,0.0528,0.0495,0.0478,0.05,0.053,0.055,0.0549,0.0558,0.0589,0.0606,0.0676,0.0748,0.0839,0.0849,0.0946,0.1075,0.0983,0.1059,0.1232,0.1133,0.1246,0.1393,0.1362,0.1371,0.138,0.1266,0.1138,0.1023,0.0924,0.0899,0.0886,0.0858,0.0865,0.0881,0.0927,0.0,0.0,0.0,0.0,0.0,0.1095,0.1024,0.0679,-0.0192,0.0197,0.0267,-0.1121,-0.0961,-0.0906,-0.1771,-0.2377,-0.2783,-0.2783,-0.22,-0.176,-0.176,-0.1677,-0.1593,-0.1593,-0.1181,-0.0896,-0.0867,-0.1004,-0.0794,-0.0134,-0.0628,-0.1031,-0.1391,-0.1391,-0.1391,-0.1391,-0.1391,-0.1391,-0.1391,-0.1391,-0.1391,-0.1391,-0.1391,-0.1391,-0.1391,-0.1391,-0.1391,-0.1391,-0.1391,-0.1391,-0.1391,-0.1391,-0.1391,-0.1391,-0.1391,-0.148,-0.1615,0.0,0.0,0.2124,0.2215,0.2323,0.2428,0.2505,0.2751,0.2914,0.0,0.0,0.0,0.3123,0.2923,0.2767,0.2735,0.2425,0.2189,0.2103,0.1887,0.1631,0.1355,0.1152,0.0951,0.0752,0.0618,0.054,0.054,0.0555,0.0555,0.0556,0.0586,0.0618,0.0647,0.074,0.0872,0.1025,0.1059,0.1096,0.1125,0.11,0.117,0.1321,0.1288,0.1419,0.1634,0.1555,0.1535,0.1524,0.147,0.1375,0.125,0.1134,0.1106,0.1093,0.1003,0.1003,0.1018,0.1,0.1092,0.1202,0.1252,0.0,0.0,0.136,0.1367,0.1185,0.0659,0.1005,0.1086,-0.0033,-0.0034,0.0,-0.0483,-0.0871,-0.1217,-0.1568,-0.1155,-0.0806,-0.0774,-0.0611,-0.053,-0.053,-0.0123,0.0167,0.0169,0.0043,0.0173,0.0619,0.0266,-0.0133,-0.0493,-0.0807,-0.0987,-0.0987,-0.1256,-0.1391,-0.1391,-0.1121,-0.1121,-0.1391,-0.0807,-0.0673,-0.0987,-0.0673,-0.0538,-0.0538,-0.0538,-0.0852,-0.139,-0.1076,-0.1166,-0.1345,-0.1076,-0.1166,-0.1391,0.0,0.0,0.2163,0.2359,0.242,0.2501,0.2722,0.3021,0.3232,0.0,0.3543,0.373,0.373,0.3301,0.3079,0.3235,0.2562,0.2149,0.2184,0.1912,0.1669,0.1491,0.1259,0.1127,0.1127,0.0819,0.0652,0.0652,0.0562,0.0517,0.0518,0.0582,0.0639,0.0705,0.0837,0.1011,0.1198,0.1276,0.1205,0.1059,0.1185,0.1241,0.1303,0.1398,0.1576,0.1759,0.1715,0.1598,0.152,0.1526,0.1547,0.1529,0.1453,0.141,0.1369,0.1179,0.1158,0.118,0.1052,0.1097,0.1196,0.1203,0.1286,0.0,0.1242,0.1299,0.1373,0.1306,0.1328,0.1331,0.139,0.0811,0.035,0.0352,0.0557,0.0411,-0.0407,-0.0449,-0.034,-0.0271,0.0039,0.0272,0.0272,0.0596,0.0806,0.0808,0.0786,0.0678,0.0605,0.0694,0.0701,0.067,0.0045,-0.0269,-0.0269,-0.0852,-0.1166,-0.1166,-0.0583,-0.0583,-0.1121,0.0134,0.0359,-0.0224,0.0403,0.0718,0.0718,0.0718,-0.0045,-0.1121,-0.0493,-0.0628,-0.1076,-0.0493,-0.0673,-0.1166,0.21,0.21,0.2163,0.2359,0.2539,0.2747,0.3058,0.3293,0.348,0.3581,0.3806,0.3943,0.3943,0.3838,0.3738,0.3609,0.3208,0.2901,0.2755,0.2289,0.1998,0.197,0.1565,0.1343,0.1343,0.1118,0.1007,0.1007,0.0774,0.0663,0.0663,0.0675,0.0691,0.0708,0.0834,0.0981,0.1122,0.1241,0.1303,0.1312,0.1363,0.1559,0.1838,0.1759,0.1907,0.2191,0.2179,0.2173,0.2158,0.1902,0.1782,0.1717,0.1602,0.1492,0.1402,0.1356,0.1271,0.12,0.1175,0.1149,0.1124,0.1191,0.1212,0.0,0.1277,0.1351,0.1373,0.1318,0.1439,0.1502,0.1356,0.1265,0.1291,0.1387,0.1436,0.1228,0.0526,0.1137,0.1653,0.1734,0.1814,0.1851,0.1851,0.1967,0.2088,0.2129,0.2218,0.1768,0.0592,0.1118,0.1219,0.0655,0.0533,0.0493,0.0493,0.0359,0.0269,0.0314,0.0403,0.0403,0.0314,0.0583,0.0628,0.0493,0.0628,0.0718,0.0718,0.0718,0.0538,0.0314,0.0448,0.0403,0.0314,0.0448,0.0403,0.0224,0.2147,0.2198,0.2319,0.2522,0.2688,0.2928,0.3293,0.35,0.3688,0.3971,0.4243,0.441,0.441,0.4311,0.42,0.4107,0.3798,0.3515,0.3312,0.2897,0.2575,0.2406,0.1981,0.17,0.1599,0.1374,0.1252,0.1252,0.1018,0.0953,0.1044,0.0942,0.1007,0.1195,0.1122,0.1209,0.1394,0.1319,0.138,0.1491,0.1544,0.1673,0.1855,0.1912,0.2108,0.2307,0.2364,0.2383,0.2355,0.2005,0.1925,0.1914,0.1739,0.1659,0.1572,0.1482,0.1372,0.1294,0.1263,0.1209,0.1165,0.1197,0.1204,0.0,0.0,0.1302,0.1341,0.131,0.139,0.1445,0.1408,0.1452,0.1531,0.1641,0.1654,0.1548,0.1251,0.1752,0.2177,0.2237,0.2245,0.2245,0.2245,0.2297,0.2332,0.2459,0.2522,0.2258,0.1569,0.1943,0.2062,0.1694,0.142,0.1256,0.1256,0.0897,0.0718,0.0718,0.1076,0.1076,0.0718,0.148,0.1615,0.1256,0.1615,0.1794,0.1794,0.1794,0.1794,0.1749,0.1391,0.1031,0.0762,0.1121,0.1031,0.0628,0.2187,0.2301,0.2461,0.2661,0.2847,0.3095,0.348,0.3692,0.3951,0.4351,0.4658,0.4857,0.4857,0.4707,0.4626,0.4626,0.4303,0.402,0.3834,0.349,0.3151,0.2808,0.2416,0.2119,0.1918,0.163,0.1477,0.1477,0.1263,0.1241,0.1399,0.123,0.1353,0.1699,0.1526,0.1613,0.1877,0.1589,0.166,0.1968,0.195,0.1861,0.1794,0.2225,0.2476,0.2623,0.2948,0.299,0.2861,0.2397,0.2283,0.2311,0.197,0.1834,0.1768,0.1595,0.1494,0.1415,0.1333,0.1262,0.1218,0.1225,0.1212,0.1204,0.0,0.0,0.0,0.1279,0.1297,0.1338,0.1446,0.1466,0.1482,0.153,0.1548,0.1569,0.1605,0.1823,0.2026,0.2123,0.2145,0.2152,0.2152,0.2184,0.2236,0.234,0.237,0.2462,0.2561,0.2646,0.2714,0.2764,0.2303,0.2019,0.2019,0.1436,0.1121,0.1121,0.1705,0.1705,0.1166,0.2379,0.2558,0.2064,0.2649,0.292,0.292,0.292,0.292,0.2829,0.2243,0.166,0.1211,0.1794,0.1615,0.1121,0.2144,0.227,0.2461,0.2661,0.2956,0.328,0.3617,0.3996,0.4363,0.4698,0.4922,0.5073,0.5073,0.5057,0.5019,0.5019,0.467,0.4387,0.4245,0.3858,0.3503,0.3163,0.2816,0.2536,0.2339,0.1951,0.1759,0.1759,0.1496,0.1377,0.1399,0.1377,0.1483,0.1715,0.1917,0.2217,0.2565,0.2228,0.2554,0.3258,0.2915,0.2439,0.2051,0.2995,0.3476,0.3741,0.4676,0.4959,0.476,0.3803,0.3376,0.3133,0.2383,0.1998,0.1793,0.1773,0.1647,0.1477,0.1418,0.133,0.129,0.128,0.1246,0.1204,0.1204,0.0,0.1217,0.1205,0.0,0.1308,0.133,0.0,0.0,0.1329,0.1374,0.1415,0.1348,0.1477,0.1668,0.1915,0.199,0.2024,0.2024,0.2129,0.2192,0.2224,0.2324,0.2425,0.2439,0.2601,0.2696,0.2702,0.277,0.2784,0.2784,0.2694,0.2649,0.2649,0.2739,0.2739,0.2649,0.2829,0.2873,0.2784,0.2873,0.292,0.292,0.292,0.292,0.2875,0.2829,0.2739,0.2649,0.2739,0.2739,0.2558,0.2239,0.244,0.2644,0.2695,0.3078,0.3456,0.3661,0.4197,0.4674,0.493,0.5325,0.5531,0.5416,0.5566,0.5615,0.5397,0.5135,0.4913,0.478,0.4383,0.4007,0.3676,0.3338,0.3009,0.2703,0.2447,0.226,0.2149,0.1916,0.1806,0.1802,0.1809,0.1973,0.2283,0.2391,0.2677,0.3033,0.2823,0.3063,0.3605,0.3654,0.3559,0.3515,0.3971,0.4372,0.4783,0.5243,0.5416,0.5352,0.4779,0.4185,0.3674,0.356,0.283,0.2084,0.2397,0.2104,0.1677,0.1651,0.1498,0.1368,0.1365,0.131,0.1249,0.1212,0.1204,0.1183,0.1093,0.0,0.0,0.0,0.0,0.0,0.0,0.121,0.1218,0.1192,0.1263,0.1406,0.1646,0.1728,0.1793,0.1864,0.1976,0.2082,0.2181,0.2237,0.2311,0.2414,0.2559,0.2655,0.2691,0.2811,0.292,0.292,0.292,0.292,0.292,0.292,0.292,0.292,0.292,0.292,0.292,0.292,0.292,0.292,0.292,0.292,0.292,0.292,0.292,0.292,0.292,0.292,0.2873,0.2342,0.2603,0.2813,0.2758,0.3244,0.3738,0.4069,0.4608,0.5064,0.5278,0.5626,0.586,0.578,0.5921,0.5967,0.5796,0.5571,0.5373,0.5169,0.4888,0.4542,0.4157,0.3821,0.348,0.3127,0.2872,0.266,0.2477,0.2282,0.2152,0.2104,0.2156,0.2387,0.2765,0.2911,0.3219,0.3623,0.3521,0.377,0.4248,0.4476,0.4851,0.53,0.5218,0.5582,0.6203,0.6244,0.631,0.626,0.5799,0.5168,0.4594,0.4662,0.3849,0.29,0.3287,0.2931,0.2379,0.2169,0.1952,0.1761,0.1514,0.1407,0.1337,0.1274,0.1236,0.12,0.1074,0.1038,0.0,0.0,0.0,0.101,0.0,0.0,0.1036,0.102,0.1086,0.1219,0.1425,0.151,0.1605,0.1737,0.1815,0.195,0.21,0.2159,0.2253,0.2327,0.2501,0.2612,0.2689,0.2831,0.2896,0.292,0.292,0.292,0.292,0.292,0.292,0.292,0.292,0.292,0.292,0.292,0.292,0.292,0.292,0.292,0.292,0.292,0.292,0.292,0.292,0.292,0.292,0.245,0.2673,0.29,0.29,0.3503,0.4248,0.5037,0.5326,0.5544,0.5755,0.5785,0.5898,0.6154,0.6016,0.5984,0.6174,0.6,0.5722,0.5313,0.5281,0.5036,0.4505,0.4165,0.389,0.3681,0.3163,0.2828,0.2686,0.2489,0.2291,0.2104,0.2299,0.2573,0.2918,0.343,0.3962,0.4471,0.4463,0.4867,0.5533,0.5481,0.6257,0.7353,0.6813,0.7289,0.8195,0.8195,0.8199,0.8048,0.7062,0.6561,0.6202,0.5402,0.484,0.4422,0.4447,0.4264,0.3863,0.3069,0.2869,0.2653,0.1816,0.1538,0.1477,0.1416,0.1337,0.1277,0.1211,0.1151,0.109,0.109,0.0,0.0,0.0,0.0,0.0,0.0,0.0916,0.0,0.0,0.1421,0.1528,0.1591,0.1729,0.1826,0.1915,0.2087,0.2215,0.2212,0.2379,0.2568,0.2688,0.2774,0.2835,0.2918,0.292,0.292,0.292,0.292,0.292,0.292,0.292,0.292,0.292,0.292,0.292,0.292,0.292,0.292,0.292,0.292,0.292,0.292,0.292,0.292,0.292,0.2707,0.2971,0.3165,0.2936,0.3507,0.424,0.4948,0.517,0.5344,0.5624,0.5972,0.6218,0.6335,0.6581,0.6701,0.6547,0.6482,0.631,0.6044,0.5945,0.5689,0.524,0.4909,0.4524,0.4101,0.3781,0.343,0.3029,0.2828,0.259,0.2307,0.2501,0.2709,0.293,0.3608,0.4133,0.451,0.4884,0.5415,0.6034,0.6596,0.7213,0.7801,0.7614,0.7866,0.8308,0.8473,0.8518,0.8442,0.7959,0.7359,0.6801,0.6727,0.5909,0.5017,0.5319,0.4931,0.4309,0.4038,0.3695,0.3277,0.2634,0.2302,0.2033,0.1577,0.141,0.1347,0.1287,0.1183,0.1081,0.1041,0.0,0.0,0.0,0.0,0.0,0.0,0.0,0.0888,0.0,0.0,0.0,0.0,0.0,0.1718,0.1817,0.1986,0.211,0.2179,0.2354,0.2488,0.257,0.2702,0.2804,0.2829,0.2873,0.292,0.292,0.292,0.292,0.292,0.292,0.292,0.292,0.292,0.292,0.292,0.292,0.292,0.292,0.292,0.292,0.292,0.292,0.292,0.292,0.2948,0.3166,0.3329,0.3109,0.3849,0.4629,0.5147,0.5436,0.568,0.593,0.6331,0.6636,0.6785,0.7047,0.7144,0.6997,0.691,0.6769,0.6526,0.6437,0.6212,0.5815,0.5458,0.508,0.4666,0.4296,0.3906,0.3478,0.3167,0.2864,0.2577,0.2713,0.2895,0.3143,0.3817,0.4282,0.4654,0.526,0.5778,0.6289,0.7159,0.7736,0.8109,0.8109,0.8227,0.8406,0.8567,0.8612,0.8592,0.843,0.7998,0.7504,0.7716,0.7,0.6151,0.6403,0.6001,0.5397,0.5058,0.4668,0.4201,0.3597,0.3195,0.2801,0.2141,0.1895,0.1722,0.1438,0.1256,0.1159,0.112,0.0997,0.0,0.0,0.0,0.0,0.0,0.074,0.0,0.0,0.0,0.0,0.0,0.0,0.1553,0.1722,0.1842,0.2002,0.2147,0.2271,0.2366,0.2507,0.2665,0.279,0.2782,0.2873,0.292,0.292,0.292,0.292,0.292,0.292,0.292,0.292,0.292,0.292,0.292,0.292,0.292,0.292,0.292,0.292,0.292,0.292,0.292,0.292,0.3185,0.3317,0.3462,0.3477,0.4489,0.5363,0.5565,0.6116,0.6524,0.6588,0.679,0.7088,0.7477,0.7371,0.7339,0.7558,0.7372,0.7119,0.68,0.678,0.6616,0.6281,0.5856,0.5543,0.5317,0.4686,0.4249,0.4008,0.3478,0.3119,0.2914,0.2906,0.3115,0.3527,0.4057,0.4494,0.4849,0.5579,0.6041,0.6338,0.7192,0.7821,0.8292,0.83,0.8414,0.8612,0.8612,0.8612,0.8612,0.8612,0.8494,0.8304,0.8292,0.8102,0.7788,0.7604,0.7387,0.7028,0.6117,0.5732,0.5401,0.4639,0.4161,0.3711,0.3119,0.2777,0.2386,0.1742,0.1485,0.1375,0.1352,0.1225,0.0,0.0,0.0,0.0,0.0,0.0,0.0,0.0,0.0,0.0,0.0,0.0,0.0,0.0,0.1726,0.0,0.0,0.2174,0.2284,0.2496,0.2626,0.2707,0.2773,0.2871,0.292,0.292,0.292,0.292,0.292,0.292,0.292,0.292,0.292,0.292,0.292,0.292,0.292,0.292,0.292,0.292,0.292,0.292,0.292,0.292,0.3825,0.4092,0.4413,0.4555,0.4893,0.5277,0.5631,0.5987,0.6312,0.6626,0.7109,0.7562,0.7913,0.8182,0.8338,0.8378,0.8342,0.8219,0.7963,0.7828,0.7509,0.6964,0.6599,0.6132,0.5531,0.5212,0.4767,0.4229,0.3781,0.3426,0.3119,0.2966,0.3115,0.3527,0.4057,0.4494,0.4849,0.5579,0.6298,0.7005,0.7626,0.8044,0.8304,0.8486,0.8571,0.8612,0.8612,0.8612,0.8612,0.8612,0.858,0.8514,0.8333,0.8227,0.8117,0.7931,0.7756,0.7573,0.7187,0.6832,0.6422,0.5637,0.5175,0.4758,0.4165,0.3813,0.3519,0.3189,0.2711,0.2289,0.2154,0.1642,0.1229,0.0,0.0,0.0,0.0,0.0,0.0,0.0698,0.0,0.0,0.0,0.0,0.0,0.0,0.0,0.0,0.2019,0.2145,0.224,0.2339,0.2542,0.2665,0.2737,0.2828,0.292,0.292,0.292,0.292,0.292,0.292,0.292,0.292,0.292,0.292,0.292,0.292,0.292,0.292,0.292,0.292,0.292,0.292,0.292,0.292,0.4219,0.4537,0.4921,0.5207,0.5432,0.5661,0.5888,0.6284,0.6712,0.7113,0.7626,0.8077,0.8465,0.8693,0.8811,0.885,0.8835,0.8728,0.8526,0.8418,0.8185,0.7774,0.7325,0.6826,0.622,0.5706,0.5203,0.4747,0.4227,0.3814,0.3539,0.328,0.3309,0.36,0.4094,0.4494,0.4861,0.5746,0.6591,0.7378,0.7829,0.8174,0.0,0.8571,0.8612,0.8612,0.8612,0.8612,0.8612,0.8612,0.8612,0.8592,0.8486,0.841,0.8377,0.8187,0.8069,0.7992,0.7764,0.7555,0.7223,0.6674,0.6275,0.5877,0.5173,0.4775,0.4459,0.4089,0.3627,0.324,0.3128,0.2421,0.1731,0.1322,0.0,0.0,0.0,0.0,0.0,0.0,0.0,0.0,0.0,0.0,0.0,0.0,0.0,0.0,0.1955,0.208,0.2204,0.2256,0.2436,0.257,0.2649,0.277,0.2873,0.2873,0.2875,0.292,0.292,0.292,0.292,0.292,0.292,0.292,0.292,0.292,0.292,0.292,0.292,0.292,0.292,0.292,0.292,0.292,0.4584,0.4883,0.5264,0.5628,0.6031,0.6332,0.6365,0.6851,0.7389,0.7835,0.8235,0.8647,0.9042,0.9114,0.9152,0.9174,0.9152,0.9108,0.8923,0.8914,0.8817,0.8631,0.8082,0.7576,0.7116,0.6252,0.569,0.5416,0.4783,0.4334,0.4086,0.375,0.3653,0.3789,0.415,0.456,0.5043,0.6034,0.6867,0.7549,0.7878,0.8247,0.8645,0.8645,0.8661,0.8677,0.8653,0.8629,0.8612,0.8612,0.8612,0.8612,0.8612,0.8612,0.858,0.8373,0.8325,0.8284,0.8101,0.7943,0.7824,0.7598,0.7339,0.6909,0.6224,0.5805,0.5409,0.4864,0.4478,0.4216,0.4182,0.3382,0.2466,0.1607,0.1317,0.1211,0.0,0.0,0.0,0.0,0.0,0.0,0.0,0.0,0.0,0.0,0.0,0.0,0.0,0.0,0.2098,0.2194,0.236,0.2507,0.2583,0.2729,0.2798,0.2784,0.2873,0.2875,0.292,0.292,0.292,0.292,0.292,0.292,0.292,0.292,0.292,0.292,0.292,0.292,0.292,0.292,0.292,0.292,0.5396,0.5727,0.6012,0.6083,0.6606,0.7085,0.7234,0.7375,0.765,0.8217,0.8647,0.9035,0.9456,0.971,0.9912,1.0053,1.0051,1.0037,0.994,0.9949,0.9696,0.9164,0.8884,0.8431,0.776,0.7263,0.6664,0.5967,0.5567,0.5103,0.4569,0.4238,0.4092,0.4118,0.4359,0.5023,0.5971,0.6436,0.7058,0.7771,0.7931,0.8321,0.8775,0.8775,0.8873,0.8986,0.8832,0.8686,0.8612,0.8612,0.8612,0.8612,0.8612,0.8612,0.8604,0.8571,0.8563,0.8522,0.8292,0.8219,0.8154,0.7967,0.7768,0.761,0.75,0.7143,0.6813,0.6592,0.5963,0.5375,0.5058,0.4217,0.3314,0.2502,0.2247,0.231,0.0,0.0,0.0,0.0,0.0,0.1174,0.0,0.0,0.0,0.0,0.0,0.0,0.0,0.0,0.2023,0.2199,0.2298,0.2385,0.2501,0.2644,0.2758,0.2784,0.2829,0.2829,0.292,0.292,0.292,0.292,0.292,0.292,0.292,0.292,0.292,0.292,0.292,0.292,0.292,0.292,0.292,0.292,0.6365,0.6452,0.6558,0.6695,0.7256,0.774,0.7929,0.8136,0.8382,0.8685,0.9181,0.9625,0.9937,1.0149,1.036,1.0469,1.0474,1.0425,1.0426,1.0389,1.0301,0.9971,0.9577,0.9099,0.8546,0.783,0.7118,0.6405,0.5939,0.5472,0.5009,0.475,0.4569,0.4521,0.4784,0.5405,0.624,0.6669,0.7229,0.7824,0.8048,0.8422,0.882,0.882,0.8934,0.9088,0.8995,0.8848,0.8686,0.8641,0.8612,0.8612,0.8612,0.8612,0.8612,0.874,0.874,0.8763,0.8801,0.8733,0.8558,0.8367,0.8176,0.8053,0.7914,0.7691,0.749,0.7422,0.7015,0.6453,0.5755,0.4731,0.387,0.3496,0.2913,0.273,0.3374,0.0,0.0,0.0,0.0,0.0,0.0,0.0,0.0,0.0,0.0,0.0,0.0,0.1805,0.195,0.2134,0.22,0.2295,0.243,0.2628,0.2724,0.2737,0.2799,0.2873,0.292,0.292,0.292,0.292,0.292,0.292,0.292,0.292,0.292,0.292,0.292,0.292,0.292,0.292,0.3053,0.323,0.7328,0.7323,0.7351,0.7393,0.7902,0.8354,0.8566,0.8954,0.9223,0.9223,0.9691,1.0094,1.0355,1.0526,1.0635,1.0636,1.0641,1.066,1.0702,1.0754,1.0688,1.0687,1.0151,0.9721,0.9312,0.8394,0.76,0.6998,0.6395,0.5811,0.531,0.5194,0.5109,0.5022,0.5319,0.5792,0.6391,0.6904,0.7392,0.7882,0.8162,0.8528,0.8881,0.8881,0.9015,0.9206,0.9165,0.9035,0.8852,0.8678,0.8641,0.8612,0.8612,0.8612,0.8656,0.8823,0.8911,0.8955,0.9218,0.913,0.896,0.8807,0.8602,0.8394,0.8246,0.8078,0.7954,0.7967,0.7805,0.7303,0.6262,0.5397,0.4727,0.4414,0.3701,0.3386,0.3976,0.0,0.0,0.0,0.0,0.0,0.0,0.0,0.0,0.0,0.0,0.0,0.1761,0.1838,0.193,0.207,0.2218,0.233,0.2393,0.2577,0.2705,0.2689,0.2828,0.2875,0.292,0.292,0.2963,0.3053,0.3053,0.3053,0.3053,0.2963,0.292,0.292,0.292,0.292,0.292,0.3008,0.3275,0.3544,0.8226,0.8608,0.884,0.813,0.8519,0.8966,0.9164,0.9597,0.9909,0.9909,0.9961,1.0146,1.0545,1.0607,1.065,1.0849,1.0868,1.0943,1.1127,1.1137,1.1057,1.0872,1.0641,1.0319,0.9947,0.9225,0.859,0.7955,0.7371,0.6469,0.5297,0.5539,0.5667,0.5712,0.5918,0.6316,0.6873,0.7278,0.7646,0.8008,0.8211,0.8605,0.9072,0.9072,0.9283,0.9555,0.9437,0.9218,0.9043,0.8861,0.8694,0.8612,0.8612,0.8612,0.8656,0.8823,0.8911,0.8955,0.9218,0.9301,0.9257,0.9235,0.9061,0.8838,0.8817,0.8665,0.8522,0.8506,0.826,0.7713,0.6572,0.6654,0.6476,0.5062,0.4965,0.5097,0.5236,0.4071,0.3578,0.0,0.0,0.0,0.0,0.2779,0.0,0.0,0.0,0.0,0.0,0.2083,0.211,0.2008,0.2368,0.2477,0.2312,0.2496,0.2627,0.2723,0.2778,0.2829,0.292,0.292,0.3142,0.3542,0.3542,0.3542,0.3497,0.3097,0.292,0.292,0.292,0.292,0.2963,0.3365,0.3544,0.3676,1.0227,1.0513,1.0693,1.039,1.0897,1.1385,1.1439,1.1869,1.2243,1.2394,1.1334,1.0584,1.0749,1.0872,1.0981,1.1066,1.1075,1.1109,1.1189,1.1194,1.1161,1.1075,1.0877,1.0575,1.0198,0.9526,0.8897,0.8274,0.7679,0.7047,0.644,0.6374,0.6385,0.6467,0.6595,0.6872,0.7286,0.7693,0.797,0.8203,0.8495,0.8804,0.9108,0.9214,0.9505,0.9813,0.9788,0.9667,0.9499,0.9284,0.8935,0.8612,0.8612,0.8696,0.8828,0.9087,0.9213,0.9388,0.965,0.9607,0.9476,0.9476,0.9301,0.913,0.913,0.907,0.9022,0.9036,0.8719,0.8319,0.7848,0.7315,0.6836,0.6661,0.6266,0.6089,0.6437,0.596,0.0,0.5774,0.0,0.0,0.0,0.0,0.0,0.0,0.0,0.0,0.0,0.2408,0.2488,0.2609,0.2587,0.2609,0.2663,0.2644,0.2675,0.2694,0.2829,0.3008,0.332,0.332,0.3587,0.4032,0.4032,0.3853,0.3587,0.3409,0.332,0.332,0.332,0.3499,0.3765,0.3942,0.421,0.4478,1.206,1.227,1.2435,1.2277,1.2745,1.3169,1.3205,1.3536,1.3878,1.4054,1.2822,1.1786,1.1456,1.1303,1.1194,1.1194,1.1194,1.1194,1.1194,1.1194,1.1194,1.1194,1.1005,1.0731,1.0412,0.98,0.9204,0.8585,0.8014,0.7541,0.7064,0.6826,0.6878,0.7164,0.7259,0.75,0.7776,0.8272,0.8472,0.8488,0.8849,0.9103,0.9233,0.9451,0.9708,1.0019,1.0068,0.997,0.9786,0.9558,0.9133,0.8696,0.8696,0.8784,0.8955,0.9305,0.9476,0.9646,0.9907,0.9864,0.9733,0.9733,0.9563,0.9388,0.9388,0.9388,0.9378,0.9394,0.9121,0.8845,0.8722,0.7893,0.7307,0.7601,0.7178,0.6902,0.7104,0.7095,0.6929,0.652,0.6038,0.5638,0.5421,0.4699,0.0,0.0,0.0,0.0,0.0,0.2767,0.2865,0.3015,0.2987,0.3017,0.3177,0.3129,0.3121,0.3139,0.3275,0.3499,0.381,0.3942,0.421,0.452,0.452,0.4255,0.381,0.3676,0.3587,0.3587,0.3587,0.39,0.43,0.4476,0.4699,0.501,1.3388,1.3722,1.3916,1.3368,1.3507,1.3738,1.3966,1.3969,1.4066,1.4279,1.4262,1.3878,1.2775,1.177,1.1194,1.1194,1.1194,1.1194,1.1194,1.1194,1.1194,1.1194,1.1005,1.0792,1.0621,1.0203,0.9681,0.8976,0.8595,0.7833,0.6791,0.6605,0.6979,0.7792,0.7996,0.8212,0.8415,0.9045,0.9122,0.8941,0.9313,0.9434,0.9448,0.9688,0.9902,1.0019,1.0314,1.0162,0.9786,0.9558,0.922,0.8911,0.8911,0.8911,0.8999,0.9471,0.9602,0.9646,0.9907,0.9994,0.9994,0.9994,0.9777,0.9602,0.9602,0.9602,0.9591,0.9602,0.9428,0.919,0.8779,0.8533,0.8143,0.7437,0.7563,0.7607,0.7091,0.6894,0.6705,0.6421,0.5346,0.4826,0.5357,0.4426,0.0,0.0,0.0,0.0,0.305,0.3173,0.3218,0.3111,0.3532,0.3809,0.3885,0.3934,0.4063,0.4164,0.4253,0.43,0.43,0.4788,0.4966,0.501,0.501,0.4743,0.4255,0.381,0.3587,0.3587,0.3587,0.39,0.4342,0.4832,0.501,0.5055,1.509,1.539,1.5603,1.5439,1.5666,1.5903,1.5961,1.6142,1.6268,1.6358,1.5751,1.5175,1.4841,1.3258,1.2204,1.2204,1.158,1.1194,1.1194,1.1194,1.1194,1.1194,1.1132,1.1005,1.0797,1.0431,1.0047,0.97,0.9096,0.8581,0.8077,0.8042,0.8231,0.8633,0.8693,0.8901,0.9237,0.9411,0.9544,0.9583,0.9695,0.9685,0.97,0.9879,1.0066,1.0314,1.056,1.0546,1.0297,1.0065,0.9714,0.9388,0.9388,0.9301,0.9213,0.9519,0.9733,0.9907,0.9994,0.9994,0.9994,0.9994,0.9951,0.9864,0.9864,0.9864,0.9889,0.9871,0.9686,0.946,0.9329,0.9136,0.8885,0.8525,0.8557,0.8454,0.8029,0.7932,0.7766,0.7388,0.6892,0.6591,0.6617,0.5897,0.5418,0.0,0.0,0.0,0.3981,0.4027,0.4003,0.392,0.3855,0.3957,0.4241,0.4095,0.4065,0.4202,0.4247,0.4472,0.4788,0.5282,0.5463,0.5463,0.5463,0.5191,0.4788,0.461,0.4565,0.4565,0.4565,0.4835,0.5285,0.5419,0.5463,0.5508,1.6243,1.6418,1.6631,1.6711,1.6901,1.7033,1.7033,1.7201,1.7279,1.7279,1.6756,1.6372,1.6372,1.4883,1.3692,1.3355,1.2732,1.2349,1.2349,1.2349,1.2155,1.177,1.177,1.1482,1.0901,1.0641,1.0407,1.0118,0.9601,0.9304,0.9171,0.9171,0.9242,0.9374,0.9455,0.9625,0.9862,1.0015,1.009,1.0153,1.0154,1.0035,0.9902,1.0168,1.0364,1.0462,1.0806,1.0785,1.0575,1.0297,0.9935,0.9602,0.9602,0.9519,0.9476,0.9689,0.9864,0.9994,0.9994,0.9994,0.9994,0.9994,0.9994,0.9994,0.9994,0.9994,0.9994,0.9994,0.979,0.9602,0.9602,0.9428,0.9244,0.9117,0.9032,0.8891,0.8675,0.8566,0.8314,0.78,0.761,0.7427,0.7158,0.673,0.6404,0.62,0.5923,0.5626,0.5395,0.4935,0.4812,0.5002,0.4728,0.476,0.5113,0.4753,0.4648,0.4783,0.4783,0.4964,0.528,0.5552,0.5688,0.5688,0.5688,0.5416,0.501,0.501,0.501,0.501,0.501,0.528,0.5688,0.5688,0.5688,0.5688,1.6873,1.6932,1.7027,1.7274,1.7279,1.7279,1.7279,1.7279,1.7279,1.7279,1.7279,1.7279,1.7279,1.6466,1.5507,1.4603,1.4364,1.4316,1.4316,1.4316,1.3836,1.2872,1.2829,1.2298,1.1153,1.1139,1.0885,1.0426,1.0308,1.0168,1.0037,1.0125,1.0125,1.0047,1.0251,1.035,1.0388,1.0731,1.0762,1.0551,1.0733,1.0507,1.0117,1.0609,1.0659,1.0511,1.0998,1.0924,1.0575,1.0297,0.998,0.9646,0.9646,0.9646,0.9689,0.9907,0.9994,0.9994,0.9994,0.9994,0.9994,0.9994,0.9994,0.9994,0.9994,0.9994,0.9994,0.9994,0.98,0.9625,0.9625,0.946,0.9324,0.9305,0.9136,0.8999,0.8985,0.8836,0.8439,0.7764,0.7655,0.7513,0.7138,0.7091,0.7179,0.7452,0.7494,0.7359,0.7061,0.6007,0.5672,0.6228,0.607,0.6118,0.6395,0.586,0.5599,0.5688,0.5688,0.5688,0.5688,0.5688,0.5688,0.5688,0.5688,0.5463,0.5055,0.5055,0.5055,0.5055,0.5055,0.5327,0.5688,0.5688,0.5688,0.5688,1.7201,1.7216,1.7245,1.7271,1.7279,1.7279,1.7279,1.7279,1.7279,1.7279,1.7279,1.7279,1.7279,1.7091,1.685,1.6608,1.5175,1.4316,1.4316,1.4316,1.4172,1.3926,1.3932,1.3807,1.3515,1.3325,1.2754,1.1673,1.2468,1.1995,1.0469,1.1232,1.1187,1.0474,1.0526,1.0594,1.0754,1.0853,1.0933,1.103,1.0881,1.0703,1.0605,1.0752,1.0752,1.0752,1.1096,1.0924,1.0575,1.0528,1.0251,0.9907,0.9907,0.9907,0.9907,0.9994,0.9994,0.9994,0.9994,0.9994,0.9994,0.9994,0.9994,0.9994,0.9994,0.9994,0.9994,0.9994,0.9956,0.9923,0.9923,0.9881,0.9752,0.9555,0.9348,0.9159,0.9009,0.8836,0.8647,0.8444,0.8305,0.8176,0.8083,0.7926,0.771,0.7381,0.7477,0.7542,0.7477,0.7484,0.7286,0.6818,0.675,0.6927,0.7375,0.6672,0.6142,0.5688,0.5688,0.5688,0.5688,0.5688,0.5688,0.5688,0.5688,0.5644,0.5552,0.5552,0.5552,0.5552,0.5552,0.5599,0.5688,0.5688,0.5688,0.5688,1.7279,1.7279,1.7279,1.7279,1.7279,1.7279,1.7279,1.7279,1.7279,1.7279,1.7279,1.7279,1.7279,1.7279,1.7279,1.7279,1.6318,1.565,1.565,1.565,1.546,1.5032,1.4984,1.4794,1.4316,1.4176,1.3802,1.3088,1.3694,1.3421,1.2303,1.235,1.2068,1.1554,1.1091,1.0924,1.1033,1.1033,1.1094,1.1194,1.1047,1.09,1.0806,1.0953,1.1189,1.1477,1.1292,1.1254,1.1206,1.0755,1.0341,0.9994,0.9994,0.9994,0.9994,0.9994,0.9994,0.9994,0.9994,0.9994,0.9994,0.9994,0.9994,0.9994,0.9994,0.9994,0.9994,0.9994,0.9994,0.9994,0.9994,0.9994,0.9961,0.9804,0.9606,0.939,0.9282,0.9079,0.8987,0.8987,0.8892,0.8822,0.8822,0.8718,0.8538,0.823,0.8329,0.8387,0.8387,0.858,0.8467,0.7927,0.7794,0.7837,0.8116,0.7459,0.6833,0.6213,0.6213,0.6038,0.5688,0.5688,0.5688,0.5688,0.5688,0.5688,0.5686,0.5629,0.5607,0.5602,0.5589,0.5567,0.5567,0.5567,0.5567,0.5567,1.7279,1.7279,1.7279,1.7279,1.7279,1.7279,1.7279,1.7279,1.7279,1.7279,1.7279,1.7279,1.7279,1.7279,1.7279,1.7279,1.7279,1.7279,1.7279,1.7279,1.6897,1.6082,1.6035,1.5609,1.4794,1.4746,1.4698,1.4555,1.4698,1.4603,1.4268,1.3499,1.3065,1.292,1.2058,1.158,1.1433,1.1433,1.134,1.1194,1.1194,1.1047,1.0904,1.1096,1.1673,1.229,1.1673,1.1725,1.1976,1.1119,1.0561,1.0168,1.0038,1.0081,1.0168,1.0038,0.9994,0.9994,0.9994,0.9994,0.9994,0.9994,0.9994,0.9994,0.9994,0.9994,0.9994,0.9994,0.9994,0.9994,0.9994,0.9994,0.9994,0.9994,0.9776,0.9602,0.9602,0.9418,0.9282,0.9282,0.9282,0.9282,0.9282,0.9282,0.9282,0.9282,0.9315,0.9333,0.9333,0.938,0.9311,0.9165,0.8887,0.8719,0.8657,0.8205,0.7603,0.6953,0.6953,0.6561,0.5863,0.5863,0.5819,0.5688,0.5688,0.568,0.5653,0.5551,0.5497,0.547,0.5409,0.541,0.541,0.541,0.541,0.541,1.7279,1.7279,1.7279,1.7279,1.7279,1.7279,1.7279,1.7279,1.7279,1.7279,1.7279,1.7279,1.7279,1.7279,1.7279,1.7279,1.7279,1.7279,1.7279,1.7279,1.7232,1.7091,1.7091,1.699,1.685,1.685,1.6419,1.5561,1.6419,1.594,1.4316,1.4984,1.4889,1.4028,1.3884,1.3307,1.249,1.249,1.196,1.1194,1.1194,1.1198,1.1145,1.1194,1.1819,1.263,1.249,1.2331,1.2067,1.193,1.1536,1.0982,1.0207,1.0511,1.0939,1.0207,0.9994,0.9994,0.9994,0.9994,0.9994,0.9994,0.9994,0.9994,0.9994,0.9994,0.9994,0.9994,0.9994,0.9994,0.9994,0.9994,0.9994,0.9994,0.9776,0.9602,0.9602,0.9418,0.9282,0.9282,0.9282,0.9282,0.9282,0.9282,0.9282,0.9282,0.9451,0.9555,0.9555,0.9781,0.9862,0.9841,0.9567,0.9252,0.8839,0.8755,0.8368,0.7658,0.7658,0.7305,0.665,0.665,0.6302,0.5688,0.5688,0.5629,0.5534,0.5516,0.5448,0.5396,0.5418,0.541,0.541,0.541,0.541,0.541,1.7279,1.7279,1.7279,1.7279,1.7279,1.7279,1.7279,1.7279,1.7279,1.7279,1.7279,1.7279,1.7279,1.7279,1.7279,1.7279,1.7279,1.7279,1.7279,1.7279,1.7279,1.7279,1.7279,1.7279,1.7279,1.7279,1.7091,1.6608,1.7091,1.685,1.5893,1.5846,1.5555,1.508,1.4555,1.4028,1.3499,1.2969,1.2441,1.1965,1.1438,1.1194,1.1194,1.1194,1.2155,1.3499,1.292,1.3127,1.3568,1.3024,1.2509,1.1912,1.0982,1.0982,1.1111,1.025,0.9994,0.9994,0.9994,0.9994,0.9994,0.9994,0.9994,0.9994,0.9994,0.9994,0.9994,0.9994,0.9994,0.9994,0.9994,0.9994,0.9994,0.9994,0.9914,0.9809,0.9809,0.9724,0.9663,0.9663,0.9663,0.9663,0.9663,0.9663,0.9663,0.9663,0.9752,0.9809,0.9809,0.9942,0.9994,0.9994,0.9885,0.9694,0.9483,0.9506,0.9117,0.8404,0.8009,0.7658,0.7305,0.6564,0.6257,0.6254,0.5863,0.5621,0.5502,0.548,0.5382,0.5265,0.5203,0.5178,0.5178,0.5178,0.5178,0.5178,1.7279,1.7279,1.7279,1.7279,1.7279,1.7279,1.7279,1.7279,1.7279,1.7279,1.7279,1.7279,1.7279,1.7279,1.7279,1.7279,1.7279,1.7279,1.7279,1.7279,1.7279,1.7279,1.7279,1.7279,1.7279,1.7279,1.7279,1.7279,1.7279,1.7279,1.7279,1.6513,1.6129,1.6136,1.5317,1.4889,1.4603,1.3782,1.3307,1.3017,1.2252,1.1917,1.1868,1.1624,1.2829,1.4507,1.3451,1.3877,1.4885,1.4122,1.3479,1.2851,1.1918,1.1617,1.1451,1.0549,1.0168,0.9994,0.9994,0.9994,0.9994,0.9994,0.9994,0.9994,0.9994,0.9994,0.9994,0.9994,0.9994,0.9994,0.9994,0.9994,0.9994,0.9994,0.9994,0.9994,0.9994,0.9994,0.9994,0.9994,0.9994,0.9994,0.9994,0.9994,0.9994,0.9994,0.9994,0.9994,0.9994,0.9994,0.9994,0.9994,0.9994,0.9994,0.9994,0.9994,0.9728,0.9152,0.8584,0.8229,0.8009,0.6741,0.6432,0.6776,0.6007,0.5578,0.5456,0.5377,0.5254,0.5137,0.505,0.5018,0.5018,0.5018,0.5018,0.5018,1.7279,1.7279,1.7279,1.7279,1.7279,1.7279,1.7279,1.7279,1.7279,1.7279,1.7279,1.7279,1.7279,1.7279,1.7279,1.7279,1.7279,1.7279,1.7279,1.7279,1.7279,1.7279,1.7279,1.7279,1.7279,1.7279,1.7279,1.7279,1.7279,1.7279,1.7279,1.7232,1.7185,1.7185,1.7091,1.656,1.5704,1.5602,1.5032,1.4172,1.4124,1.4076,1.398,1.2969,1.3878,1.5555,1.4555,1.4536,1.4975,1.493,1.4492,1.3837,1.2893,1.2589,1.2419,1.1494,1.0641,0.9994,0.9994,0.9994,0.9994,0.9994,0.9994,0.9994,0.9994,0.9994,0.9994,0.9994,0.9994,0.9994,0.9994,0.9994,0.9994,0.9994,0.9994,0.9994,0.9994,0.9994,0.9994,0.9994,0.9994,0.9994,0.9994,0.9994,0.9994,0.9994,0.9994,0.9994,0.9994,0.9994,0.9994,0.9994,0.9994,0.9994,0.9994,0.9994,0.9994,0.9907,0.9859,0.9462,0.8803,0.8009,0.7349,0.6773,0.5869,0.5494,0.5416,0.5252,0.5132,0.5029,0.5021,0.5018,0.5018,0.5018,0.5018,0.5018,1.7279,1.7279,1.7279,1.7279,1.7279,1.7279,1.7279,1.7279,1.7279,1.7279,1.7279,1.7279,1.7279,1.7279,1.7279,1.7279,1.7279,1.7279,1.7279,1.7279,1.7279,1.7279,1.7279,1.7279,1.7279,1.7279,1.7279,1.7279,1.7279,1.7279,1.7279,1.7279,1.7279,1.7279,1.7279,1.7091,1.6702,1.6082,1.5555,1.5175,1.4555,1.4316,1.4172,1.3113,1.3974,1.565,1.4651,1.5001,1.5873,1.5873,1.5425,1.4741,1.3837,1.3578,1.3281,1.1752,1.0679,0.9994,0.9994,0.9994,0.9994,0.9994,0.9994,0.9994,0.9994,0.9994,0.9994,0.9994,0.9994,0.9994,0.9994,0.9994,0.9994,0.9994,0.9994,0.9994,0.9994,0.9994,0.9994,0.9994,0.9994,0.9994,0.9994,0.9994,0.9994,0.9994,0.9994,0.9994,0.9994,0.9994,0.9994,0.9994,0.9994,0.9994,0.9994,0.9994,0.9994,0.9994,0.955,0.9419,0.951,0.7921,0.7261,0.7339,0.6074,0.5483,0.5402,0.5238,0.5121,0.5018,0.5018,0.5018,0.5018,0.5018,0.5018,0.5018,1.7279,1.7279,1.7279,1.7279,1.7279,1.7279,1.7279,1.7279,1.7279,1.7279,1.7279,1.7279,1.7279,1.7279,1.7279,1.7279,1.7279,1.7279,1.7279,1.7279,1.7279,1.7279,1.7279,1.7279,1.7279,1.7279,1.7279,1.7279,1.7279,1.7279,1.7279,1.7279,1.7279,1.7279,1.7279,1.7279,1.7232,1.656,1.6271,1.6224,1.5507,1.5222,1.5127,1.407,1.474,1.6129,1.5127,1.5524,1.6551,1.6448,1.6016,1.5429,1.4734,1.4314,1.3711,1.1837,1.0895,1.0337,1.0081,0.9994,0.9994,0.9994,0.9994,0.9994,0.9994,0.9994,0.9994,0.9994,0.9994,0.9994,0.9994,0.9994,0.9994,0.9994,0.9994,0.9994,0.9994,0.9994,0.9994,0.9994,0.9994,0.9994,0.9994,0.9994,0.9994,0.9994,0.9994,0.9994,0.9994,0.9994,0.9994,0.9994,0.9994,0.9994,0.9994,0.9994,0.9994,0.9994,0.9506,0.951,0.9951,0.8009,0.7369,0.7665,0.6141,0.5426,0.5344,0.5181,0.5089,0.5018,0.5018,0.5018,0.5018,0.5018,0.5018,0.5018,1.7279,1.7279,1.7279,1.7279,1.7279,1.7279,1.7279,1.7279,1.7279,1.7279,1.7279,1.7279,1.7279,1.7279,1.7279,1.7279,1.7279,1.7279,1.7279,1.7279,1.7279,1.7279,1.7279,1.7279,1.7279,1.7279,1.7279,1.7279,1.7279,1.7279,1.7279,1.7279,1.7279,1.7279,1.7279,1.7279,1.7279,1.7279,1.7279,1.7279,1.7279,1.7279,1.7185,1.6177,1.6419,1.7185,1.6177,1.6271,1.6851,1.6521,1.617,1.5862,1.5491,1.4783,1.3711,1.188,1.1327,1.1111,1.0255,0.9994,0.9994,0.9994,0.9994,0.9994,0.9994,0.9994,0.9994,0.9994,0.9994,0.9994,0.9994,0.9994,0.9994,0.9994,0.9994,0.9994,0.9994,0.9994,0.9994,0.9994,0.9994,0.9994,0.9994,0.9994,0.9994,0.9994,0.9994,0.9994,0.9994,0.9994,0.9994,0.9994,0.9994,0.9994,0.9994,0.9994,0.9994,0.9994,0.9994,0.9994,0.9951,0.8492,0.7791,0.7638,0.6089,0.5339,0.5178,0.5064,0.5018,0.5018,0.5018,0.5018,0.5018,0.5018,0.5018,0.5018,1.7279,1.7279,1.7279,1.7279,1.7279,1.7279,1.7279,1.7279,1.7279,1.7279,1.7279,1.7279,1.7279,1.7279,1.7279,1.7279,1.7279,1.7279,1.7279,1.7279,1.7279,1.7279,1.7279,1.7279,1.7279,1.7279,1.7279,1.7279,1.7279,1.7279,1.7279,1.7279,1.7279,1.7279,1.7279,1.7279,1.7279,1.7279,1.7279,1.7279,1.7279,1.7279,1.7185,1.6177,1.6419,1.7185,1.6177,1.6271,1.6851,1.6521,1.617,1.5862,1.5491,1.4783,1.3837,1.2638,1.1832,1.1111,1.0255,0.9994,0.9994,0.9994,0.9994,0.9994,0.9994,0.9994,0.9994,0.9994,0.9994,0.9994,0.9994,0.9994,0.9994,0.9994,0.9994,0.9994,0.9994,0.9994,0.9994,0.9994,0.9994,0.9994,0.9994,0.9994,0.9994,0.9994,0.9994,0.9994,0.9994,0.9994,0.9994,0.9994,0.9994,0.9994,0.9994,0.9994,0.9994,0.9994,0.9994,0.9994,0.9946,0.8849,0.8333,0.8268,0.7058,0.627,0.5824,0.5689,0.5362,0.5018,0.5018,0.5018,0.5018,0.5018,0.5018,0.5018,1.7279,1.7279,1.7279,1.7279,1.7279,1.7279,1.7279,1.7279,1.7279,1.7279,1.7279,1.7279,1.7279,1.7279,1.7279,1.7279,1.7279,1.7279,1.7279,1.7279,1.7279,1.7279,1.7279,1.7279,1.7279,1.7279,1.7279,1.7279,1.7279,1.7279,1.7279,1.7279,1.7279,1.7279,1.7279,1.7279,1.7279,1.7279,1.7279,1.7279,1.7279,1.7279,1.7232,1.6615,1.6756,1.7232,1.6608,1.6682,1.6974,1.6565,1.6082,1.5687,1.5447,1.5041,1.444,1.3535,1.2595,1.166,1.0766,1.025,0.9994,0.9994,0.9994,0.9994,0.9994,0.9994,0.9994,0.9994,0.9994,0.9994,0.9994,0.9994,0.9994,0.9994,0.9994,0.9994,0.9994,0.9994,0.9994,0.9994,0.9994,0.9994,0.9994,0.9994,0.9994,0.9994,0.9994,0.9994,0.9994,0.9994,0.9994,0.9994,0.9994,0.9994,0.9994,0.9914,0.9914,0.9994,0.9914,0.9833,0.9823,0.889,0.8472,0.835,0.7398,0.6636,0.6024,0.5938,0.5556,0.5018,0.5018,0.5018,0.5018,0.5018,0.5018,0.5018,1.7279,1.7279,1.7279,1.7279,1.7279,1.7279,1.7279,1.7279,1.7279,1.7279,1.7279,1.7279,1.7279,1.7279,1.7279,1.7279,1.7279,1.7279,1.7279,1.7279,1.7279,1.7279,1.7279,1.7279,1.7279,1.7279,1.7279,1.7279,1.7279,1.7279,1.7279,1.7279,1.7279,1.7279,1.7279,1.7279,1.7279,1.7279,1.7279,1.7279,1.7279,1.7279,1.7279,1.7279,1.7279,1.7279,1.7279,1.7279,1.723,1.6587,1.5965,1.5425,1.5396,1.5389,1.5215,1.4356,1.3493,1.2589,1.158,1.0722,1.0081,1.0038,0.9994,0.9994,0.9994,0.9994,0.9994,0.9994,0.9994,0.9994,0.9994,0.9994,0.9994,0.9994,0.9994,0.9994,0.9994,0.9994,0.9994,0.9994,0.9994,0.9994,0.9994,0.9994,0.9994,0.9994,0.9994,0.9994,0.9994,0.9994,0.9994,0.9994,0.9956,0.9947,0.9966,0.9719,0.9719,0.9966,0.9715,0.9573,0.9527,0.873,0.8303,0.8149,0.7454,0.6727,0.6054,0.6054,0.5709,0.5171,0.5093,0.5093,0.5054,0.5018,0.5018,0.5018,1.7279,1.7279,1.7279,1.7279,1.7279,1.7279,1.7279,1.7279,1.7279,1.7279,1.7279,1.7279,1.7279,1.7279,1.7279,1.7279,1.7279,1.7279,1.7279,1.7279,1.7279,1.7279,1.7279,1.7279,1.7279,1.7279,1.7279,1.7279,1.7279,1.7279,1.7279,1.7279,1.7279,1.7279,1.7279,1.7279,1.7279,1.7279,1.7279,1.7279,1.7279,1.7279,1.7279,1.7279,1.7279,1.7279,1.7279,1.7279,1.723,1.6587,1.6118,1.5767,1.5469,1.5389,1.5215,1.4356,1.3971,1.3415,1.1752,1.1154,1.0852,1.0168,0.9994,0.9994,0.9994,0.9994,0.9994,0.9994,0.9994,0.9994,0.9994,0.9994,0.9994,0.9994,0.9994,0.9994,0.9994,0.9994,0.9994,0.9994,0.9994,0.9994,0.9994,0.9994,0.9994,0.9994,0.9994,0.9994,0.9994,0.9994,0.9994,0.9994,0.9808,0.9675,0.9667,0.946,0.946,0.9667,0.9456,0.9352,0.9348,0.902,0.8825,0.8779,0.8453,0.7974,0.7399,0.7399,0.7015,0.644,0.5902,0.5709,0.5631,0.5171,0.5018,0.5018,1.7326,1.7279,1.7279,1.7279,1.7279,1.7279,1.7279,1.7279,1.7279,1.7279,1.7279,1.7279,1.7279,1.7279,1.7279,1.7279,1.7279,1.7279,1.7279,1.7279,1.7279,1.7279,1.7279,1.7279,1.7279,1.7426,1.7426,1.7279,1.7279,1.7279,1.7279,1.7279,1.7279,1.7279,1.7279,1.7279,1.7279,1.7279,1.7279,1.7279,1.7279,1.7279,1.7279,1.7279,1.7279,1.7279,1.7279,1.723,1.7026,1.658,1.617,1.5862,1.5491,1.5389,1.5305,1.4873,1.444,1.3886,1.2899,1.2303,1.1746,1.0852,1.0641,1.0511,1.0081,0.9994,0.9994,0.9994,0.9994,0.9994,0.9994,0.9994,0.9994,0.9994,0.9994,0.9994,0.9994,0.9994,0.9994,0.9994,0.9994,0.9994,0.9994,0.9994,0.9994,0.9994,0.9994,0.9946,0.9811,0.9811,0.9765,0.9658,0.9528,0.9466,0.9451,0.9244,0.9197,0.9305,0.9197,0.9141,0.9136,0.8963,0.8869,0.8864,0.8751,0.8356,0.7783,0.7783,0.7437,0.6865,0.6518,0.6363,0.6286,0.5673,0.5249,0.5018,1.7473,1.738,1.738,1.738,1.7326,1.7279,1.7279,1.7279,1.7279,1.7279,1.7279,1.7333,1.738,1.7426,1.7426,1.7426,1.738,1.738,1.7419,1.738,1.738,1.7419,1.7426,1.7426,1.7426,1.7667,1.7621,1.738,1.7426,1.7426,1.738,1.738,1.7333,1.7279,1.7333,1.7333,1.7279,1.7333,1.7333,1.7279,1.7279,1.7326,1.738,1.7333,1.7326,1.738,1.7333,1.7157,1.6925,1.6543,1.6199,1.5928,1.5506,1.5389,1.5389,1.5389,1.4873,1.4314,1.4139,1.3535,1.2723,1.1789,1.1408,1.1111,1.0381,1.0125,0.9994,0.9994,0.9994,0.9994,0.9994,0.9994,0.9994,0.9994,0.9994,0.9994,0.9994,0.9994,0.9994,0.9994,0.9994,0.998,0.9947,0.9927,0.9903,0.9903,0.9903,0.9763,0.9579,0.9542,0.9489,0.9313,0.9259,0.9237,0.923,0.9032,0.8929,0.8929,0.8929,0.8929,0.8963,0.8784,0.8703,0.8703,0.8703,0.8432,0.7936,0.7936,0.7668,0.7207,0.7092,0.7057,0.6976,0.6325,0.567,0.5171,1.7994,1.7807,1.7628,1.7628,1.7426,1.7279,1.7279,1.7279,1.7279,1.7279,1.7279,1.738,1.7628,1.7854,1.7994,1.7994,1.7768,1.7761,1.7994,1.7761,1.7761,1.7994,1.7994,1.7994,1.7994,1.804,1.79,1.7628,1.79,1.7854,1.7628,1.7628,1.7527,1.7333,1.7527,1.7527,1.7333,1.7527,1.7527,1.7279,1.7279,1.7434,1.7628,1.738,1.7426,1.7628,1.738,1.7304,1.7172,1.6572,1.6382,1.6206,1.5613,1.5389,1.5389,1.5389,1.5305,1.5041,1.4314,1.4013,1.3711,1.2766,1.1918,1.1284,1.1154,1.0554,0.9994,0.9994,0.9994,0.9994,0.9994,0.9994,0.9994,0.9994,0.9994,0.9994,0.9994,0.9994,0.9994,0.9994,0.9994,0.9928,0.9663,0.9661,0.9579,0.9396,0.9396,0.9396,0.9348,0.9347,0.9339,0.9284,0.9115,0.9043,0.9023,0.8855,0.8746,0.8746,0.8746,0.8746,0.8746,0.8713,0.8703,0.8703,0.8703,0.8661,0.8589,0.8589,0.8546,0.8394,0.7897,0.7668,0.7591,0.6976,0.6363,0.5786,1.8133,1.7994,1.79,1.79,1.7854,1.7753,1.7753,1.7753,1.7753,1.7753,1.7753,1.78,1.79,1.804,1.8087,1.8087,1.7994,1.7947,1.8087,1.7994,1.7994,1.8087,1.8087,1.8087,1.8087,1.8234,1.8288,1.8148,1.8141,1.804,1.79,1.7768,1.7721,1.7753,1.7721,1.7714,1.7753,1.7854,1.7854,1.7753,1.7753,1.78,1.79,1.78,1.7714,1.7675,1.738,1.7279,1.726,1.6844,1.6565,1.6338,1.584,1.5535,1.5389,1.5389,1.5389,1.5305,1.4915,1.4831,1.4608,1.3711,1.3154,1.2607,1.1537,1.0982,1.0598,1.0081,0.9994,0.9994,0.9994,0.9994,0.9994,0.9994,0.9994,0.9994,0.9994,0.9852,0.9738,0.9615,0.9601,0.9555,0.9461,0.9447,0.9377,0.9291,0.9305,0.9246,0.9149,0.915,0.9065,0.8984,0.8865,0.8827,0.8845,0.8751,0.8703,0.8703,0.8703,0.8703,0.8703,0.8703,0.8703,0.8703,0.8703,0.8703,0.8703,0.8703,0.8703,0.8665,0.8394,0.8089,0.7783,0.7514,0.7015,0.6402]}]]